[[{"header":{"parameterUnit":"m.s-1","parameterCategory":1,"la1":31.0,"la2":29.5877,"lo1":-88.7671,"lo2":-86.6584,"dy":0.0162,"dx":0.0185,"nx":115,"ny":88,"refTime":"2023-03-10T06:00:00:Z","depth":0,"parameterNumber":2,"parameterNumberName":"U-component_of_WINDS"},"data":[0.0,0.0,0.0,0.0,0.0,0.0,0.0,0.0,0.0,0.0,0.0,0.0,0.0,0.0,0.0,0.0,0.0,0.0,0.0,0.0,0.0,0.0,0.0,0.0,0.0,0.0,0.0,0.0,0.0,0.0,0.0,0.0,0.0,0.0,0.0,0.0,0.0,0.0,0.0,0.0,0.0,0.0,0.0,0.0,0.0,0.0,0.0,0.0,0.0,0.0,0.0,0.0,0.0,0.0,0.0,0.0,0.0,0.0,0.0,0.0,0.0,0.0,0.0,0.0,0.0,0.0,0.0,0.0,0.0,0.0,0.0,0.0,0.0,0.0,0.0,0.0,0.0,0.0,0.0,0.0,0.0,0.0,0.0,0.0,0.0,0.0,0.0,0.0,0.0,0.0,0.0,0.0,0.0,0.0,0.0,0.0,0.0,0.0,0.0,0.0,0.0,0.0,0.0,0.0,0.0,0.0,0.0,0.0,0.0,0.0,0.0,0.0,0.0,0.0,0.0,0.0,0.0,0.0,0.0,0.0,0.0,0.0,0.0,0.0,0.0,0.0,0.0,0.0,0.0,0.0,0.0,0.0,0.0,0.0,0.0,0.0,0.0,0.0,0.0,0.0,0.0,0.0,0.0,0.0,0.0,0.0,0.0,0.0,0.0,0.0,0.0,0.0,0.0,0.0,0.0,0.0,0.0,0.0,0.0,0.0,0.0,0.0,0.0,0.0,0.0,0.0,0.0,0.0,0.0,0.0,0.0,0.0,0.0,0.0,0.0,0.0,0.0,0.0,0.0,0.0,0.0,0.0,0.0,0.0,0.0,0.0,0.0,0.0,0.0,0.0,0.0,0.0,0.0,0.0,0.0,0.0,0.0,0.0,0.0,0.0,0.0,0.0,0.0,0.0,0.0,0.0,0.0,0.0,0.0,0.0,0.0,0.0,0.0,0.0,0.0,0.0,0.0,0.0,0.0,0.0,0.0,0.0,0.0,0.0,0.0,0.0,0.0,0.0,0.0,0.0,0.0,0.0,0.0,0.0,0.0,0.0,0.0,0.0,0.0,0.0,0.0,0.0,0.0,0.0,0.0,0.0,0.0,0.0,0.0,0.0,0.0,0.0,0.0,0.0,0.0,0.0,0.0,0.0,0.0,0.0,0.0,0.0,0.0,0.0,0.0,0.0,0.0,0.0,0.0,0.0,0.0,0.0,0.0,0.0,0.0,0.0,0.0,0.0,0.0,0.0,0.0,0.0,0.0,0.0,0.0,0.0,0.0,0.0,0.0,0.0,0.0,0.0,0.0,0.0,0.0,0.0,0.0,0.0,0.0,0.0,0.0,0.0,0.0,0.0,0.0,0.0,0.0,0.0,0.0,0.0,0.0,0.0,0.0,0.0,0.0,0.0,0.0,0.0,0.0,0.0,0.0,0.0,0.0,0.0,0.0,0.0,0.0,0.0,0.0,0.0,0.0,0.0,0.0,0.0,0.0,0.0,0.0,0.0,0.0,0.0,0.0,0.0,0.0,0.0,0.0,0.0,0.0,0.0,0.0,0.0,0.0,0.0,0.0,0.0,0.0,0.0,0.0,0.0,0.0,0.0,0.0,0.0,0.0,0.0,0.0,0.0,0.0,0.0,0.0,0.0,0.0,0.0,0.0,0.0,0.0,0.0,0.0,0.0,0.0,0.0,0.0,0.0,0.0,0.0,0.0,0.0,0.0,0.0,0.0,0.0,0.0,0.0,0.0,0.0,0.0,0.0,0.0,0.0,0.0,0.0,0.0,0.0,0.0,0.0,0.0,0.0,0.0,0.0,0.0,0.0,0.0,0.0,0.0,0.0,0.0,0.0,0.0,0.0,0.0,0.0,0.0,0.0,0.0,0.0,0.0,0.0,0.0,0.0,0.0,0.0,0.0,0.0,0.0,0.0,0.0,0.0,0.0,0.0,0.0,0.0,0.0,0.0,0.0,0.0,0.0,0.0,0.0,0.0,0.0,0.0,0.0,0.0,0.0,0.0,0.0,0.0,0.0,0.0,0.0,0.0,0.0,0.0,0.0,0.0,0.0,0.0,0.0,0.0,0.0,0.0,0.0,0.0,0.0,0.0,0.0,0.0,0.0,0.0,0.0,0.0,0.0,0.0,0.0,0.0,0.0,0.0,0.0,0.0,0.0,0.0,0.0,0.0,0.0,0.0,0.0,0.0,0.0,0.0,0.0,0.0,0.0,0.0,0.0,0.0,0.0,0.0,0.0,0.0,0.0,0.0,0.0,0.0,0.0,0.0,0.0,0.0,0.0,0.0,0.0,0.0,0.0,0.0,0.0,0.0,0.0,0.0,0.0,0.0,0.0,0.0,0.0,0.0,0.0,0.0,0.0,0.0,0.0,0.0,0.0,0.0,0.0,0.0,0.0,0.0,0.0,0.0,0.0,0.0,0.0,0.0,0.0,0.0,0.0,0.0,0.0,0.0,0.0,0.0,0.0,0.0,0.0,0.0,0.0,0.0,0.0,0.0,0.0,0.0,0.0,0.0,0.0,0.0,0.0,0.0,0.0,0.0,0.0,0.0,0.0,0.0,0.0,0.0,0.0,0.0,0.0,0.0,0.0,0.0,0.0,0.0,0.0,0.0,0.0,0.0,0.0,0.0,0.0,0.0,0.0,0.0,0.0,0.0,0.0,0.0,0.0,0.0,0.0,0.0,0.0,0.0,0.0,0.0,0.0,0.0,0.0,0.0,0.0,0.0,0.0,0.0,0.0,0.0,0.0,0.0,0.0,0.0,0.0,0.0,0.0,0.0,0.0,0.0,0.0,0.0,0.0,0.0,0.0,0.0,0.0,0.0,0.0,0.0,0.0,0.0,0.0,0.0,0.0,0.0,0.0,0.0,0.0,0.0,0.0,0.0,0.0,0.0,0.0,0.0,0.0,0.0,0.0,0.0,0.0,0.0,0.0,0.0,0.0,0.0,0.0,0.0,0.0,0.0,0.0,0.0,0.0,0.0,0.0,0.0,0.0,0.0,0.0,0.0,0.0,0.0,0.0,0.0,0.0,0.0,0.0,0.0,0.0,0.0,0.0,0.0,0.0,0.0,0.0,0.0,0.0,0.0,0.0,0.0,0.0,0.0,0.0,0.0,0.0,0.0,0.0,0.0,0.0,0.0,0.0,0.0,0.0,0.0,0.0,0.0,0.0,0.0,0.0,0.0,0.0,0.0,0.0,0.0,0.0,0.0,0.0,0.0,0.0,0.0,0.0,0.0,0.0,0.0,0.0,0.0,0.0,0.0,0.0,0.0,0.0,0.0,0.0,0.0,0.0,0.0,0.0,0.0,0.0,0.0,0.0,0.0,0.0,0.0,0.0,0.0,0.0,0.0,0.0,0.0,0.0,0.0,0.0,0.0,0.0,0.0,0.0,0.0,0.0,0.0,0.0,0.0,0.0,0.0,0.0,0.0,0.0,0.0,0.0,0.0,0.0,0.0,0.0,0.0,0.0,0.0,0.0,0.0,0.0,0.0,0.0,0.0,0.0,0.0,0.0,0.0,0.0,0.0,0.0,0.0,0.0,0.0,0.0,0.0,0.0,0.0,0.0,0.0,0.0,0.0,0.0,0.0,0.0,0.0,0.0,0.0,0.0,0.0,0.0,0.0,0.0,0.0,0.0,0.0,0.0,0.0,0.0,0.0,0.0,0.0,0.0,0.0,0.0,0.0,0.0,0.0,0.0,0.0,0.0,0.0,0.0,0.0,0.0,0.0,0.0,0.0,0.0,0.0,0.0,0.0,0.0,0.0,0.0,0.0,0.0,0.0,0.0,0.0,0.0,0.0,0.0,0.0,0.0,0.0,0.0,0.0,0.0,0.0,0.0,0.0,0.0,0.0,0.0,0.0,0.0,0.0,0.0,0.0,0.0,0.0,0.0,0.0,0.0,0.0,0.0,0.0,0.0,0.0,0.0,0.0,0.0,0.0,0.0,0.0,0.0,0.0,0.0,0.0,0.0,0.0,0.0,0.0,0.0,0.0,0.0,0.0,0.0,0.0,0.0,0.0,0.0,0.0,0.0,0.0,0.0,0.0,0.0,0.0,0.0,0.0,0.0,0.0,0.0,0.0,0.0,0.0,0.0,0.0,0.0,0.0,0.0,0.0,0.0,0.0,0.0,0.0,0.0,0.0,0.0,0.0,0.0,0.0,0.0,0.0,0.0,0.0,0.0,0.0,0.0,0.0,0.0,0.0,0.0,0.0,0.0,0.0,0.0,0.0,0.0,0.0,0.0,0.0,0.0,0.0,5.3241,0.0,0.0,0.0,0.0,0.0,0.0,0.0,0.0,0.0,0.0,0.0,0.0,0.0,0.0,0.0,0.0,0.0,0.0,0.0,0.0,0.0,0.0,0.0,0.0,0.0,0.0,0.0,0.0,0.0,0.0,0.0,0.0,0.0,0.0,0.0,0.0,0.0,0.0,0.0,0.0,0.0,0.0,0.0,0.0,0.0,0.0,0.0,0.0,0.0,0.0,0.0,0.0,0.0,0.0,0.0,0.0,0.0,0.0,0.0,0.0,0.0,0.0,0.0,0.0,0.0,0.0,0.0,0.0,0.0,0.0,0.0,0.0,0.0,0.0,0.0,0.0,0.0,0.0,0.0,0.0,0.0,0.0,0.0,0.0,0.0,0.0,0.0,0.0,0.0,0.0,0.0,0.0,0.0,0.0,0.0,0.0,0.0,0.0,0.0,0.0,0.0,0.0,0.0,0.0,0.0,0.0,0.0,0.0,0.0,0.0,5.9871,5.7603,5.6705,5.5209,5.3142,0.0,0.0,0.0,0.0,0.0,0.0,0.0,0.0,0.0,0.0,0.0,0.0,0.0,0.0,0.0,0.0,0.0,0.0,0.0,0.0,0.0,0.0,0.0,0.0,0.0,0.0,0.0,0.0,0.0,0.0,0.0,0.0,0.0,0.0,0.0,0.0,0.0,0.0,0.0,0.0,0.0,0.0,0.0,0.0,0.0,0.0,0.0,0.0,0.0,0.0,0.0,0.0,0.0,0.0,0.0,0.0,0.0,0.0,0.0,0.0,0.0,0.0,0.0,0.0,0.0,0.0,0.0,0.0,0.0,0.0,0.0,0.0,0.0,0.0,0.0,0.0,0.0,0.0,0.0,0.0,0.0,0.0,0.0,0.0,0.0,0.0,0.0,0.0,0.0,0.0,0.0,0.0,0.0,0.0,0.0,0.0,0.0,0.0,0.0,0.0,0.0,0.0,0.0,0.0,0.0,0.0,0.0,0.0,0.0,0.0,0.0,0.0,5.4992,5.3825,5.3479,0.0,0.0,0.0,0.0,0.0,0.0,0.0,0.0,0.0,0.0,0.0,0.0,0.0,0.0,0.0,0.0,0.0,0.0,0.0,0.0,0.0,0.0,0.0,0.0,0.0,0.0,0.0,0.0,0.0,0.0,0.0,0.0,0.0,0.0,0.0,0.0,0.0,0.0,0.0,0.0,0.0,0.0,0.0,0.0,0.0,0.0,0.0,0.0,0.0,0.0,0.0,0.0,0.0,0.0,0.0,0.0,0.0,0.0,0.0,0.0,0.0,0.0,0.0,0.0,0.0,0.0,0.0,0.0,0.0,0.0,0.0,0.0,0.0,0.0,0.0,0.0,0.0,0.0,0.0,0.0,0.0,0.0,0.0,0.0,0.0,0.0,0.0,0.0,0.0,0.0,0.0,0.0,0.0,0.0,0.0,0.0,0.0,0.0,0.0,0.0,0.0,0.0,0.0,0.0,0.0,0.0,0.0,0.0,0.0,0.0,5.7114,5.6843,5.3391,0.0,5.3312,0.0,0.0,0.0,0.0,0.0,0.0,0.0,0.0,0.0,0.0,0.0,0.0,0.0,0.0,0.0,0.0,0.0,0.0,0.0,0.0,0.0,0.0,0.0,0.0,0.0,0.0,0.0,0.0,0.0,0.0,0.0,0.0,0.0,0.0,0.0,0.0,0.0,0.0,0.0,0.0,0.0,0.0,0.0,0.0,0.0,0.0,0.0,0.0,0.0,0.0,0.0,0.0,0.0,0.0,0.0,0.0,0.0,0.0,0.0,0.0,0.0,0.0,0.0,0.0,0.0,0.0,0.0,0.0,0.0,0.0,0.0,0.0,0.0,0.0,0.0,0.0,0.0,0.0,0.0,0.0,0.0,0.0,0.0,0.0,0.0,0.0,0.0,0.0,0.0,0.0,0.0,0.0,0.0,0.0,0.0,0.0,0.0,0.0,0.0,0.0,0.0,0.0,0.0,0.0,0.0,0.0,0.0,0.0,0.0,0.0,5.6707,5.4844,5.1499,5.0506,0.0,0.0,0.0,0.0,0.0,0.0,0.0,0.0,0.0,0.0,0.0,0.0,0.0,0.0,0.0,0.0,0.0,0.0,0.0,0.0,0.0,0.0,0.0,0.0,0.0,0.0,0.0,0.0,0.0,0.0,0.0,0.0,0.0,0.0,0.0,0.0,0.0,0.0,0.0,0.0,0.0,0.0,0.0,0.0,0.0,0.0,0.0,0.0,0.0,0.0,0.0,0.0,0.0,0.0,0.0,0.0,0.0,0.0,0.0,0.0,0.0,0.0,0.0,0.0,0.0,0.0,0.0,0.0,0.0,0.0,0.0,0.0,0.0,0.0,0.0,0.0,0.0,0.0,0.0,0.0,0.0,0.0,0.0,0.0,0.0,0.0,0.0,0.0,0.0,0.0,0.0,0.0,0.0,0.0,0.0,0.0,0.0,0.0,0.0,0.0,0.0,0.0,0.0,0.0,0.0,0.0,0.0,0.0,0.0,0.0,5.7847,5.5389,5.1951,5.0277,4.9388,4.9428,0.0,0.0,0.0,0.0,0.0,0.0,0.0,0.0,0.0,0.0,0.0,0.0,0.0,0.0,0.0,0.0,0.0,0.0,0.0,0.0,0.0,0.0,0.0,0.0,0.0,0.0,0.0,0.0,0.0,0.0,0.0,0.0,0.0,0.0,0.0,0.0,0.0,0.0,0.0,0.0,0.0,0.0,0.0,0.0,0.0,0.0,0.0,0.0,0.0,0.0,0.0,0.0,0.0,0.0,0.0,0.0,0.0,0.0,0.0,0.0,0.0,0.0,0.0,0.0,0.0,0.0,0.0,0.0,0.0,0.0,0.0,0.0,0.0,0.0,0.0,0.0,0.0,0.0,0.0,0.0,0.0,0.0,0.0,0.0,0.0,0.0,0.0,0.0,0.0,0.0,0.0,0.0,0.0,0.0,0.0,0.0,0.0,0.0,0.0,0.0,0.0,0.0,0.0,0.0,0.0,0.0,0.0,0.0,5.9087,5.6334,5.2615,4.8432,4.996,4.9044,0.0,0.0,0.0,0.0,0.0,0.0,0.0,0.0,0.0,0.0,0.0,0.0,0.0,0.0,0.0,0.0,0.0,0.0,0.0,0.0,0.0,0.0,0.0,0.0,0.0,0.0,0.0,0.0,0.0,0.0,0.0,0.0,0.0,0.0,0.0,0.0,0.0,0.0,0.0,0.0,0.0,0.0,0.0,0.0,0.0,0.0,0.0,0.0,0.0,0.0,0.0,0.0,0.0,0.0,0.0,0.0,0.0,0.0,0.0,0.0,0.0,0.0,0.0,0.0,0.0,0.0,0.0,0.0,0.0,0.0,0.0,0.0,0.0,0.0,0.0,0.0,0.0,0.0,0.0,0.0,0.0,0.0,0.0,0.0,0.0,0.0,0.0,0.0,0.0,0.0,0.0,0.0,0.0,0.0,0.0,0.0,0.0,0.0,0.0,0.0,0.0,0.0,0.0,0.0,0.0,0.0,0.0,0.0,0.0,5.828,5.5834,5.3279,5.0858,4.9619,4.7963,0.0,0.0,0.0,0.0,0.0,0.0,0.0,0.0,0.0,0.0,0.0,0.0,0.0,0.0,0.0,0.0,0.0,0.0,0.0,0.0,0.0,0.0,0.0,0.0,0.0,0.0,0.0,0.0,0.0,0.0,0.0,0.0,0.0,0.0,0.0,0.0,0.0,0.0,0.0,0.0,0.0,0.0,0.0,0.0,0.0,0.0,0.0,0.0,0.0,0.0,0.0,0.0,0.0,0.0,0.0,0.0,0.0,0.0,0.0,0.0,0.0,0.0,0.0,0.0,0.0,0.0,0.0,0.0,0.0,0.0,0.0,0.0,0.0,0.0,0.0,0.0,0.0,0.0,0.0,0.0,0.0,0.0,0.0,0.0,0.0,0.0,0.0,0.0,0.0,0.0,0.0,0.0,0.0,0.0,0.0,0.0,0.0,0.0,0.0,0.0,0.0,0.0,0.0,0.0,0.0,0.0,0.0,0.0,0.0,5.6839,0.0,5.3086,0.0,4.8851,4.7248,0.0,0.0,0.0,0.0,0.0,0.0,0.0,0.0,0.0,0.0,0.0,0.0,0.0,0.0,0.0,0.0,0.0,0.0,0.0,0.0,0.0,0.0,0.0,0.0,0.0,0.0,0.0,0.0,0.0,0.0,0.0,0.0,0.0,0.0,0.0,0.0,0.0,0.0,0.0,0.0,0.0,0.0,0.0,0.0,0.0,0.0,0.0,0.0,0.0,0.0,0.0,0.0,0.0,0.0,0.0,0.0,0.0,0.0,0.0,0.0,0.0,0.0,0.0,0.0,0.0,0.0,0.0,0.0,0.0,0.0,0.0,0.0,0.0,0.0,0.0,0.0,0.0,0.0,0.0,0.0,0.0,0.0,0.0,0.0,0.0,0.0,0.0,0.0,0.0,0.0,0.0,0.0,0.0,0.0,0.0,0.0,0.0,0.0,0.0,0.0,0.0,0.0,0.0,0.0,0.0,0.0,0.0,0.0,5.6061,5.4688,5.3885,5.1828,4.8062,4.7958,4.6852,0.0,0.0,0.0,0.0,0.0,0.0,0.0,0.0,0.0,0.0,0.0,0.0,0.0,0.0,0.0,0.0,0.0,0.0,0.0,0.0,0.0,0.0,0.0,0.0,0.0,0.0,0.0,0.0,0.0,0.0,0.0,0.0,0.0,0.0,0.0,0.0,0.0,0.0,0.0,0.0,0.0,0.0,0.0,0.0,0.0,0.0,0.0,0.0,0.0,0.0,0.0,0.0,0.0,0.0,0.0,0.0,0.0,0.0,0.0,0.0,0.0,0.0,0.0,0.0,0.0,0.0,0.0,0.0,0.0,0.0,0.0,0.0,0.0,0.0,0.0,0.0,0.0,0.0,0.0,0.0,0.0,0.0,0.0,0.0,0.0,0.0,0.0,0.0,0.0,0.0,0.0,0.0,0.0,0.0,0.0,0.0,0.0,0.0,0.0,0.0,0.0,0.0,0.0,0.0,0.0,0.0,0.0,0.0,0.0,5.4617,5.4311,5.3137,5.1052,4.9428,4.7292,0.0,0.0,0.0,0.0,0.0,0.0,0.0,0.0,0.0,0.0,0.0,0.0,0.0,0.0,0.0,0.0,0.0,0.0,0.0,0.0,0.0,0.0,0.0,0.0,0.0,0.0,0.0,0.0,0.0,0.0,0.0,0.0,0.0,0.0,0.0,0.0,0.0,0.0,0.0,0.0,0.0,0.0,0.0,0.0,0.0,0.0,0.0,0.0,0.0,0.0,0.0,0.0,0.0,0.0,0.0,0.0,0.0,0.0,0.0,0.0,0.0,0.0,0.0,0.0,0.0,0.0,0.0,0.0,0.0,0.0,0.0,0.0,0.0,0.0,0.0,0.0,0.0,0.0,0.0,0.0,0.0,0.0,0.0,0.0,0.0,0.0,0.0,0.0,0.0,0.0,0.0,0.0,0.0,0.0,0.0,0.0,0.0,0.0,0.0,0.0,0.0,0.0,0.0,0.0,0.0,0.0,0.0,0.0,0.0,5.4695,5.4592,5.3914,5.2433,5.0503,4.7875,4.4817,0.0,0.0,0.0,0.0,0.0,0.0,0.0,0.0,0.0,0.0,0.0,0.0,0.0,0.0,0.0,0.0,0.0,0.0,0.0,0.0,0.0,0.0,0.0,0.0,0.0,0.0,0.0,0.0,0.0,0.0,0.0,0.0,0.0,0.0,0.0,0.0,0.0,0.0,0.0,0.0,0.0,0.0,0.0,0.0,0.0,0.0,0.0,0.0,0.0,0.0,0.0,0.0,0.0,0.0,0.0,0.0,0.0,0.0,0.0,0.0,0.0,0.0,0.0,0.0,0.0,0.0,0.0,0.0,0.0,0.0,0.0,0.0,0.0,0.0,0.0,0.0,0.0,0.0,0.0,0.0,0.0,0.0,0.0,0.0,0.0,0.0,0.0,0.0,0.0,0.0,0.0,0.0,0.0,0.0,0.0,0.0,0.0,0.0,0.0,0.0,0.0,0.0,0.0,0.0,0.0,0.0,0.0,0.0,5.4907,5.5007,5.4346,5.2964,5.132,4.8653,0.0,0.0,0.0,0.0,0.0,0.0,0.0,0.0,0.0,0.0,0.0,0.0,0.0,0.0,0.0,0.0,0.0,0.0,0.0,0.0,0.0,0.0,0.0,0.0,0.0,0.0,0.0,0.0,0.0,0.0,0.0,0.0,0.0,0.0,0.0,0.0,0.0,0.0,0.0,0.0,0.0,0.0,0.0,0.0,0.0,0.0,0.0,0.0,0.0,0.0,0.0,0.0,0.0,0.0,0.0,0.0,0.0,0.0,0.0,0.0,0.0,0.0,0.0,0.0,0.0,0.0,0.0,0.0,0.0,0.0,0.0,0.0,0.0,0.0,0.0,0.0,0.0,0.0,0.0,0.0,0.0,0.0,0.0,0.0,0.0,0.0,0.0,0.0,0.0,0.0,0.0,0.0,0.0,0.0,0.0,0.0,0.0,0.0,0.0,0.0,0.0,0.0,0.0,0.0,0.0,0.0,0.0,0.0,0.0,5.577,5.7961,5.8367,5.6791,5.3628,5.0968,0.0,0.0,0.0,0.0,0.0,0.0,0.0,0.0,0.0,0.0,0.0,0.0,0.0,0.0,0.0,0.0,0.0,0.0,0.0,0.0,0.0,0.0,0.0,0.0,0.0,0.0,0.0,0.0,0.0,0.0,0.0,0.0,0.0,0.0,0.0,0.0,0.0,0.0,0.0,0.0,0.0,0.0,0.0,0.0,0.0,0.0,0.0,0.0,0.0,0.0,0.0,0.0,0.0,0.0,0.0,0.0,0.0,0.0,0.0,0.0,0.0,0.0,0.0,0.0,0.0,0.0,0.0,0.0,0.0,0.0,0.0,0.0,0.0,0.0,0.0,0.0,0.0,0.0,0.0,0.0,0.0,0.0,0.0,0.0,0.0,0.0,0.0,0.0,0.0,0.0,0.0,0.0,0.0,0.0,0.0,0.0,0.0,0.0,0.0,0.0,0.0,0.0,0.0,0.0,0.0,0.0,0.0,0.0,5.6146,5.6499,5.9941,6.1274,6.0317,5.6208,5.3096,0.0,0.0,0.0,0.0,0.0,0.0,0.0,0.0,0.0,0.0,0.0,0.0,0.0,0.0,0.0,0.0,0.0,0.0,0.0,0.0,0.0,0.0,0.0,0.0,0.0,0.0,0.0,0.0,0.0,0.0,0.0,0.0,0.0,0.0,0.0,0.0,0.0,0.0,0.0,0.0,0.0,0.0,0.0,0.0,0.0,0.0,0.0,0.0,0.0,0.0,0.0,0.0,0.0,0.0,0.0,0.0,0.0,0.0,0.0,0.0,0.0,0.0,0.0,0.0,0.0,0.0,0.0,0.0,0.0,0.0,0.0,0.0,0.0,0.0,0.0,0.0,0.0,0.0,0.0,0.0,0.0,0.0,0.0,0.0,0.0,0.0,0.0,0.0,0.0,0.0,0.0,0.0,0.0,0.0,0.0,0.0,0.0,0.0,0.0,0.0,0.0,0.0,0.0,0.0,0.0,0.0,0.0,0.0,5.849,5.7425,6.1111,6.3079,6.2984,5.851,5.4996,0.0,0.0,0.0,0.0,0.0,0.0,0.0,0.0,0.0,0.0,0.0,0.0,0.0,0.0,0.0,0.0,0.0,0.0,0.0,0.0,0.0,0.0,0.0,0.0,0.0,0.0,0.0,0.0,0.0,0.0,0.0,0.0,0.0,0.0,0.0,0.0,0.0,0.0,0.0,0.0,0.0,0.0,0.0,0.0,0.0,0.0,0.0,0.0,0.0,0.0,0.0,0.0,0.0,0.0,0.0,0.0,0.0,0.0,0.0,0.0,0.0,0.0,0.0,0.0,0.0,0.0,0.0,0.0,0.0,0.0,0.0,0.0,0.0,0.0,0.0,0.0,0.0,0.0,0.0,0.0,0.0,0.0,0.0,0.0,0.0,0.0,0.0,0.0,0.0,0.0,0.0,0.0,0.0,0.0,0.0,0.0,0.0,0.0,0.0,0.0,0.0,0.0,0.0,0.0,0.0,0.0,0.0,0.0,5.7463,5.8962,6.1679,6.3079,6.3049,5.851,5.5542,0.0,0.0,0.0,0.0,0.0,0.0,0.0,0.0,0.0,0.0,0.0,0.0,0.0,0.0,0.0,0.0,0.0,0.0,0.0,0.0,0.0,0.0,0.0,0.0,0.0,0.0,0.0,0.0,0.0,0.0,0.0,0.0,0.0,0.0,0.0,0.0,0.0,0.0,0.0,0.0,0.0,0.0,0.0,0.0,0.0,0.0,0.0,0.0,2.5448,0.0,0.0,0.0,0.0,0.0,0.0,0.0,0.0,0.0,0.0,0.0,0.0,0.0,0.0,0.0,0.0,0.0,0.0,0.0,0.0,0.0,0.0,0.0,0.0,0.0,0.0,0.0,0.0,0.0,0.0,0.0,0.0,0.0,0.0,0.0,0.0,0.0,0.0,0.0,0.0,0.0,0.0,0.0,0.0,0.0,0.0,0.0,0.0,0.0,0.0,0.0,0.0,0.0,0.0,0.0,0.0,0.0,0.0,0.0,5.737,5.9952,6.2052,6.3079,6.3014,5.9584,5.6933,0.0,0.0,0.0,0.0,0.0,0.0,0.0,0.0,0.0,0.0,0.0,0.0,0.0,0.0,0.0,0.0,0.0,0.0,0.0,0.0,0.0,0.0,0.0,0.0,0.0,0.0,0.0,0.0,0.0,0.0,0.0,0.0,0.0,0.0,0.0,0.0,0.0,0.0,0.0,0.0,0.0,0.0,0.0,0.0,0.0,0.0,0.0,0.0,0.0,0.0,0.0,0.0,0.0,0.0,0.0,0.0,0.0,0.0,0.0,0.0,0.0,0.0,0.0,0.0,0.0,0.0,0.0,0.0,0.0,0.0,0.0,0.0,0.0,0.0,0.0,0.0,0.0,0.0,0.0,0.0,0.0,0.0,0.0,0.0,0.0,0.0,0.0,0.0,0.0,0.0,0.0,0.0,0.0,0.0,0.0,0.0,0.0,0.0,0.0,0.0,0.0,0.0,0.0,0.0,0.0,0.0,0.0,5.5283,5.7653,6.0985,6.2445,6.3079,6.3019,6.073,5.8386,5.5904,0.0,0.0,0.0,0.0,0.0,0.0,0.0,0.0,0.0,0.0,0.0,0.0,0.0,0.0,0.0,0.0,0.0,0.0,0.0,0.0,0.0,0.0,0.0,0.0,0.0,0.0,0.0,0.0,0.0,0.0,0.0,0.0,0.0,0.0,0.0,0.0,0.0,0.0,2.4602,2.5974,0.0,0.0,0.0,0.0,0.0,0.0,0.0,0.0,2.4463,0.0,0.0,0.0,0.0,0.0,0.0,0.0,0.0,0.0,0.0,0.0,0.0,0.0,0.0,0.0,0.0,0.0,0.0,0.0,0.0,0.0,0.0,0.0,0.0,0.0,0.0,0.0,0.0,0.0,0.0,0.0,0.0,0.0,0.0,0.0,0.0,0.0,0.0,0.0,0.0,0.0,0.0,0.0,0.0,0.0,0.0,0.0,0.0,0.0,0.0,0.0,0.0,0.0,0.0,0.0,0.0,5.5525,5.5891,5.8208,6.2551,6.2954,6.3079,6.3104,6.0761,5.8071,5.5153,0.0,0.0,0.0,0.0,0.0,0.0,0.0,0.0,0.0,0.0,0.0,0.0,0.0,0.0,0.0,0.0,0.0,0.0,0.0,0.0,0.0,0.0,0.0,0.0,0.0,0.0,0.0,0.0,0.0,0.0,0.0,0.0,0.0,0.0,0.0,0.0,0.0,0.0,0.0,2.621,2.6902,0.0,0.0,0.0,0.0,0.0,0.0,0.0,0.0,2.35,0.0,0.0,0.0,0.0,0.0,0.0,0.0,0.0,0.0,0.0,0.0,0.0,0.0,0.0,0.0,0.0,0.0,0.0,0.0,0.0,0.0,0.0,0.0,0.0,0.0,0.0,0.0,0.0,0.0,0.0,0.0,0.0,0.0,0.0,0.0,0.0,0.0,0.0,0.0,0.0,0.0,0.0,0.0,0.0,0.0,0.0,0.0,0.0,0.0,0.0,0.0,0.0,0.0,0.0,0.0,5.5771,5.7183,5.9553,6.2984,6.3079,6.2672,6.1704,5.9867,5.7102,0.0,0.0,0.0,0.0,0.0,0.0,0.0,0.0,0.0,0.0,0.0,0.0,0.0,0.0,0.0,0.0,0.0,0.0,0.0,0.0,0.0,0.0,0.0,0.0,0.0,0.0,0.0,0.0,0.0,0.0,0.0,0.0,0.0,0.0,0.0,0.0,0.0,0.0,0.0,0.0,2.619,2.6709,2.684,0.0,0.0,0.0,0.0,0.0,0.0,2.3792,2.2672,0.0,0.0,0.0,0.0,0.0,0.0,0.0,0.0,0.0,0.0,0.0,0.0,0.0,0.0,0.0,0.0,0.0,0.0,0.0,0.0,0.0,0.0,0.0,0.0,0.0,0.0,0.0,0.0,0.0,0.0,0.0,0.0,0.0,0.0,0.0,0.0,0.0,0.0,0.0,0.0,0.0,0.0,0.0,0.0,0.0,0.0,0.0,0.0,0.0,0.0,0.0,0.0,0.0,0.0,0.0,5.5176,5.7419,5.9627,6.1997,6.2057,6.1407,6.003,5.7974,5.5351,0.0,0.0,0.0,0.0,0.0,0.0,0.0,0.0,0.0,0.0,0.0,0.0,0.0,0.0,0.0,0.0,0.0,0.0,0.0,0.0,0.0,0.0,0.0,0.0,0.0,0.0,0.0,0.0,0.0,0.0,0.0,0.0,0.0,0.0,0.0,0.0,0.0,0.0,0.0,0.0,0.0,2.6594,2.6969,2.67,0.0,0.0,0.0,0.0,2.5681,2.4171,0.0,0.0,0.0,0.0,0.0,0.0,0.0,0.0,0.0,0.0,0.0,0.0,0.0,0.0,0.0,0.0,0.0,0.0,0.0,0.0,0.0,0.0,0.0,0.0,0.0,0.0,0.0,0.0,0.0,0.0,0.0,0.0,0.0,0.0,0.0,0.0,0.0,0.0,0.0,0.0,0.0,0.0,0.0,0.0,0.0,0.0,0.0,0.0,0.0,0.0,0.0,0.0,0.0,0.0,0.0,0.0,5.2733,5.4282,5.616,5.8439,5.8634,5.8509,5.83,5.4685,5.2309,0.0,0.0,0.0,0.0,0.0,0.0,0.0,0.0,0.0,0.0,0.0,0.0,0.0,0.0,0.0,0.0,0.0,0.0,0.0,0.0,0.0,0.0,0.0,0.0,0.0,0.0,0.0,0.0,0.0,0.0,0.0,0.0,0.0,0.0,0.0,0.0,0.0,0.0,0.0,0.0,0.0,2.6798,2.6551,2.6734,2.6685,0.0,0.0,2.6742,2.7747,2.5621,0.0,0.0,0.0,0.0,0.0,0.0,0.0,0.0,0.0,0.0,0.0,0.0,0.0,0.0,0.0,0.0,0.0,0.0,0.0,0.0,0.0,0.0,0.0,0.0,0.0,0.0,0.0,0.0,0.0,0.0,0.0,0.0,0.0,0.0,0.0,0.0,0.0,0.0,0.0,0.0,0.0,0.0,0.0,0.0,0.0,0.0,0.0,0.0,0.0,0.0,0.0,0.0,0.0,0.0,0.0,5.1022,5.2455,5.5103,5.6965,5.7922,5.7977,5.7469,5.6569,5.35,5.1046,0.0,0.0,0.0,0.0,0.0,0.0,0.0,0.0,0.0,0.0,0.0,0.0,0.0,0.0,0.0,0.0,0.0,0.0,0.0,0.0,0.0,0.0,0.0,0.0,0.0,0.0,0.0,0.0,0.0,0.0,0.0,0.0,0.0,0.0,0.0,0.0,0.0,0.0,0.0,0.0,0.0,0.0,2.6835,2.6874,0.0,0.0,0.0,2.7036,2.8079,0.0,0.0,0.0,0.0,0.0,0.0,0.0,0.0,0.0,0.0,0.0,0.0,0.0,0.0,0.0,0.0,0.0,0.0,0.0,0.0,0.0,0.0,0.0,0.0,0.0,0.0,0.0,0.0,0.0,0.0,0.0,0.0,0.0,0.0,0.0,0.0,0.0,0.0,0.0,0.0,0.0,0.0,0.0,0.0,0.0,0.0,0.0,0.0,0.0,0.0,0.0,0.0,0.0,0.0,0.0,0.0,0.0,5.1512,5.4915,5.6726,5.6726,5.6726,5.6076,5.4837,5.2552,0.0,0.0,0.0,0.0,0.0,0.0,0.0,0.0,0.0,0.0,0.0,0.0,0.0,0.0,0.0,0.0,0.0,0.0,0.0,0.0,0.0,0.0,0.0,0.0,0.0,0.0,0.0,2.3381,0.0,0.0,0.0,0.0,0.0,0.0,0.0,0.0,0.0,0.0,0.0,0.0,0.0,0.0,2.732,2.713,2.7115,2.7082,0.0,0.0,2.739,2.8137,2.6369,2.4235,0.0,0.0,0.0,0.0,0.0,0.0,0.0,0.0,0.0,0.0,0.0,0.0,0.0,0.0,0.0,0.0,0.0,0.0,0.0,0.0,0.0,0.0,0.0,0.0,0.0,0.0,0.0,0.0,0.0,0.0,0.0,0.0,0.0,0.0,0.0,0.0,0.0,0.0,0.0,0.0,0.0,0.0,0.0,0.0,0.0,0.0,0.0,0.0,0.0,0.0,0.0,0.0,0.0,0.0,0.0,4.878,5.1648,5.3316,5.3316,5.3179,5.3179,5.2991,5.1407,4.9823,0.0,0.0,0.0,0.0,0.0,0.0,0.0,0.0,0.0,0.0,0.0,0.0,0.0,0.0,0.0,0.0,0.0,0.0,0.0,0.0,0.0,0.0,0.0,0.0,0.0,0.0,0.0,0.0,0.0,0.0,0.0,0.0,0.0,0.0,0.0,0.0,0.0,0.0,0.0,0.0,0.0,2.713,2.7566,2.7598,2.7432,0.0,0.0,2.7679,2.8148,2.5935,2.3988,2.3014,0.0,0.0,0.0,0.0,0.0,0.0,0.0,0.0,0.0,0.0,0.0,0.0,0.0,0.0,0.0,0.0,0.0,0.0,0.0,0.0,0.0,0.0,0.0,0.0,0.0,0.0,0.0,0.0,0.0,0.0,0.0,0.0,0.0,0.0,0.0,0.0,0.0,0.0,0.0,0.0,0.0,0.0,0.0,0.0,0.0,0.0,0.0,0.0,0.0,0.0,0.0,0.0,0.0,4.7707,4.8434,5.1398,5.2929,5.2929,5.2929,5.308,5.3381,5.2284,5.0484,0.0,0.0,0.0,0.0,0.0,0.0,0.0,0.0,0.0,0.0,0.0,0.0,0.0,0.0,0.0,0.0,0.0,0.0,0.0,0.0,0.0,0.0,0.0,0.0,0.0,0.0,0.0,0.0,2.4428,2.449,2.4578,0.0,0.0,0.0,0.0,0.0,0.0,0.0,0.0,0.0,0.0,2.7692,2.7515,2.752,0.0,0.0,2.7673,2.6938,2.5124,2.5027,2.4111,2.166,2.0284,0.0,0.0,0.0,0.0,0.0,0.0,0.0,0.0,0.0,0.0,0.0,0.0,0.0,0.0,0.0,0.0,0.0,0.0,0.0,0.0,0.0,0.0,0.0,0.0,0.0,0.0,0.0,0.0,0.0,0.0,0.0,0.0,0.0,0.0,0.0,0.0,0.0,0.0,0.0,0.0,0.0,0.0,0.0,0.0,0.0,0.0,0.0,0.0,0.0,0.0,0.0,0.0,4.7494,4.8298,5.1402,5.2929,5.2929,5.2929,5.3181,5.3632,5.3094,5.1549,0.0,0.0,0.0,0.0,0.0,0.0,0.0,0.0,0.0,0.0,0.0,0.0,0.0,0.0,0.0,0.0,0.0,0.0,0.0,0.0,0.0,0.0,0.0,0.0,0.0,0.0,0.0,0.0,2.4829,2.4711,2.4401,0.0,0.0,0.0,0.0,0.0,0.0,0.0,0.0,0.0,0.0,2.7824,2.7217,2.7423,2.7851,2.8103,2.7554,2.6081,2.3292,2.3471,2.2947,2.0373,0.0,0.0,0.0,0.0,0.0,0.0,0.0,0.0,0.0,0.0,0.0,0.0,0.0,0.0,0.0,0.0,0.0,0.0,0.0,0.0,0.0,0.0,0.0,0.0,0.0,0.0,0.0,0.0,0.0,0.0,0.0,0.0,0.0,0.0,0.0,0.0,0.0,0.0,0.0,0.0,0.0,0.0,0.0,0.0,0.0,0.0,0.0,0.0,0.0,0.0,0.0,0.0,0.0,4.6862,4.8165,5.1279,5.2929,5.2929,5.2929,5.3181,5.3683,5.3632,5.2928,5.1288,0.0,0.0,0.0,0.0,0.0,0.0,0.0,0.0,0.0,0.0,0.0,0.0,0.0,0.0,0.0,0.0,0.0,0.0,0.0,0.0,0.0,0.0,0.0,0.0,0.0,0.0,2.5082,2.4601,2.4105,0.0,0.0,0.0,0.0,0.0,0.0,0.0,0.0,0.0,0.0,2.6194,2.7201,2.6179,2.7231,2.8037,2.811,2.6886,2.5236,2.3086,2.131,1.9945,0.0,0.0,0.0,0.0,0.0,0.0,0.0,0.0,0.0,0.0,0.0,0.0,0.0,0.0,0.0,0.0,0.0,0.0,0.0,0.0,0.0,0.0,0.0,0.0,0.0,0.0,0.0,0.0,5.6315,0.0,0.0,0.0,0.0,0.0,0.0,0.0,0.0,0.0,0.0,0.0,5.3743,5.2848,0.0,0.0,0.0,0.0,0.0,0.0,0.0,0.0,0.0,0.0,0.0,0.0,4.633,4.8137,5.1305,5.2929,5.2929,5.2929,5.3181,5.3683,5.3708,5.3631,5.3475,0.0,0.0,0.0,0.0,0.0,0.0,0.0,0.0,0.0,0.0,0.0,0.0,0.0,0.0,0.0,0.0,0.0,0.0,0.0,0.0,0.0,0.0,0.0,0.0,0.0,2.5216,0.0,0.0,0.0,0.0,0.0,0.0,0.0,0.0,0.0,0.0,0.0,2.4972,2.4751,2.4656,2.4516,2.4191,2.4876,2.5268,0.0,0.0,0.0,0.0,0.0,0.0,0.0,0.0,0.0,0.0,0.0,0.0,0.0,0.0,1.1454,1.0179,0.9695,0.9513,0.9353,0.0,0.0,0.0,0.0,0.0,0.0,0.0,0.0,0.0,0.0,0.0,0.0,0.0,0.0,0.0,0.0,5.5189,0.0,0.0,0.0,0.0,0.0,0.0,0.0,0.0,5.3366,5.3508,5.4259,5.3795,5.3278,0.0,5.2452,5.0738,0.0,0.0,0.0,0.0,0.0,0.0,0.0,0.0,4.6089,4.8137,5.1486,5.3206,5.3206,5.3406,5.3758,5.426,5.4285,5.4581,5.5151,4.9848,4.5135,0.0,0.0,0.0,0.0,0.0,0.0,0.0,0.0,0.0,0.0,0.0,0.0,0.0,0.0,0.0,0.0,0.0,0.0,0.0,0.0,0.0,0.0,0.0,2.5535,0.0,0.0,0.0,0.0,0.0,0.0,0.0,0.0,0.0,2.5172,2.5012,2.4743,2.436,2.4224,2.384,2.2848,0.0,0.0,0.0,0.0,0.0,0.0,0.0,1.915,1.7994,1.7542,1.7217,1.6696,1.5301,1.4163,1.4155,0.0,0.0,0.7547,0.7478,0.751,0.7251,0.7369,0.7378,0.7495,0.7733,0.7824,0.0,0.0,0.0,0.0,0.0,0.0,0.0,0.0,5.8899,5.7254,0.0,5.5559,0.0,0.0,0.0,0.0,0.0,0.0,0.0,0.0,5.4259,5.4974,5.4103,5.4811,5.5046,5.4889,5.36,5.2353,5.0987,5.039,0.0,0.0,0.0,0.0,0.0,0.0,4.633,4.8326,5.182,5.3733,5.3733,5.426,5.4813,5.5315,5.5196,5.5476,5.5955,5.1427,4.7399,4.3849,4.0834,0.0,0.0,0.0,0.0,0.0,0.0,0.0,0.0,0.0,0.0,0.0,0.0,0.0,0.0,0.0,0.0,0.0,0.0,0.0,0.0,2.6255,0.0,0.0,0.0,0.0,0.0,0.0,0.0,0.0,0.0,0.0,2.4095,2.466,2.473,2.3359,0.0,0.0,0.0,0.0,2.4132,1.9907,2.054,2.0816,1.8932,1.8077,1.7256,1.6519,0.0,0.0,1.5538,1.5031,1.4597,1.4461,0.9961,0.559,0.5382,0.4985,0.4673,0.4709,0.454,0.4502,0.4694,0.4746,0.4741,5.8122,0.0,0.0,0.0,0.0,5.9543,5.9777,6.0566,5.8922,5.7913,5.7319,5.6114,0.0,0.0,0.0,0.0,0.0,0.0,5.4035,5.4828,5.4551,5.4791,5.5558,5.571,5.5786,5.5903,5.5509,5.4672,5.3592,5.3279,5.0657,4.5713,0.0,0.0,0.0,0.0,4.9153,5.0469,5.2986,5.431,5.431,5.4486,5.4637,5.4787,5.3789,5.3714,5.4966,5.0109,4.6217,4.3806,4.2102,0.0,0.0,0.0,0.0,0.0,0.0,0.0,0.0,0.0,0.0,0.0,0.0,0.0,0.0,0.0,0.0,0.0,0.0,0.0,2.6249,2.6561,2.6027,0.0,0.0,0.0,0.0,0.0,0.0,0.0,0.0,0.0,2.2818,2.264,2.249,0.0,0.0,2.0882,1.9826,2.0043,1.9745,1.7887,0.0,0.0,0.0,1.6654,1.6695,1.672,1.5983,1.5562,1.5902,1.5052,1.4422,1.4401,1.2903,1.1063,0.8641,0.4447,-0.0,0.1369,0.1366,0.1365,0.1369,0.137,-0.0,6.0927,5.9232,5.9254,6.0329,6.199,6.0998,6.1146,6.2016,5.9837,5.8353,5.7506,5.6503,5.5437,5.4259,5.4633,0.0,0.0,0.0,5.4909,5.6182,5.5287,5.5408,5.6143,5.6219,5.6219,5.6194,5.5993,5.5541,5.4863,5.4315,5.2123,4.8272,0.0,0.0,4.7364,5.0186,5.1722,5.171,5.3843,5.4888,5.4888,5.5114,5.4902,5.4008,5.3077,5.2608,5.2741,4.8886,4.5869,4.3746,4.2493,4.1053,0.0,0.0,0.0,0.0,0.0,0.0,0.0,0.0,0.0,0.0,0.0,2.6893,2.6045,0.0,0.0,0.0,2.6044,2.6106,2.6205,2.628,0.0,0.0,0.0,0.0,0.0,0.0,0.0,2.2601,2.3638,2.3664,2.1352,2.1071,2.0897,2.0284,1.9663,1.8897,1.8232,0.0,1.8073,1.7,1.6736,1.6657,1.619,1.6033,1.5989,1.5864,1.5412,1.5134,1.5255,1.4785,1.3623,1.2206,1.2967,1.2448,0.7014,0.2515,-0.0,-0.0,-0.0,-0.0,-0.0,-0.0,-0.0,6.3797,6.3159,6.0718,6.1232,6.3544,6.1834,6.2312,6.3736,6.0943,5.8586,5.6766,5.683,5.5695,5.3552,5.4455,0.0,0.0,5.5424,5.5782,5.6194,5.6219,5.6219,5.6219,5.6219,5.6219,5.6194,5.5546,5.5271,5.5096,5.3572,5.2543,5.1794,4.9745,4.9014,4.9864,5.2863,5.3654,5.2128,5.4036,5.5046,5.5151,5.5797,5.5287,5.3251,5.2949,5.1878,5.0015,4.7869,4.5779,4.3778,4.2631,4.1928,4.1853,0.0,0.0,0.0,0.0,0.0,0.0,0.0,0.0,0.0,0.0,0.0,0.0,0.0,0.0,0.0,2.7383,0.0,2.6261,2.5812,0.0,0.0,0.0,2.503,2.5499,2.5216,2.571,2.7406,0.0,0.0,1.9757,0.0,1.9661,1.8765,1.8756,1.829,1.7016,1.7856,1.826,1.6899,1.6666,1.6563,1.6411,1.5864,1.5254,1.4555,1.4299,1.4434,1.4448,1.4312,1.2361,0.9126,1.0784,1.0446,0.1615,-0.0,-0.0,-0.0,-0.0,-0.0,-0.0,-0.0,-0.0,6.4994,6.5203,6.4443,6.4347,6.4571,6.3872,6.3022,6.2131,6.0012,5.8104,5.6354,5.6334,5.6116,5.5478,5.5813,5.59,5.5867,5.5918,5.6065,5.6194,5.6219,5.6219,5.6219,5.6219,5.6219,5.6047,5.4524,5.3466,5.2908,5.1037,4.9793,4.9276,5.1682,5.2014,5.0037,5.1638,5.183,5.0481,5.1458,5.2558,5.3611,5.5361,5.5263,5.31,5.1555,5.0479,4.9876,4.6412,4.4186,4.3691,4.3431,4.2801,4.1933,4.0856,0.0,0.0,0.0,0.0,0.0,0.0,0.0,0.0,0.0,2.7786,2.6949,0.0,2.7504,0.0,2.7849,2.8014,2.7638,2.7276,0.0,0.0,2.6004,2.5672,2.3749,2.5569,2.5819,2.3145,2.2806,2.1111,1.7069,1.6652,1.6394,1.5592,1.6526,1.7159,1.6783,1.6552,1.6309,1.5998,1.5319,1.4931,1.4894,1.475,1.459,1.4272,1.4299,1.4312,1.4333,1.4367,1.3853,1.224,0.7184,0.3052,-0.0,-0.0,-0.0,-0.0,-0.0,-0.0,-0.0,-0.0,-0.0,6.5503,6.5622,6.6131,6.6011,6.5292,6.4323,6.3075,6.1461,5.8763,5.7159,5.6219,5.6219,5.6219,5.6219,5.6219,5.6219,5.6219,5.6219,5.6219,5.6219,5.6219,5.6219,5.6219,5.6219,5.5729,5.4819,5.3726,5.2481,5.1291,5.0045,4.9322,4.906,5.0788,5.0791,4.8913,4.8359,4.8248,4.87,4.9365,5.027,5.1745,5.2798,5.223,4.9869,4.8426,4.7143,4.5669,4.3025,4.1509,4.111,4.1692,4.1559,4.0554,3.9773,3.782,0.0,0.0,0.0,0.0,0.0,0.0,0.0,0.0,0.0,0.0,0.0,2.8073,0.0,2.8167,2.7987,2.7405,2.7056,2.6502,2.5777,2.6171,2.6111,2.5344,2.5819,2.4895,2.1592,2.1673,2.0631,1.7161,1.65,1.6002,1.459,1.5074,1.5753,1.5626,1.5231,1.5011,1.5034,1.4541,1.4299,1.4299,1.4299,1.4299,1.4299,1.4312,1.4333,1.4346,1.4394,1.4256,1.372,0.6467,-0.0,-0.0,-0.0,-0.0,-0.0,-0.0,-0.0,-0.0,-0.0,-0.0898,6.6041,6.5652,6.6547,6.6574,6.5912,6.3931,6.2526,6.1326,5.7681,5.6219,5.6219,5.6219,5.6219,5.6219,5.6219,5.6219,5.6219,5.6219,5.6219,5.6219,5.6219,5.6219,5.6219,5.5901,5.4819,5.31,5.2471,5.1378,4.9518,4.9361,4.9206,4.9074,4.7874,4.7201,4.6818,4.4666,4.4567,4.6563,4.7495,4.846,4.9538,4.9706,4.8462,4.5765,4.514,4.3255,4.0236,3.9583,3.8873,3.7954,3.9412,3.9905,3.9102,3.821,3.656,0.0,3.2495,0.0,0.0,0.0,0.0,0.0,0.0,0.0,0.0,2.8535,2.8632,2.8569,2.8313,2.7842,2.6764,2.6446,2.6263,2.6222,2.6239,2.6747,2.7963,2.6066,2.3573,2.0647,2.0604,1.9836,1.7555,1.7413,1.6545,1.4639,1.4414,1.45,1.4434,1.4414,1.4414,1.4299,1.4299,1.4299,1.4299,1.4299,1.4299,1.4306,1.4326,1.3991,1.3261,1.3866,1.3905,1.1894,0.5386,-0.0,-0.0,-0.0,-0.0,-0.0,-0.0,-0.0,-0.0,-0.0,-0.4668,6.8375,6.8196,6.7337,6.6608,6.5868,6.3152,6.1764,6.1326,5.7707,5.6219,5.6219,5.6219,5.6219,5.6219,5.6219,5.6219,5.6219,5.6219,5.6219,5.6219,5.6219,5.6219,5.6047,5.4497,5.3552,5.2949,4.9674,4.7804,4.7326,4.5758,4.4678,4.4096,4.4331,4.3863,4.297,0.0,0.0,0.0,4.6078,4.7029,4.7329,4.7898,4.7196,4.5046,4.4054,0.0,3.9196,3.9671,3.9477,3.8722,3.9909,0.0,0.0,0.0,0.0,0.0,0.0,0.0,0.0,0.0,0.0,0.0,2.9312,2.928,2.8996,2.8805,2.8691,2.8546,2.8388,2.8047,2.7934,2.7826,2.7743,2.7848,2.7722,2.7856,2.8123,2.6066,2.2503,1.6427,1.7273,1.7588,1.5513,1.4992,1.4822,1.4476,1.4299,1.4299,1.4299,1.4299,1.4299,1.4299,1.4299,1.4299,1.4299,1.4299,1.4299,1.4306,1.4326,1.29,1.0021,1.1688,1.0804,-0.0,-0.0,-0.0,-0.0,-0.0,-0.0,-0.0,-0.0,-0.0,-0.0,-0.6287,-1.2079,6.9931,0.0,6.8501,6.7479,0.0,6.234,6.0703,6.0849,5.7986,5.662,5.662,5.662,5.647,5.6219,5.6219,5.6219,5.6219,5.6219,5.6219,5.6219,5.6219,5.6219,5.6072,5.4025,5.2622,5.1401,4.8497,4.6575,4.5636,4.4521,4.3805,4.3499,4.3654,4.3433,4.2679,4.3401,4.3528,4.3206,4.3918,4.4656,4.5158,4.5679,4.5212,4.3779,0.0,0.0,0.0,0.0,0.0,0.0,0.0,0.0,0.0,0.0,0.0,3.5431,3.3072,3.1179,3.0205,3.0126,3.0017,3.001,3.0083,2.9924,2.9731,2.9316,2.9166,2.9117,2.8646,2.8373,2.8439,2.8243,2.815,2.815,2.815,2.8177,2.7918,2.508,2.0786,1.5647,1.5403,1.5513,1.4476,1.4299,1.4299,1.4299,1.4299,1.4299,1.4299,1.4299,1.4299,1.4299,1.4299,1.4299,1.4299,1.4319,1.4326,1.4333,1.4367,1.3311,1.1136,0.8619,0.5388,-0.0,-0.0,-0.0,-0.0,-0.0,-0.0,-0.0,-0.0,-0.0,-0.5747,-1.0988,-1.4263,7.1117,7.0724,6.9962,6.8406,6.6141,6.1635,5.9964,6.0232,0.0,0.0,0.0,5.7173,5.6947,5.652,5.6394,5.642,5.6495,5.6294,5.6269,5.6344,5.5804,5.5582,5.5582,5.3195,5.1208,4.9516,4.7779,4.6227,4.4394,4.4394,4.4355,4.4238,4.3887,4.3691,4.3711,4.3789,4.3577,4.3024,4.2488,4.2729,4.3633,4.3418,4.3109,4.2668,4.1877,4.1067,4.0236,3.967,3.943,3.943,3.9866,3.9969,3.933,3.7526,3.5942,3.4889,3.2625,3.1061,3.1051,3.0995,3.0853,3.0715,3.0528,3.0233,3.0165,2.979,2.9486,2.9486,2.9005,2.8684,2.8684,2.8457,2.8297,2.831,2.7944,2.7656,2.7209,2.3453,1.8976,1.5242,1.4421,1.4312,1.434,1.4312,1.4299,1.4299,1.4299,1.4299,1.4299,1.4299,1.4299,1.4299,1.4299,1.4306,1.4312,1.4333,1.3991,1.29,1.3496,1.4276,1.2991,0.6467,-0.0,-0.0,-0.0,-0.0,-0.0,-0.0,-0.0,-0.0,-0.1615,-0.4487,-1.0978,-1.3713,-1.4236,7.1597,7.0228,7.1772,6.9364,6.4257,6.1973,6.0529,5.9617,5.8353,5.7775,5.7775,5.7775,5.7725,5.7625,5.7148,5.7198,5.7575,5.6646,5.647,0.0,5.4543,5.3576,5.3275,4.994,4.8103,4.7659,4.6178,4.5064,4.4433,4.4414,4.4199,4.3848,4.373,4.3711,4.373,4.4101,4.4307,4.4139,4.3603,4.3339,4.3536,4.2576,4.2064,4.234,4.1121,4.0385,4.0628,4.0236,4.0017,4.0039,4.0476,4.1022,4.1254,3.8135,3.6471,3.6638,3.3146,3.0804,3.0812,3.0839,3.0738,3.0742,3.0528,3.0321,3.0015,2.9703,2.9486,2.9472,2.9165,2.8978,2.8965,2.8925,2.8871,2.8711,2.6947,2.5429,2.4303,2.0969,1.7612,1.4878,1.4483,1.4353,1.4441,1.4373,1.4299,1.4299,1.4299,1.4299,1.4299,1.4299,1.4299,1.4299,1.4299,1.4312,1.434,1.4346,1.2906,0.8761,1.1504,1.3176,1.2991,0.5926,-0.0,-0.0,-0.0,-0.0,-0.0,-0.0,-0.0,-0.0898,-0.6284,-1.0978,-1.0045,-1.1838,-1.4182,7.2788,7.1049,7.0791,6.8429,6.4344,6.1865,6.0327,5.9458,5.8981,5.8604,5.8353,5.8353,5.8177,5.7876,5.7625,5.765,5.7876,5.7374,5.6626,5.5692,5.4247,5.3058,5.1872,4.9016,4.7685,4.7608,4.6136,4.5273,4.5117,4.5098,4.4863,4.4433,4.4199,4.4101,4.4346,4.4551,4.4746,4.4726,4.437,4.4341,4.4321,4.3746,4.3505,4.371,4.3096,4.2891,4.2943,4.2686,4.244,4.244,4.2645,4.2276,4.1311,3.8759,3.6855,3.5942,3.3087,3.1263,3.1263,3.1276,3.1209,3.1248,3.0953,3.0461,2.9973,2.9873,2.9659,2.9499,2.9352,2.9205,2.9058,2.9045,2.8509,2.7072,2.6006,2.4163,2.1757,1.9606,1.729,1.5104,1.4475,1.4441,1.4502,1.4387,1.4299,1.4299,1.4299,1.4299,1.4299,1.4319,1.4326,1.4326,1.4326,1.4346,1.4373,1.4394,1.3311,1.1141,0.8262,0.7008,0.6467,-0.0,-0.0,-0.0,-0.0,-0.0,-0.0,-0.0,-0.0,-0.7549,-1.062,-1.2788,-1.1838,-1.2894,-1.4142,7.3052,7.1105,6.9587,6.7161,6.4352,6.1697,6.0387,5.9885,5.9759,5.9382,5.893,5.8905,5.8654,5.8278,5.8127,5.8152,5.8227,5.8001,5.6816,5.4788,5.3801,5.2372,5.0432,4.8122,4.7258,4.7462,4.6424,4.5781,4.5683,4.5683,4.543,4.481,4.4499,4.4778,4.5233,4.5189,4.5176,4.5176,4.5273,4.5234,4.5039,4.5039,4.5058,4.5156,4.5039,4.5039,4.5019,4.4707,4.4492,4.4414,4.3967,4.2782,4.0862,3.8636,3.664,3.4691,3.278,3.1677,3.1677,3.1677,3.1773,3.1759,3.1195,3.0491,3.0043,2.992,2.9833,2.9619,2.9593,2.9309,2.8406,2.8354,2.7435,2.5098,2.4197,2.2588,1.9699,1.8233,1.6962,1.5139,1.4631,1.4516,1.4523,1.4407,1.4306,1.4299,1.4306,1.4312,1.4319,1.436,1.4229,1.4018,1.3458,1.3102,1.3859,1.4256,1.317,1.19,0.5206,-0.0,-0.0,-0.0,-0.0,-0.0,-0.0,-0.0,-0.0,-0.0,-0.6105,-1.2079,-1.3892,-1.4222,-1.3991,-1.4142,-1.4306,7.1105,6.9298,6.8907,6.6635,6.3134,6.223,6.1492,6.0964,6.0487,5.9935,5.9483,5.9433,5.9408,5.9282,5.8855,5.8905,5.9207,5.8328,5.6885,5.513,5.2742,5.0432,4.848,4.6695,4.591,4.6009,4.6228,4.6094,4.5762,4.5683,4.5028,4.3975,4.4543,4.5399,4.5956,4.5851,4.5625,4.5625,4.5996,4.5801,4.5078,4.5039,4.5215,4.5605,4.5234,4.5039,4.5078,4.498,4.4785,4.4285,4.2646,4.1586,4.0927,3.7353,3.5044,3.4691,3.2793,3.1677,3.1677,3.1677,3.1664,3.1597,3.1116,3.0386,2.9715,2.9845,2.9913,2.9694,2.9694,2.8719,2.6713,2.6497,2.5377,2.2982,2.0979,1.9306,1.8434,1.6589,1.5135,1.5135,1.4713,1.4563,1.4665,1.4489,1.4319,1.4326,1.436,1.4018,1.3496,1.4143,1.4383,1.3566,1.0957,1.0049,1.2437,1.409,1.0262,0.359,-0.0,-0.0,-0.0,-0.0,-0.0,-0.0,-0.0,-0.0,-0.0,-0.6287,-1.2443,-1.3337,-1.4401,-1.4353,-1.4319,-1.4306,-1.4299,7.0051,6.7295,6.8422,6.6503,6.3033,6.2144,6.1692,6.1165,6.0939,6.0688,6.0512,6.0487,6.0136,5.9508,5.9608,5.9633,5.9458,5.9031,5.6999,5.4026,5.1913,4.9582,4.7078,4.6437,4.6172,4.6445,4.6855,4.6836,4.6387,4.5918,4.5566,4.5219,4.541,4.566,4.6181,4.6327,4.6426,4.6426,4.6582,4.6504,4.6172,4.5918,4.5859,4.6016,4.5879,4.5781,4.5742,4.5547,4.5332,4.5005,4.2994,4.1107,3.9659,3.6766,3.4402,3.314,3.2151,3.1677,3.1677,3.1677,3.1677,3.1677,3.1289,2.964,2.6256,2.7176,2.7549,2.6086,2.6869,2.6785,2.4398,2.4032,2.3106,2.0714,1.9419,1.828,1.6755,1.5832,1.5099,1.5079,1.4916,1.4801,1.4821,1.4631,1.4475,1.4283,1.4309,1.3437,1.0932,1.2312,1.4205,1.4179,1.2489,0.9472,-0.0,0.5926,-0.0,-0.0,-0.0,-0.0,-0.0,-0.0,-0.0,-0.0,-0.0,-0.0,-0.0,-1.0257,-1.4269,-1.4229,-1.4367,-1.4319,-1.4299,-1.4299,-1.4299,6.8559,6.6106,6.6925,6.547,6.2795,6.2457,6.1918,6.1441,6.1416,6.1316,6.1215,6.1341,6.0788,5.9885,6.0136,6.0085,5.9759,5.9629,5.7141,5.3243,5.1598,4.9343,4.6621,4.6484,4.6641,4.6933,4.7226,4.7285,4.7031,4.6387,4.6055,4.6248,4.5937,4.6052,4.6343,4.6523,4.6816,4.6894,4.6816,4.6816,4.6836,4.6523,4.6308,4.6308,4.6308,4.625,4.6133,4.5957,4.5435,4.4587,4.2505,4.0036,3.7692,3.5559,3.3497,3.2043,3.1677,3.1677,3.1677,3.1677,3.1677,3.165,3.0818,2.8253,2.4629,2.4877,2.4549,2.233,2.323,2.3289,2.2004,2.1452,2.0529,1.8321,1.7949,1.7025,1.5549,1.5181,1.5174,1.5167,1.5038,1.4957,1.4903,1.4571,1.4088,1.2425,1.3199,1.343,0.9605,1.0212,1.0806,1.3425,1.232,0.7405,-0.0,-0.0,-0.0,-0.0,-0.0,-0.0,-0.0,-0.0,-0.0,-0.0,-0.0,-0.5027,-1.0436,-1.3349,-1.4236,-1.436,-1.4319,-1.4299,-1.4299,-1.4319,-1.4333,6.6,6.5556,6.3933,6.3199,6.2797,6.2772,6.2471,6.1969,6.1969,6.1692,6.1366,6.1768,6.1341,6.0362,6.0255,6.0311,6.0104,5.9648,5.7281,5.3449,5.1936,4.9783,4.7091,4.6914,4.6933,4.7051,4.7168,4.7266,4.748,4.707,4.6639,4.6346,4.6211,4.625,4.6269,4.6348,4.6543,4.6855,4.6621,4.6562,4.6836,4.6523,4.6308,4.6114,4.6308,4.6133,4.582,4.6074,4.4987,4.2257,4.0224,3.803,3.5665,3.3309,3.1853,3.1677,3.1677,3.1677,3.1677,3.1677,3.1677,3.1447,2.9305,2.6364,2.3354,2.3132,2.1856,1.9535,1.938,1.9259,1.9056,1.9056,1.8135,1.6104,1.5549,1.5368,1.5181,1.5181,1.5181,1.5167,1.5079,1.4593,1.4461,1.4454,1.2581,1.0345,1.1489,1.3026,1.1176,0.5984,0.5805,0.9169,-0.0,-0.0,-0.0,-0.0,-0.0,-0.0,-0.0,-0.0,-0.0,-0.0,-0.0,-0.0,-0.0,-1.1167,-1.3349,-1.4229,-1.436,-1.4319,-1.4312,-1.4299,-1.4346,-1.4428,-1.4455,6.5082,6.3882,6.3123,6.2822,6.2822,6.2822,6.2697,6.2546,6.2546,6.2421,6.2295,6.2446,6.2295,6.1732,5.9992,5.8613,5.7788,5.8862,5.6608,5.1701,5.0262,4.8898,4.7542,4.7617,4.7754,4.7773,4.8027,4.7949,4.7539,4.7129,4.6777,4.6328,4.6367,4.6308,4.6348,4.6562,4.6797,4.6933,4.7031,4.707,4.6894,4.6523,4.5568,4.41,4.5568,4.6113,4.5683,4.4618,4.3475,4.2423,3.8728,3.6252,3.5137,3.2947,3.1677,3.1677,3.1677,3.1677,3.1677,3.1677,3.1744,3.1468,2.9135,2.4843,2.0456,1.9949,1.9845,1.7635,1.6729,1.6604,1.6501,1.6471,1.6292,1.5368,1.5181,1.5181,1.5181,1.5181,1.5194,1.5215,1.4999,1.3977,1.2157,1.2911,1.3889,1.1801,0.8046,-0.0,-0.0,-0.0,-0.0,-0.0,-0.0,-0.0,-0.0,-0.0,-0.0,-0.0,-0.0,-0.0,-0.0,-0.0,-0.0,-0.0,-0.0,-1.37,-1.4229,-1.4367,-1.4319,-1.4312,-1.4299,-1.434,-1.4421,-1.4496,-1.4543,6.4042,6.2985,6.2822,6.2822,6.2822,6.2822,6.2822,6.2822,6.2822,6.2822,6.2822,6.2822,6.2395,6.1302,5.9378,5.6887,5.4875,5.6511,5.4998,5.075,4.9454,4.8434,4.7954,4.8066,4.8203,4.8262,4.8652,4.8535,4.7988,4.7422,4.6992,4.6523,4.6445,4.6387,4.6543,4.668,4.6816,4.709,4.7168,4.7051,4.6698,4.578,4.4221,4.2851,4.3475,4.3793,4.3533,4.2585,4.1436,4.0084,3.7191,3.5182,3.4046,3.2583,3.1677,3.1677,3.1677,3.127,3.0509,3.0509,3.0395,2.9791,2.6897,2.245,1.6875,1.7607,1.7344,1.6084,1.5574,1.5432,1.5364,1.5337,1.5289,1.5215,1.5181,1.5187,1.5201,1.5208,1.426,1.3128,1.4128,1.3323,1.0771,1.0206,0.9646,0.9655,-0.0,-0.0,-0.0,-0.0,-0.0,-0.0,-0.0,-0.0,-0.0,-0.0,-0.0,-0.0,-0.0,-0.0,-0.2966,-0.3493,-0.5113,-1.0402,-1.3083,-1.3885,-1.436,-1.4326,-1.4312,-1.4312,-1.4312,-1.434,-1.4441,-1.455,-1.4624,6.2822,6.2822,6.2822,6.2822,6.2822,6.2822,6.2822,6.2822,6.2822,6.2822,6.2822,6.2659,6.1187,5.9045,5.8139,5.553,5.2347,5.2779,5.2427,5.0839,4.9653,4.8626,4.8223,4.8242,4.8281,4.8281,4.8652,4.8808,4.8594,4.793,4.7519,4.7106,4.6719,4.6641,4.7189,4.668,4.6777,4.7207,4.6678,4.6249,4.6443,4.393,4.2299,4.148,4.0078,3.9126,3.896,4.0322,3.9424,3.6282,3.5987,3.4897,3.2421,3.169,3.169,3.1717,3.1704,3.0331,2.8392,2.7827,2.7476,2.6199,2.2779,1.9535,1.6911,1.6265,1.6237,1.6007,1.5703,1.5615,1.5608,1.5601,1.5499,1.5255,1.5242,1.5262,1.5269,1.5262,1.3335,1.0294,1.1672,1.4583,1.264,0.7065,-0.0,-0.0,-0.0,-0.0,-0.0,-0.0,-0.0,-0.0,-0.0,-0.0,-0.0,-0.0,-0.0,-0.0,-0.0,-0.3728,-0.7846,-0.9486,-0.8848,-1.2689,-1.3462,-1.4269,-1.4468,-1.4434,-1.4401,-1.4394,-1.4373,-1.4421,-1.457,-1.4706,-1.4746,6.2822,6.2822,6.2822,6.2822,6.2822,6.2822,6.2822,6.2822,6.2822,6.2822,6.247,6.1076,5.9907,5.8418,5.5783,5.3447,5.1946,5.0833,4.9833,4.9312,4.9084,4.8856,4.8652,4.8652,4.8652,4.8672,4.8789,4.8535,4.8086,4.7988,4.7754,4.7226,4.7187,4.7444,4.7601,4.7012,4.7031,4.7242,4.5347,4.4405,4.412,4.1559,3.9291,3.7536,3.6526,3.5453,3.4219,3.6591,3.7147,3.5338,3.3901,3.2624,3.1894,3.1864,3.1971,3.1792,3.0379,2.9286,2.8066,2.6353,2.4526,2.2961,2.1067,1.8805,1.6602,1.592,1.5866,1.5845,1.5723,1.5635,1.5642,1.5662,1.5428,1.5513,1.5513,1.5328,1.5341,1.4996,1.4641,1.2466,0.8128,0.5218,-0.0,-0.0,-0.0,-0.0,-0.0,-0.0,-0.0,-0.0,-0.0,-0.0,-0.0,-0.3262,-0.5929,-0.7059,-0.6672,-0.6288,-0.6804,-0.6945,-1.0919,-1.3337,-1.3037,-1.3096,-1.3868,-1.435,-1.455,-1.4557,-1.4529,-1.455,-1.4584,-1.4679,-1.4794,-1.4848,-1.4875,6.2822,6.2822,6.2822,6.2822,6.2822,6.2822,6.2822,6.2822,6.2822,6.2306,6.1242,6.0003,5.8266,5.6355,5.3593,5.1923,5.0719,4.9449,4.862,4.8262,4.8699,4.8914,4.8828,4.8848,4.8848,4.8808,4.8691,4.834,4.7851,4.7891,4.7715,4.7522,4.7461,4.7115,4.6667,4.5924,4.563,4.4672,4.2851,4.1856,4.1153,3.9109,3.6791,3.5479,3.4216,3.2967,3.1853,3.3667,3.4421,3.393,3.2504,3.1864,3.1984,3.1179,3.0675,3.0311,2.8414,2.6485,2.5398,2.3473,2.1614,1.9784,1.8893,1.784,1.646,1.5981,1.594,1.592,1.5866,1.5811,1.5825,1.5839,1.5041,1.2836,1.4548,1.5334,1.4945,1.1793,0.9432,0.7449,0.3904,-0.0,-0.0,-0.0,-0.0,-0.0,-0.0,-0.0,-0.0,-0.0,-0.0,-0.0,-0.0,-0.8665,-1.3436,-1.3982,-1.3376,-1.279,-1.2194,-1.1768,-1.3099,-1.3952,-1.421,-1.4055,-1.4457,-1.443,-1.4624,-1.4692,-1.4706,-1.4753,-1.4774,-1.4801,-1.4855,-1.4916,-1.4957,6.2822,6.2822,6.2822,6.2822,6.2822,6.2822,6.2822,6.2822,6.247,6.1242,5.9667,5.8606,5.6377,5.3238,5.2207,5.0599,4.8724,4.8718,4.8574,4.8542,4.8783,4.8941,4.8828,4.8848,4.8848,4.8808,4.8516,4.8262,4.8125,4.7949,4.7637,4.7257,4.7412,4.6341,4.4633,4.3623,4.2487,4.095,3.9703,3.9188,3.8726,3.6437,3.4995,3.4823,3.2988,3.1907,3.2015,3.2176,3.2176,3.1797,3.2203,3.2031,3.1854,2.9738,2.8753,2.8148,2.5556,2.3317,2.1168,2.0333,1.906,1.6978,1.6715,1.6083,1.6076,1.6062,1.6056,1.6062,1.6056,1.6076,1.6096,1.611,1.3878,1.044,1.3342,1.5054,1.3436,0.5909,-0.0,-0.0,-0.0,-0.0,-0.0,-0.0,-0.0,-0.0,-0.0,-0.0,-0.0,-0.0,-0.0,-0.3122,-0.6426,-1.0873,-1.4527,-1.5274,-1.4667,-1.4457,-1.4419,-1.4178,-1.3926,-1.4571,-1.5059,-1.4896,-1.4774,-1.474,-1.476,-1.4848,-1.4875,-1.4882,-1.4882,-1.4869,-1.4909,-1.4997,-1.5259,6.2822,6.2822,6.2822,6.2822,6.2822,6.2822,6.2822,6.247,6.0886,5.9835,5.8606,5.566,5.3771,5.2366,5.0621,4.9301,4.8797,4.8215,4.8293,4.8633,4.8823,4.8941,4.8808,4.8848,4.8848,4.8828,4.8691,4.8516,4.8242,4.8157,4.7328,4.5427,4.7136,4.6038,4.2365,4.0535,4.0149,3.9846,3.7852,3.6712,3.6417,3.4175,3.2883,3.29,3.2354,3.2104,3.2278,3.2372,3.2398,3.2332,3.2372,3.1451,2.996,2.8918,2.7604,2.5596,2.3498,2.1739,2.0619,1.8783,1.7241,1.6591,1.6198,1.6083,1.6083,1.6083,1.6096,1.611,1.6123,1.5944,1.5984,1.6018,1.5013,1.4617,1.4125,1.2243,0.6006,-0.0,-0.0,-0.0,-0.0,-0.0,-0.0,-0.0,-0.0,-0.0,-0.0,-0.28,-0.6788,-0.9795,-0.8551,-0.3751,-0.531,-1.0193,-1.3891,-1.5035,-1.5594,-1.5381,-1.5328,-1.505,-1.495,-1.5013,-1.5153,-1.5079,-1.5004,-1.4964,-1.5011,-1.5086,-1.5065,-1.5004,-1.5031,-1.5038,-1.5079,-1.514,-1.5396,6.2822,6.2822,6.2822,6.2822,6.2822,6.2822,6.2281,6.1242,6.0003,5.8096,5.6181,5.3771,5.1847,5.0803,4.9564,4.875,4.8574,4.8274,4.8293,4.8535,4.8758,4.8875,4.8828,4.8848,4.8848,4.8828,4.8672,4.7868,4.6758,4.6947,4.537,4.3633,4.5426,4.4113,3.9532,3.867,3.767,3.6868,3.5061,3.4345,3.4126,3.2872,3.2216,3.2225,3.2291,3.2425,3.247,3.1711,3.1514,3.2326,3.1723,3.0355,2.8861,2.6552,2.5012,2.3175,2.077,1.9314,1.8793,1.7369,1.6442,1.6408,1.6252,1.6232,1.6259,1.6279,1.6307,1.6327,1.4267,1.4089,1.5786,1.6035,1.374,0.9588,0.9365,-0.0,-0.0,-0.0,-0.0,-0.0,-0.0,-0.0,-0.0,-0.0,-0.0,-0.0,-0.0,-0.9074,-1.0891,-1.396,-1.4744,-0.9571,-0.7323,-1.2231,-1.4548,-1.5294,-1.5689,-1.5676,-1.5669,-1.5581,-1.5493,-1.5357,-1.5309,-1.5289,-1.5228,-1.5187,-1.5201,-1.5201,-1.5153,-1.5126,-1.5174,-1.5375,-1.5375,-1.58,-1.6059,6.2822,6.2822,6.2822,6.2822,6.2822,6.247,6.1242,5.9499,5.8436,5.6204,5.3259,5.2207,5.0803,4.8848,4.9032,4.8672,4.834,4.8652,4.8574,4.8574,4.8633,4.8848,4.8848,4.8848,4.8848,4.8808,4.8254,4.663,4.5297,4.4533,4.2793,4.1448,4.2528,4.0999,3.7538,3.6743,3.5327,3.3436,3.2982,3.2667,3.2667,3.227,3.2225,3.2545,3.1868,3.2248,3.181,3.0415,2.9143,3.1336,2.9543,2.8445,2.7625,2.3353,2.1302,2.043,1.8477,1.712,1.6776,1.6666,1.6354,1.6361,1.6361,1.6388,1.6476,1.6312,1.6346,1.6353,1.1798,1.1587,1.1827,1.3766,0.9728,-0.0,-0.0,-0.0,-0.0,-0.0,-0.0,-0.0,-0.0,-0.0,-0.1414,-0.2423,-0.4845,-0.8062,-1.0703,-1.2526,-1.3123,-1.4343,-1.5518,-1.4614,-1.3935,-1.489,-1.5616,-1.5744,-1.575,-1.5757,-1.5778,-1.5744,-1.5716,-1.5615,-1.554,-1.5466,-1.5316,-1.5248,-1.5248,-1.5235,-1.5194,-1.5181,-1.5181,-1.5382,-1.5772,-1.6604,-1.7064,6.2822,6.2822,6.2822,6.2822,6.247,6.0886,5.9835,5.8969,5.5508,5.3593,5.2027,5.0439,4.938,4.8848,4.8848,4.8789,4.8691,4.8808,4.8789,4.8769,4.8789,4.8848,4.8848,4.8828,4.8848,4.8235,4.6635,4.5234,4.4464,4.2328,4.0656,3.8605,3.9636,3.9096,3.4872,3.4128,3.3252,3.2278,3.2118,3.2104,3.2131,3.1952,3.1983,3.2235,3.0852,3.1176,3.1845,2.8586,2.4401,2.2423,2.375,2.4939,2.3353,2.1933,2.0071,1.8366,1.7439,1.6727,1.6673,1.6544,1.6476,1.6483,1.651,1.6333,1.6359,1.6426,1.6247,1.6047,1.4789,1.0406,-0.0,-0.0,-0.0,-0.0,-0.0,-0.0,-0.0,-0.0,-0.0,-0.0,-0.0,-0.3029,-1.0927,-1.1129,-1.1934,-1.1502,-1.2511,-1.4957,-1.5351,-1.5331,-1.5691,-1.6035,-1.6022,-1.5974,-1.5947,-1.5886,-1.5879,-1.5879,-1.5886,-1.5893,-1.5872,-1.5811,-1.571,-1.554,-1.5547,-1.533,-1.5357,-1.5228,-1.5181,-1.5181,-1.557,-1.6718,-1.7515,-1.7986,-1.9285,6.2822,6.2822,6.2822,6.1878,6.0573,5.9595,5.8096,5.5856,5.3593,5.1667,5.0621,4.938,4.8848,4.8848,4.8848,4.8848,4.8848,4.8848,4.8848,4.8848,4.8848,4.8848,4.84,4.7526,4.6894,4.6672,4.44,4.2863,4.1332,3.9981,3.8035,3.5762,3.6942,3.596,3.3395,3.2629,3.2532,3.2171,3.1971,3.2011,3.2251,3.092,2.9775,2.9415,2.802,2.8212,2.8746,2.5532,2.1397,1.8838,1.9744,2.1518,2.0895,1.9863,1.8395,1.7266,1.6727,1.6653,1.6605,1.6524,1.6483,1.6646,1.6473,1.4837,1.4464,1.494,1.6688,1.521,1.1592,-0.0,-0.0,-0.0,-0.0,-0.0,-0.0,-0.0,-0.0,-0.0,-0.2625,-0.5654,-0.0,-0.8683,-1.1929,-1.4812,-1.5804,-1.3724,-1.3707,-1.5744,-1.5718,-1.5698,-1.5897,-1.6069,-1.6076,-1.6062,-1.6062,-1.6042,-1.6029,-1.6015,-1.6008,-1.6015,-1.6001,-1.5927,-1.5845,-1.5683,-1.554,-1.5493,-1.5479,-1.5337,-1.5793,-1.6943,-1.7718,-1.8852,-1.985,-2.0736,-2.2695,6.2822,6.2822,6.247,6.0764,5.8516,5.8173,5.6008,5.2902,5.2027,5.0621,4.9197,4.8848,4.8848,4.8848,4.8848,4.8848,4.8848,4.8848,4.8848,4.8848,4.8711,4.8303,4.745,4.5315,4.3545,4.3519,4.1599,3.9498,3.8035,3.6692,3.5734,3.38,3.3614,3.3679,3.3184,3.2679,3.2452,3.2211,3.1177,3.1101,3.1112,2.9195,2.7025,2.5103,2.4784,2.4196,2.3832,2.1725,1.9399,1.7252,1.6924,1.8208,1.9044,1.8626,1.6937,1.6795,1.668,1.6625,1.6619,1.6524,1.6551,1.6601,1.6654,1.479,1.2742,1.1704,1.193,1.0653,-0.0,-0.0,-0.0,-0.0,-0.0,-0.0,-0.0,-0.1668,-0.0412,-0.0611,-0.6093,-1.2802,-1.343,-1.3217,-1.2993,-1.4232,-1.5201,-1.6164,-1.6144,-1.6117,-1.6096,-1.6083,-1.6083,-1.6083,-1.6083,-1.6083,-1.6083,-1.6083,-1.6083,-1.6083,-1.6083,-1.6083,-1.6083,-1.6022,-1.594,-1.5886,-1.5778,-1.571,-1.5608,-1.5486,-1.6554,-1.842,-1.9544,-1.9947,-2.1537,-2.3549,-2.5604,6.2822,6.2659,6.0719,5.9451,5.8559,5.5311,5.3238,5.2207,5.0256,4.938,4.9032,4.8848,4.8848,4.8828,4.8848,4.8848,4.8954,4.873,4.8527,4.8265,4.7887,4.7366,4.4983,4.2294,4.0207,3.8509,3.7684,3.7237,3.6662,3.5153,3.4159,3.34,3.3414,3.3267,3.2709,3.226,3.2089,3.1542,3.0173,2.9347,2.8684,2.6835,2.4099,2.2113,2.1725,2.0903,1.9044,1.8222,1.7384,1.6951,1.6971,1.7181,1.7811,1.7398,1.6958,1.6883,1.6775,1.67,1.672,1.6313,1.6554,1.6668,1.6781,1.6439,1.3243,-0.0,-0.0,-0.0,-0.0,-0.0,-0.0,-0.0,-0.0,-0.0,-0.7124,-0.9588,-0.4135,-0.4736,-0.9243,-1.543,-1.6239,-1.6199,-1.5348,-1.4702,-1.548,-1.6246,-1.6191,-1.6137,-1.609,-1.6083,-1.6083,-1.6083,-1.6083,-1.6083,-1.6083,-1.6083,-1.6083,-1.6083,-1.6083,-1.6083,-1.6083,-1.6083,-1.6035,-1.5974,-1.5906,-1.5818,-1.5723,-1.5815,-1.749,-1.9543,-2.0503,-2.1262,-2.4072,-2.6932,-2.8236,6.0807,6.0886,5.8945,5.7217,5.5508,5.39,5.1951,5.0459,4.938,4.8848,4.8848,4.8848,4.8711,4.8574,4.8516,4.864,4.8744,4.8424,4.6915,4.5187,4.5187,4.4654,4.2394,3.9568,3.8052,3.6729,3.5666,3.5026,3.5125,3.4186,3.3334,3.324,3.332,3.312,3.2719,3.226,3.1308,3.0203,2.876,2.752,2.6678,2.4148,2.1638,1.9839,1.9044,1.8222,1.7391,1.6978,1.6978,1.6978,1.6978,1.6978,1.6985,1.6992,1.6965,1.6674,1.6614,1.6795,1.5755,1.4493,1.3252,1.6374,1.669,1.3476,0.9177,-0.0,-0.0,-0.0,-0.0,-0.0,-0.0,-0.0,-0.0,-0.8477,-1.3974,-1.3471,-1.1077,-1.1465,-1.3738,-1.6433,-1.6578,-1.6537,-1.6497,-1.6042,-1.6199,-1.6327,-1.6252,-1.6185,-1.6123,-1.6123,-1.6144,-1.6137,-1.6151,-1.6171,-1.6171,-1.6164,-1.6157,-1.6144,-1.611,-1.611,-1.6282,-1.6488,-1.6282,-1.6056,-1.5988,-1.6868,-1.6636,-1.6933,-1.8818,-2.1056,-2.2724,-2.484,-2.7819,-3.0267,-3.0985,5.8903,5.883,5.7135,5.474,5.2491,5.2429,5.1186,4.9118,4.8808,4.8789,4.873,4.8691,4.8476,4.8164,4.8066,4.8169,4.8533,4.7476,4.4598,4.232,4.2241,4.1827,3.947,3.752,3.6074,3.5269,3.4074,3.3026,3.3746,3.3414,3.328,3.32,3.3293,3.2577,3.1672,3.034,2.9248,2.8044,2.6672,2.5502,2.3304,2.1217,1.9462,1.7398,1.6978,1.7188,1.6978,1.6978,1.6978,1.6985,1.6992,1.6992,1.6998,1.7026,1.6328,1.5566,1.6002,1.6661,1.5616,1.3493,1.2064,1.1723,1.3041,0.8319,-0.0,-0.0,-0.0,-0.0,-0.0,-0.0,-0.0,-0.0,-0.703,-1.1298,-1.5163,-1.665,-1.6086,-1.58,-1.5351,-1.6788,-1.672,-1.6686,-1.668,-1.6605,-1.6558,-1.6497,-1.6422,-1.6347,-1.6286,-1.6259,-1.6259,-1.6232,-1.6239,-1.6279,-1.6293,-1.6279,-1.6279,-1.6279,-1.6225,-1.6185,-1.6536,-1.6899,-1.6885,-1.7452,-1.856,-1.9249,-1.8654,-1.8833,-2.1302,-2.3728,-2.5906,-2.7936,-3.0051,-3.1138,-3.1838,5.8497,5.781,5.455,5.2452,5.114,5.0013,4.9108,4.834,4.8652,4.8633,4.8281,4.8262,4.8047,4.7715,4.7437,4.7398,4.6761,4.4999,4.294,4.0644,4.0109,3.8975,3.689,3.6027,3.4445,3.3851,3.2773,3.2706,3.2934,3.3107,3.312,3.3014,3.2617,3.1381,2.8855,2.6409,2.5179,2.4507,2.2692,2.0661,1.8767,1.7999,1.7391,1.7188,1.6978,1.6978,1.6978,1.6985,1.6985,1.6985,1.7012,1.7026,1.7032,1.7073,1.4052,1.2742,1.3607,1.6869,1.667,1.4063,0.978,-0.0,-0.0,-0.0,-0.0,-0.0,-0.0,-0.0,-0.0,-0.0,-1.1108,-1.3912,-1.3455,-1.2999,-1.4915,-1.6406,-1.6992,-1.6937,-1.6924,-1.6924,-1.6849,-1.6876,-1.689,-1.6795,-1.6714,-1.6653,-1.6592,-1.651,-1.6435,-1.6395,-1.6422,-1.6415,-1.6368,-1.6402,-1.6429,-1.6415,-1.6989,-1.68,-1.6947,-1.7063,-1.8191,-1.9115,-1.9429,-2.0175,-2.1289,-2.1847,-2.1457,-2.2227,-2.438,-2.6072,-2.751,-2.9455,-3.1382,-3.2058,-3.2465,5.4671,5.5557,5.0944,4.9141,4.8949,4.7875,4.7612,4.7891,4.8047,4.8027,4.7871,4.7851,4.7617,4.6869,4.5668,4.4368,4.3576,4.2021,3.9257,3.7502,3.6777,3.5997,3.4231,3.3633,3.2873,3.2597,3.2164,3.1321,3.1655,3.209,3.2261,3.0738,3.184,3.0503,2.6244,2.1949,2.1282,2.107,2.006,1.8135,1.7168,1.6978,1.6978,1.6978,1.6978,1.6978,1.6985,1.7005,1.7012,1.7019,1.7046,1.5121,1.4047,1.4721,1.5611,1.4527,1.5417,1.6949,1.6298,1.1108,-0.0,-0.0,-0.0,-0.0,-0.0,-0.0,-0.0,-0.0,-0.0,-1.1755,-1.5417,-1.6929,-1.5804,-1.5121,-1.5307,-1.594,-1.7005,-1.6992,-1.6965,-1.6978,-1.6978,-1.6978,-1.6978,-1.6917,-1.6815,-1.6741,-1.6693,-1.6632,-1.6551,-1.6476,-1.6537,-1.6625,-1.6571,-1.6524,-1.6551,-1.6558,-1.8104,-1.8495,-1.9282,-1.979,-2.1054,-2.1946,-2.2285,-2.2965,-2.4258,-2.4636,-2.4269,-2.5228,-2.6749,-2.7937,-2.8943,-3.0549,-3.1978,-3.2358,-3.2559,5.1338,5.2791,4.8164,4.6717,4.7246,4.6632,4.6709,4.7422,4.7558,4.7539,4.7402,4.7305,4.6695,4.5675,4.3715,4.23,4.0867,3.8927,3.6052,3.4173,3.3341,3.338,3.2599,3.2149,3.2189,3.2091,3.1153,3.0286,2.9506,2.9347,2.8908,2.7467,2.9255,2.7798,2.342,1.9823,1.8157,1.9244,1.8142,1.7168,1.6978,1.6978,1.6978,1.6985,1.6992,1.6992,1.6998,1.7032,1.7046,1.4463,1.6439,1.5163,1.3222,1.1515,1.3912,1.3482,1.4147,1.1117,0.9394,-0.0,-0.0,-0.0,-0.0,-0.0,-0.0,-0.1492,-0.0,-0.0,-0.0,-1.3673,-1.6697,-1.71,-1.6637,-1.6393,-1.6802,-1.6998,-1.6985,-1.6985,-1.6978,-1.6978,-1.6978,-1.6978,-1.6978,-1.6978,-1.6917,-1.6836,-1.6781,-1.6741,-1.6686,-1.6824,-1.6886,-1.7203,-1.6975,-1.7327,-1.8144,-1.8343,-1.9481,-2.0638,-2.1423,-2.2177,-2.3469,-2.4543,-2.5251,-2.6298,-2.7329,-2.7897,-2.815,-2.8452,-2.8752,-2.9746,-3.0599,-3.1474,-3.2318,-3.2505,-3.2652,4.9679,4.97,4.7354,4.6387,4.6465,4.6346,4.652,4.7012,4.7383,4.7285,4.6953,4.6445,4.4996,4.3229,4.2138,4.0791,3.896,3.6606,3.5093,3.3988,3.3149,3.2341,3.1864,3.166,3.1455,3.1203,2.9611,2.8126,2.7283,2.5409,2.5187,2.5273,2.6142,2.3737,2.1142,1.8375,1.7106,1.7711,1.7174,1.6978,1.6978,1.6985,1.6985,1.6992,1.7012,1.7026,1.6815,1.6855,1.5574,1.169,1.3015,1.4332,1.1095,0.682,0.7896,1.0908,0.7687,-0.0,-0.0,-0.0,-0.0,-0.0,-0.0,-0.0,-0.0,-1.0895,-1.4562,-1.3471,-1.3222,-1.3195,-1.5549,-1.7032,-1.7026,-1.7012,-1.6998,-1.6992,-1.6985,-1.6978,-1.6978,-1.6978,-1.6978,-1.6978,-1.6978,-1.6978,-1.6978,-1.6904,-1.7106,-1.7065,-1.7287,-1.7453,-1.7697,-1.7761,-1.7559,-1.8366,-2.0638,-2.1406,-2.2132,-2.3498,-2.4495,-2.4851,-2.5575,-2.666,-2.8276,-2.8748,-2.9602,-3.0741,-3.1448,-3.0728,-3.0625,-3.1185,-3.1891,-3.2171,-3.2425,-3.2625,-3.2746,4.7641,4.7468,4.6638,4.6308,4.6308,4.625,4.6328,4.6562,4.6719,4.6719,4.6347,4.4725,4.3549,4.2067,3.8977,3.7696,3.6421,3.4233,3.3497,3.2947,3.2056,3.1744,3.1376,3.0204,2.9208,2.8873,2.684,2.4269,2.2721,2.1949,2.0423,2.0604,2.2603,2.13,1.8963,1.7497,1.7065,1.6931,1.6978,1.6978,1.6985,1.7005,1.7012,1.7012,1.7053,1.4903,1.2968,1.5592,1.4963,1.3025,0.9382,-0.0,-0.0,-0.0,-0.0,-0.0,-0.0,-0.0,-0.0,-0.0,-0.0,-0.0,-0.0,-0.277,-0.8319,-1.4774,-1.6717,-1.6035,-1.5133,-1.4885,-1.5959,-1.7012,-1.6992,-1.6985,-1.6978,-1.6978,-1.6978,-1.6978,-1.6978,-1.6978,-1.6978,-1.6978,-1.6978,-1.6978,-1.6978,-1.6971,-1.7181,-1.7391,-1.8013,-1.8835,-1.9462,-1.9871,-1.9871,-2.0903,-2.2949,-2.3981,-2.4598,-2.6187,-2.7569,-2.8087,-2.8399,-3.0117,-3.1355,-3.162,-3.1477,-3.1763,-3.2018,-3.2038,-3.1904,-3.1784,-3.1957,-3.2265,-3.2505,-3.2772,-3.2772,4.6191,4.6289,4.6308,4.6308,4.6308,4.6308,4.6308,4.6308,4.6328,4.5744,4.5021,4.264,4.0988,3.9523,3.7344,3.4779,3.4046,3.2772,3.2043,3.1474,3.108,3.07,2.9721,2.8164,2.6613,2.6023,2.4085,2.1744,2.0672,1.9478,1.8145,1.8229,1.9332,1.866,1.7712,1.6741,1.6931,1.6971,1.6992,1.6998,1.7005,1.7032,1.532,1.5326,1.558,1.5811,1.2147,1.1949,1.0245,0.8316,-0.0,-0.0,-0.0,-0.0,-0.0,-0.0,-0.0,-0.0,-0.0,-0.0,-0.0,-0.0,-0.0,-0.9599,-1.455,-1.6922,-1.71,-1.708,-1.6828,-1.7019,-1.7019,-1.6998,-1.6985,-1.6978,-1.6978,-1.6978,-1.6978,-1.6978,-1.6978,-1.6978,-1.6978,-1.7188,-1.7804,-1.7804,-1.8013,-1.8222,-1.8634,-1.9253,-1.9871,-2.0903,-2.1924,-2.2545,-2.2949,-2.4392,-2.583,-2.6444,-2.7261,-2.9295,-3.0674,-3.1051,-3.1777,-3.2908,-3.308,-3.259,-3.2419,-3.2599,-3.2465,-3.2358,-3.2051,-3.173,-3.2051,-3.2438,-3.2786,-3.3,-3.2732,4.5937,4.6289,4.6308,4.6308,4.6308,4.6308,4.6308,4.6308,4.5939,4.4649,4.2443,4.0084,3.7879,3.6236,3.5338,3.3873,3.2583,3.1853,3.1474,3.0877,2.9338,2.8356,2.6999,2.5432,2.388,2.3286,2.1585,1.9916,1.9834,1.8074,1.6696,1.6327,1.7234,1.708,1.6368,1.6619,1.6836,1.6965,1.7012,1.6815,1.5959,1.6208,1.471,1.3423,1.2586,1.2606,1.1099,0.6179,-0.0,-0.0,-0.0,-0.0,-0.0,-0.0,-0.0,-0.0,-0.0,-0.0,-0.0,-0.0,-0.0,-0.0,-0.7027,-1.4751,-1.6452,-1.7073,-1.7046,-1.7039,-1.7012,-1.6992,-1.6985,-1.6985,-1.6978,-1.6978,-1.6978,-1.6978,-1.6978,-1.6978,-1.6978,-1.7391,-1.7188,-1.7398,-1.8222,-1.9044,-1.9253,-1.9662,-2.0071,-2.0895,-2.2131,-2.2752,-2.3981,-2.582,-2.6434,-2.7057,-2.828,-2.8901,-3.0129,-3.2183,-3.2986,-3.2934,-3.2934,-3.3094,-3.328,-3.3293,-3.3146,-3.2906,-3.2799,-3.2706,-3.2385,-3.2131,-3.2332,-3.2666,-3.3026,-3.3133,-3.2812,4.5918,4.6308,4.6308,4.6308,4.6308,4.6308,4.6308,4.5939,4.4473,4.2443,4.0084,3.7712,3.6236,3.5152,3.3685,3.2583,3.1853,3.1664,3.127,2.8943,2.778,2.6602,2.5045,2.2906,2.1343,2.0603,1.8908,1.7814,1.7494,1.6598,1.6646,1.6476,1.6319,1.6366,1.644,1.6815,1.6978,1.7019,1.6624,1.5561,1.254,1.4727,1.5405,1.2803,0.8957,-0.0,-0.0,-0.0,-0.0,-0.0,-0.0,-0.0,-0.0,-0.0,-0.0,-0.0,-0.4906,-1.1339,-1.0032,-0.0,-0.0,-0.5311,-0.9788,-1.667,-1.706,-1.7046,-1.7026,-1.7005,-1.6992,-1.6978,-1.6978,-1.6978,-1.6978,-1.6978,-1.6978,-1.6978,-1.6978,-1.6978,-1.7188,-1.7804,-1.8013,-2.0488,-2.2131,-2.2545,-2.2752,-2.3156,-2.3981,-2.5009,-2.6035,-2.542,-2.582,-2.8687,-3.0129,-3.0331,-3.0748,-3.095,-3.1365,-3.2585,-3.32,-3.3187,-3.34,-3.3414,-3.34,-3.3347,-3.3293,-3.3213,-3.304,-3.2879,-3.2719,-3.2625,-3.2759,-3.2906,-3.3187,-3.312,-3.2772,4.584,4.6113,4.625,4.5722,4.5002,4.4108,4.3737,4.3334,4.1169,3.9159,3.7344,3.5152,3.4046,3.3497,3.2583,3.089,3.0509,3.1376,2.9159,2.6817,2.5658,2.4279,2.2126,2.0183,1.8813,1.8084,1.7414,1.6327,1.6604,1.6537,1.6605,1.6625,1.6619,1.6467,1.6567,1.6897,1.5481,1.509,1.4492,1.5817,1.2798,1.1524,1.0466,0.8319,-0.0,-0.0,-0.0,-0.0,-0.0,-0.0,-0.0,-0.0,-0.0,-0.3625,-0.5119,-0.8758,-0.9386,-1.4992,-1.4533,-1.3852,-0.9768,-0.8276,-1.3841,-1.6406,-1.7026,-1.7012,-1.7005,-1.6992,-1.6978,-1.6978,-1.6978,-1.6978,-1.6978,-1.6978,-1.6978,-1.6978,-1.7188,-1.7188,-1.8013,-1.8634,-2.0071,-2.2949,-2.583,-2.6444,-2.6649,-2.7465,-2.8077,-2.8901,-2.9319,-2.8698,-2.8077,-3.0331,-3.2183,-3.1969,-3.2183,-3.2585,-3.3,-3.3414,-3.3414,-3.3414,-3.3414,-3.3414,-3.3414,-3.3414,-3.336,-3.328,-3.3173,-3.304,-3.2973,-3.2986,-3.3093,-3.324,-3.3387,-3.3173,-3.2853,4.5472,4.5627,4.6149,4.4745,4.2425,4.0232,3.9008,3.8794,3.6606,3.5509,3.4966,3.2772,3.2219,3.1853,3.1474,3.0115,2.8776,3.0318,2.7704,2.4709,2.2945,2.1379,1.9626,1.7657,1.7084,1.6543,1.6259,1.6415,1.6524,1.6693,1.6788,1.6809,1.6768,1.5326,1.454,1.5234,1.4002,1.4058,1.1939,1.2388,1.0457,0.5754,-0.0,-0.0,-0.0,-0.0,-0.0,-0.0,-0.0,-0.0,-0.0,-0.0,-0.4265,-1.113,-1.4803,-1.5423,-1.1713,-1.3852,-1.5792,-1.5754,-1.5741,-1.3802,-1.5735,-1.7012,-1.6998,-1.6992,-1.6985,-1.6985,-1.6978,-1.6978,-1.6978,-1.6978,-1.6978,-1.6978,-1.6978,-1.7188,-1.7601,-1.8222,-1.9253,-2.0279,-2.1717,-2.4392,-2.8291,-2.9522,-2.951,-3.0331,-3.0748,-3.0546,-3.1164,-3.1768,-3.1353,-3.1768,-3.3,-3.32,-3.3414,-3.3414,-3.3414,-3.3414,-3.3414,-3.3414,-3.3414,-3.3414,-3.3414,-3.3414,-3.3414,-3.336,-3.3267,-3.328,-3.332,-3.3347,-3.3692,-3.3719,-3.38,-3.3307,-3.308,4.2876,4.3264,4.5404,4.3942,3.992,3.7385,3.6329,3.6236,3.5509,3.4406,3.2583,3.2029,3.1474,3.1664,2.9721,2.8548,2.8031,2.7306,2.474,2.2573,2.0808,1.9321,1.7946,1.6529,1.6157,1.6252,1.6368,1.6476,1.6578,1.6775,1.6958,1.7005,1.5456,1.228,1.0593,1.2772,1.3222,1.2156,0.8744,-0.0,-0.0,-0.0,-0.0,-0.0,-0.0,-0.0,-0.0,-0.0,-0.0,-0.0,-0.8119,-1.1561,-1.2833,-1.5436,-1.6956,-1.6909,-1.535,-1.5748,-1.6828,-1.7019,-1.6998,-1.6998,-1.6998,-1.6992,-1.6985,-1.6978,-1.6978,-1.6978,-1.6978,-1.6978,-1.6978,-1.6978,-1.7391,-1.7601,-1.7804,-1.8424,-1.9044,-2.0279,-2.131,-2.3362,-2.4804,-2.7261,-3.095,-3.1768,-3.1768,-3.2799,-3.32,-3.2598,-3.2585,-3.3,-3.32,-3.3414,-3.3414,-3.3414,-3.3414,-3.3414,-3.3414,-3.3414,-3.3414,-3.3414,-3.3414,-3.3414,-3.3414,-3.3414,-3.3414,-3.3414,-3.3387,-3.3414,-3.3414,-3.4386,-3.4728,-3.4358,-3.4173,-3.4474,-3.4433,4.0088,4.0491,4.2514,4.0606,3.6344,3.4563,3.3873,3.3873,3.3858,3.2947,3.1664,3.0496,3.0115,2.9721,2.7384,2.5636,2.4473,2.4988,2.3033,1.9626,1.9232,1.7908,1.6543,1.6144,1.6137,1.6266,1.6422,1.6544,1.6632,1.6829,1.7026,1.6465,1.3874,0.6801,0.404,0.6177,0.8961,0.7252,-0.0,-0.0,-0.0,-0.0,-0.0,-0.0,-0.0,-0.0,-0.0,-0.0,-0.0,-0.5545,-1.5247,-1.6756,-1.673,-1.6929,-1.6895,-1.6855,-1.6822,-1.6584,-1.7012,-1.6998,-1.6985,-1.6978,-1.6978,-1.6978,-1.6978,-1.6978,-1.6978,-1.6978,-1.6978,-1.6978,-1.6978,-1.7188,-1.7804,-1.8634,-1.9253,-2.0079,-2.1103,-2.2545,-2.4392,-2.6649,-2.8698,-3.095,-3.2585,-3.32,-3.3414,-3.3414,-3.3414,-3.32,-3.3,-3.32,-3.3414,-3.3414,-3.3414,-3.3414,-3.3414,-3.3414,-3.3414,-3.3414,-3.3414,-3.3414,-3.3414,-3.3414,-3.3414,-3.3414,-3.3414,-3.3414,-3.3414,-3.3414,-3.36,-3.477,-3.6129,-3.6706,-3.707,-3.7598,-3.7583,3.7529,3.7365,3.8006,3.6037,3.2093,3.157,3.146,3.127,3.1067,3.108,3.07,2.856,2.7588,2.6999,2.4851,2.2702,2.1762,2.2042,2.0672,1.6275,1.6871,1.6515,1.6344,1.6103,1.6144,1.6225,1.6368,1.6366,1.648,1.6452,1.6208,-0.0,0.6571,-0.0,-0.0,-0.0,-0.0,-0.0,-0.0,-0.0,-0.0,-0.0,-0.0,-0.0,-0.0,-0.0,-0.0,-0.0,-0.5119,-1.2636,-1.6969,-1.6949,-1.6909,-1.708,-1.7046,-1.7026,-1.7005,-1.6992,-1.6985,-1.6985,-1.6978,-1.6978,-1.6978,-1.6978,-1.6978,-1.6978,-1.6978,-1.6978,-1.6978,-1.6978,-1.6978,-1.8071,-1.9128,-2.0168,-2.1204,-2.2852,-2.4707,-2.6108,-2.7873,-2.9724,-3.0748,-3.2799,-3.3,-3.3414,-3.3414,-3.3414,-3.3414,-3.3414,-3.3414,-3.3414,-3.3414,-3.3414,-3.3414,-3.3414,-3.3414,-3.3414,-3.3414,-3.3414,-3.3414,-3.3414,-3.3414,-3.3414,-3.3414,-3.3414,-3.3414,-3.3414,-3.3414,-3.4,-3.4969,-3.6312,-3.787,-3.9221,-4.0158,-4.0897,-4.0319,3.4963,3.4833,3.39,3.2703,3.1381,2.9504,2.8752,2.856,2.6602,2.6987,2.7972,2.6216,2.4851,2.4463,2.2126,2.0175,1.9995,1.905,1.7275,1.6481,1.6083,1.6137,1.6205,1.6151,1.5978,1.63,1.6239,1.5988,1.4904,1.4844,-0.0,-0.0,-0.0,-0.0,-0.0,-0.0,-0.0,-0.0,-0.0,-0.0,-0.0,-0.0,-0.0,-0.0,-0.0,-0.0,-0.0,-0.0,-0.7246,-1.4562,-1.6485,-1.71,-1.7066,-1.7019,-1.6998,-1.6992,-1.6985,-1.6978,-1.6978,-1.6978,-1.6978,-1.6978,-1.6978,-1.6978,-1.6978,-1.6978,-1.6978,-1.6978,-1.6978,-1.6978,-1.7629,-1.9151,-2.0878,-2.2126,-2.3351,-2.5841,-2.8324,-2.9855,-3.1365,-3.2171,-3.3,-3.3227,-3.344,-3.3454,-3.3414,-3.3414,-3.3414,-3.3414,-3.344,-3.344,-3.3414,-3.3414,-3.3414,-3.3414,-3.3414,-3.3414,-3.3414,-3.3414,-3.3414,-3.3414,-3.3414,-3.3414,-3.3414,-3.3414,-3.3414,-3.36,-3.4386,-3.5564,-3.6721,-3.8441,-4.0174,-4.1907,-4.3642,-4.4778,-4.3434,3.219,3.2237,3.1579,3.0071,2.8338,2.783,2.7191,2.5636,2.3296,2.2897,2.4074,2.2897,2.2116,2.1735,1.9396,1.8426,1.8228,1.6864,1.6481,1.6282,1.611,1.6144,1.6178,1.5784,1.3742,1.3615,1.5245,1.5014,-0.0,0.8914,-0.0,-0.0,-0.0,-0.0,-0.0,-0.0,-0.0,-0.0,-0.0,-0.0,-0.0,-0.0,-0.0,-0.0,-0.4048,-0.5543,-0.7459,-0.7662,-1.1082,-1.5387,-1.6664,-1.7053,-1.7026,-1.6998,-1.6985,-1.6978,-1.6978,-1.6978,-1.6978,-1.6978,-1.6978,-1.6978,-1.6978,-1.6978,-1.6978,-1.6978,-1.6978,-1.6978,-1.6978,-1.6978,-1.8911,-2.0652,-2.3379,-2.5457,-2.6603,-2.8405,-3.025,-3.1832,-3.2585,-3.2799,-3.3293,-3.3681,-3.3734,-3.3881,-3.3855,-3.3841,-3.3788,-3.3614,-3.3587,-3.3494,-3.3454,-3.3414,-3.3414,-3.3414,-3.3414,-3.3414,-3.3414,-3.3414,-3.3414,-3.3414,-3.3414,-3.3414,-3.3414,-3.3414,-3.3814,-3.4386,-3.5167,-3.6933,-3.9415,-4.1524,-4.3244,-4.4984,-4.6542,-4.7698,-4.6336,2.9993,2.9946,2.9886,2.7577,2.4512,2.578,2.5432,2.3296,2.0755,1.9585,1.979,1.9593,1.9585,1.8616,1.7452,1.6665,1.6083,1.6289,1.609,1.6103,1.613,1.4756,1.4775,1.5176,1.212,0.9953,1.0492,-0.0,-0.0,-0.0,-0.0,-0.0,-0.0,-0.0,-0.0,-0.0,-0.0,-0.0,-0.0,-0.0,-0.0,-0.0,-0.0,-0.0,-1.0245,-1.5854,-1.6491,-1.6909,-1.6882,-1.6862,-1.7053,-1.7019,-1.6998,-1.6985,-1.6985,-1.6978,-1.6978,-1.6978,-1.6978,-1.6978,-1.6978,-1.6978,-1.6978,-1.7188,-1.7181,-1.7601,-1.7601,-1.8252,-1.8252,-1.8896,-2.0828,-2.3198,-2.613,-2.8186,-2.9302,-3.038,-3.2008,-3.3266,-3.3494,-3.3494,-3.3681,-3.3895,-3.4042,-3.4202,-3.4242,-3.4242,-3.4162,-3.4002,-3.3841,-3.3681,-3.3574,-3.348,-3.3414,-3.3414,-3.3414,-3.3414,-3.3414,-3.3414,-3.3414,-3.3414,-3.3414,-3.3414,-3.3414,-3.3627,-3.4014,-3.5252,-3.6765,-3.8487,-4.1172,-4.3832,-4.5567,-4.6728,-4.7493,-4.8459,-4.8663,2.9911,2.9698,2.6462,2.4504,2.3698,2.2274,2.1147,2.0371,1.8031,1.6864,1.7055,1.6864,1.6864,1.6864,1.6474,1.6083,1.6096,1.6103,1.6117,1.613,1.5964,1.3368,1.1772,1.2584,0.9097,-0.0,-0.0,-0.0,-0.0,-0.0,-0.0,-0.0,-0.0,-0.0,-0.0,-0.0,-0.0,-0.3623,-0.8103,-1.0887,-1.2398,-1.2828,-1.3694,-1.3466,-1.1289,-1.3868,-1.5362,-1.6855,-1.7053,-1.7032,-1.7019,-1.6992,-1.6985,-1.6978,-1.6978,-1.6978,-1.6978,-1.6978,-1.6978,-1.6978,-1.6978,-1.6978,-1.7391,-1.8424,-1.9052,-2.0312,-2.117,-2.2925,-2.2934,-2.2508,-2.425,-2.6692,-2.9262,-3.0224,-3.1346,-3.1959,-3.3066,-3.3627,-3.3748,-3.3855,-3.4015,-3.4162,-3.4255,-3.4362,-3.4402,-3.4389,-3.4322,-3.4162,-3.4042,-3.3868,-3.3694,-3.3574,-3.3467,-3.3414,-3.3414,-3.3414,-3.3414,-3.3414,-3.36,-3.38,-3.38,-3.3414,-3.3614,-3.4983,-3.592,-3.7015,-3.8703,-4.0626,-4.2741,-4.5415,-4.712,-4.8459,-4.8848,-4.8848,-4.8848]},{"header":{"parameterUnit":"m.s-1","parameterCategory":1,"la1":31.0,"la2":29.5877,"lo1":-88.7671,"lo2":-86.6584,"dy":0.0162,"dx":0.0185,"nx":115,"ny":88,"refTime":"2023-03-10T06:00:00:Z","depth":0,"parameterNumber":3,"parameterNumberName":"V-component_of_WINDS"},"data":[0.0,0.0,0.0,0.0,0.0,0.0,0.0,0.0,0.0,0.0,0.0,0.0,0.0,0.0,0.0,0.0,0.0,0.0,0.0,0.0,0.0,0.0,0.0,0.0,0.0,0.0,0.0,0.0,0.0,0.0,0.0,0.0,0.0,0.0,0.0,0.0,0.0,0.0,0.0,0.0,0.0,0.0,0.0,0.0,0.0,0.0,0.0,0.0,0.0,0.0,0.0,0.0,0.0,0.0,0.0,0.0,0.0,0.0,0.0,0.0,0.0,0.0,0.0,0.0,0.0,0.0,0.0,0.0,0.0,0.0,0.0,0.0,0.0,0.0,0.0,0.0,0.0,0.0,0.0,0.0,0.0,0.0,0.0,0.0,0.0,0.0,0.0,0.0,0.0,0.0,0.0,0.0,0.0,0.0,0.0,0.0,0.0,0.0,0.0,0.0,0.0,0.0,0.0,0.0,0.0,0.0,0.0,0.0,0.0,0.0,0.0,0.0,0.0,0.0,0.0,0.0,0.0,0.0,0.0,0.0,0.0,0.0,0.0,0.0,0.0,0.0,0.0,0.0,0.0,0.0,0.0,0.0,0.0,0.0,0.0,0.0,0.0,0.0,0.0,0.0,0.0,0.0,0.0,0.0,0.0,0.0,0.0,0.0,0.0,0.0,0.0,0.0,0.0,0.0,0.0,0.0,0.0,0.0,0.0,0.0,0.0,0.0,0.0,0.0,0.0,0.0,0.0,0.0,0.0,0.0,0.0,0.0,0.0,0.0,0.0,0.0,0.0,0.0,0.0,0.0,0.0,0.0,0.0,0.0,0.0,0.0,0.0,0.0,0.0,0.0,0.0,0.0,0.0,0.0,0.0,0.0,0.0,0.0,0.0,0.0,0.0,0.0,0.0,0.0,0.0,0.0,0.0,0.0,0.0,0.0,0.0,0.0,0.0,0.0,0.0,0.0,0.0,0.0,0.0,0.0,0.0,0.0,0.0,0.0,0.0,0.0,0.0,0.0,0.0,0.0,0.0,0.0,0.0,0.0,0.0,0.0,0.0,0.0,0.0,0.0,0.0,0.0,0.0,0.0,0.0,0.0,0.0,0.0,0.0,0.0,0.0,0.0,0.0,0.0,0.0,0.0,0.0,0.0,0.0,0.0,0.0,0.0,0.0,0.0,0.0,0.0,0.0,0.0,0.0,0.0,0.0,0.0,0.0,0.0,0.0,0.0,0.0,0.0,0.0,0.0,0.0,0.0,0.0,0.0,0.0,0.0,0.0,0.0,0.0,0.0,0.0,0.0,0.0,0.0,0.0,0.0,0.0,0.0,0.0,0.0,0.0,0.0,0.0,0.0,0.0,0.0,0.0,0.0,0.0,0.0,0.0,0.0,0.0,0.0,0.0,0.0,0.0,0.0,0.0,0.0,0.0,0.0,0.0,0.0,0.0,0.0,0.0,0.0,0.0,0.0,0.0,0.0,0.0,0.0,0.0,0.0,0.0,0.0,0.0,0.0,0.0,0.0,0.0,0.0,0.0,0.0,0.0,0.0,0.0,0.0,0.0,0.0,0.0,0.0,0.0,0.0,0.0,0.0,0.0,0.0,0.0,0.0,0.0,0.0,0.0,0.0,0.0,0.0,0.0,0.0,0.0,0.0,0.0,0.0,0.0,0.0,0.0,0.0,0.0,0.0,0.0,0.0,0.0,0.0,0.0,0.0,0.0,0.0,0.0,0.0,0.0,0.0,0.0,0.0,0.0,0.0,0.0,0.0,0.0,0.0,0.0,0.0,0.0,0.0,0.0,0.0,0.0,0.0,0.0,0.0,0.0,0.0,0.0,0.0,0.0,0.0,0.0,0.0,0.0,0.0,0.0,0.0,0.0,0.0,0.0,0.0,0.0,0.0,0.0,0.0,0.0,0.0,0.0,0.0,0.0,0.0,0.0,0.0,0.0,0.0,0.0,0.0,0.0,0.0,0.0,0.0,0.0,0.0,0.0,0.0,0.0,0.0,0.0,0.0,0.0,0.0,0.0,0.0,0.0,0.0,0.0,0.0,0.0,0.0,0.0,0.0,0.0,0.0,0.0,0.0,0.0,0.0,0.0,0.0,0.0,0.0,0.0,0.0,0.0,0.0,0.0,0.0,0.0,0.0,0.0,0.0,0.0,0.0,0.0,0.0,0.0,0.0,0.0,0.0,0.0,0.0,0.0,0.0,0.0,0.0,0.0,0.0,0.0,0.0,0.0,0.0,0.0,0.0,0.0,0.0,0.0,0.0,0.0,0.0,0.0,0.0,0.0,0.0,0.0,0.0,0.0,0.0,0.0,0.0,0.0,0.0,0.0,0.0,0.0,0.0,0.0,0.0,0.0,0.0,0.0,0.0,0.0,0.0,0.0,0.0,0.0,0.0,0.0,0.0,0.0,0.0,0.0,0.0,0.0,0.0,0.0,0.0,0.0,0.0,0.0,0.0,0.0,0.0,0.0,0.0,0.0,0.0,0.0,0.0,0.0,0.0,0.0,0.0,0.0,0.0,0.0,0.0,0.0,0.0,0.0,0.0,0.0,0.0,0.0,0.0,0.0,0.0,0.0,0.0,0.0,0.0,0.0,0.0,0.0,0.0,0.0,0.0,0.0,0.0,0.0,0.0,0.0,0.0,0.0,0.0,0.0,0.0,0.0,0.0,0.0,0.0,0.0,0.0,0.0,0.0,0.0,0.0,0.0,0.0,0.0,0.0,0.0,0.0,0.0,0.0,0.0,0.0,0.0,0.0,0.0,0.0,0.0,0.0,0.0,0.0,0.0,0.0,0.0,0.0,0.0,0.0,0.0,0.0,0.0,0.0,0.0,0.0,0.0,0.0,0.0,0.0,0.0,0.0,0.0,0.0,0.0,0.0,0.0,0.0,0.0,0.0,0.0,0.0,0.0,0.0,0.0,0.0,0.0,0.0,0.0,0.0,0.0,0.0,0.0,0.0,0.0,0.0,0.0,0.0,0.0,0.0,0.0,0.0,0.0,0.0,0.0,0.0,0.0,0.0,0.0,0.0,0.0,0.0,0.0,0.0,0.0,0.0,0.0,0.0,0.0,0.0,0.0,0.0,0.0,0.0,0.0,0.0,0.0,0.0,0.0,0.0,0.0,0.0,0.0,0.0,0.0,0.0,0.0,0.0,0.0,0.0,0.0,0.0,0.0,0.0,0.0,0.0,0.0,0.0,0.0,0.0,0.0,0.0,0.0,0.0,0.0,0.0,0.0,0.0,0.0,0.0,0.0,0.0,0.0,0.0,0.0,0.0,0.0,0.0,0.0,0.0,0.0,0.0,0.0,0.0,0.0,0.0,0.0,0.0,0.0,0.0,0.0,0.0,0.0,0.0,0.0,0.0,0.0,0.0,0.0,0.0,0.0,0.0,0.0,0.0,0.0,0.0,0.0,0.0,0.0,0.0,0.0,0.0,0.0,0.0,0.0,0.0,0.0,0.0,0.0,0.0,0.0,0.0,0.0,0.0,0.0,0.0,0.0,0.0,0.0,0.0,0.0,0.0,0.0,0.0,0.0,0.0,0.0,0.0,0.0,0.0,0.0,0.0,0.0,0.0,0.0,0.0,0.0,0.0,0.0,0.0,0.0,0.0,0.0,0.0,0.0,0.0,0.0,0.0,0.0,0.0,0.0,0.0,0.0,0.0,0.0,0.0,0.0,0.0,0.0,0.0,0.0,0.0,0.0,0.0,0.0,0.0,0.0,0.0,0.0,0.0,0.0,0.0,0.0,0.0,0.0,0.0,0.0,0.0,0.0,0.0,0.0,0.0,0.0,0.0,0.0,0.0,0.0,0.0,0.0,0.0,0.0,0.0,0.0,0.0,0.0,0.0,0.0,0.0,0.0,0.0,0.0,0.0,0.0,0.0,0.0,0.0,0.0,0.0,0.0,0.0,0.0,0.0,0.0,0.0,0.0,0.0,0.0,0.0,0.0,0.0,0.0,0.0,0.0,0.0,0.0,0.0,0.0,0.0,0.0,0.0,0.0,0.0,0.0,0.0,0.0,0.0,0.0,0.0,0.0,0.0,0.0,0.0,0.0,0.0,0.0,0.0,0.0,0.0,0.0,0.0,0.0,0.0,0.0,0.0,0.0,0.0,0.0,0.0,0.0,0.0,0.0,0.0,0.0,0.0,0.0,0.0,0.0,0.0,0.0,0.0,0.0,0.0,0.0,0.0,0.0,0.0,0.0,0.0,0.0,0.0,0.0,0.0,0.0,0.0,0.0,0.0,0.0,0.0,0.0,0.0,-2.6981,0.0,0.0,0.0,0.0,0.0,0.0,0.0,0.0,0.0,0.0,0.0,0.0,0.0,0.0,0.0,0.0,0.0,0.0,0.0,0.0,0.0,0.0,0.0,0.0,0.0,0.0,0.0,0.0,0.0,0.0,0.0,0.0,0.0,0.0,0.0,0.0,0.0,0.0,0.0,0.0,0.0,0.0,0.0,0.0,0.0,0.0,0.0,0.0,0.0,0.0,0.0,0.0,0.0,0.0,0.0,0.0,0.0,0.0,0.0,0.0,0.0,0.0,0.0,0.0,0.0,0.0,0.0,0.0,0.0,0.0,0.0,0.0,0.0,0.0,0.0,0.0,0.0,0.0,0.0,0.0,0.0,0.0,0.0,0.0,0.0,0.0,0.0,0.0,0.0,0.0,0.0,0.0,0.0,0.0,0.0,0.0,0.0,0.0,0.0,0.0,0.0,0.0,0.0,0.0,0.0,0.0,0.0,0.0,0.0,0.0,-2.5106,-2.5046,-2.6744,-2.7677,-2.7517,0.0,0.0,0.0,0.0,0.0,0.0,0.0,0.0,0.0,0.0,0.0,0.0,0.0,0.0,0.0,0.0,0.0,0.0,0.0,0.0,0.0,0.0,0.0,0.0,0.0,0.0,0.0,0.0,0.0,0.0,0.0,0.0,0.0,0.0,0.0,0.0,0.0,0.0,0.0,0.0,0.0,0.0,0.0,0.0,0.0,0.0,0.0,0.0,0.0,0.0,0.0,0.0,0.0,0.0,0.0,0.0,0.0,0.0,0.0,0.0,0.0,0.0,0.0,0.0,0.0,0.0,0.0,0.0,0.0,0.0,0.0,0.0,0.0,0.0,0.0,0.0,0.0,0.0,0.0,0.0,0.0,0.0,0.0,0.0,0.0,0.0,0.0,0.0,0.0,0.0,0.0,0.0,0.0,0.0,0.0,0.0,0.0,0.0,0.0,0.0,0.0,0.0,0.0,0.0,0.0,0.0,0.0,0.0,0.0,0.0,0.0,0.0,-2.697,-2.8319,-2.8137,0.0,0.0,0.0,0.0,0.0,0.0,0.0,0.0,0.0,0.0,0.0,0.0,0.0,0.0,0.0,0.0,0.0,0.0,0.0,0.0,0.0,0.0,0.0,0.0,0.0,0.0,0.0,0.0,0.0,0.0,0.0,0.0,0.0,0.0,0.0,0.0,0.0,0.0,0.0,0.0,0.0,0.0,0.0,0.0,0.0,0.0,0.0,0.0,0.0,0.0,0.0,0.0,0.0,0.0,0.0,0.0,0.0,0.0,0.0,0.0,0.0,0.0,0.0,0.0,0.0,0.0,0.0,0.0,0.0,0.0,0.0,0.0,0.0,0.0,0.0,0.0,0.0,0.0,0.0,0.0,0.0,0.0,0.0,0.0,0.0,0.0,0.0,0.0,0.0,0.0,0.0,0.0,0.0,0.0,0.0,0.0,0.0,0.0,0.0,0.0,0.0,0.0,0.0,0.0,0.0,0.0,0.0,0.0,0.0,0.0,-2.633,-2.6356,-2.8388,0.0,-2.8946,0.0,0.0,0.0,0.0,0.0,0.0,0.0,0.0,0.0,0.0,0.0,0.0,0.0,0.0,0.0,0.0,0.0,0.0,0.0,0.0,0.0,0.0,0.0,0.0,0.0,0.0,0.0,0.0,0.0,0.0,0.0,0.0,0.0,0.0,0.0,0.0,0.0,0.0,0.0,0.0,0.0,0.0,0.0,0.0,0.0,0.0,0.0,0.0,0.0,0.0,0.0,0.0,0.0,0.0,0.0,0.0,0.0,0.0,0.0,0.0,0.0,0.0,0.0,0.0,0.0,0.0,0.0,0.0,0.0,0.0,0.0,0.0,0.0,0.0,0.0,0.0,0.0,0.0,0.0,0.0,0.0,0.0,0.0,0.0,0.0,0.0,0.0,0.0,0.0,0.0,0.0,0.0,0.0,0.0,0.0,0.0,0.0,0.0,0.0,0.0,0.0,0.0,0.0,0.0,0.0,0.0,0.0,0.0,0.0,0.0,-2.4657,-2.3847,-2.6099,-2.7565,0.0,0.0,0.0,0.0,0.0,0.0,0.0,0.0,0.0,0.0,0.0,0.0,0.0,0.0,0.0,0.0,0.0,0.0,0.0,0.0,0.0,0.0,0.0,0.0,0.0,0.0,0.0,0.0,0.0,0.0,0.0,0.0,0.0,0.0,0.0,0.0,0.0,0.0,0.0,0.0,0.0,0.0,0.0,0.0,0.0,0.0,0.0,0.0,0.0,0.0,0.0,0.0,0.0,0.0,0.0,0.0,0.0,0.0,0.0,0.0,0.0,0.0,0.0,0.0,0.0,0.0,0.0,0.0,0.0,0.0,0.0,0.0,0.0,0.0,0.0,0.0,0.0,0.0,0.0,0.0,0.0,0.0,0.0,0.0,0.0,0.0,0.0,0.0,0.0,0.0,0.0,0.0,0.0,0.0,0.0,0.0,0.0,0.0,0.0,0.0,0.0,0.0,0.0,0.0,0.0,0.0,0.0,0.0,0.0,0.0,-2.2932,-2.3369,-2.2859,-2.4251,-2.5847,-2.7257,0.0,0.0,0.0,0.0,0.0,0.0,0.0,0.0,0.0,0.0,0.0,0.0,0.0,0.0,0.0,0.0,0.0,0.0,0.0,0.0,0.0,0.0,0.0,0.0,0.0,0.0,0.0,0.0,0.0,0.0,0.0,0.0,0.0,0.0,0.0,0.0,0.0,0.0,0.0,0.0,0.0,0.0,0.0,0.0,0.0,0.0,0.0,0.0,0.0,0.0,0.0,0.0,0.0,0.0,0.0,0.0,0.0,0.0,0.0,0.0,0.0,0.0,0.0,0.0,0.0,0.0,0.0,0.0,0.0,0.0,0.0,0.0,0.0,0.0,0.0,0.0,0.0,0.0,0.0,0.0,0.0,0.0,0.0,0.0,0.0,0.0,0.0,0.0,0.0,0.0,0.0,0.0,0.0,0.0,0.0,0.0,0.0,0.0,0.0,0.0,0.0,0.0,0.0,0.0,0.0,0.0,0.0,0.0,-2.1652,-2.219,-2.3288,-2.4545,-2.4098,-2.472,0.0,0.0,0.0,0.0,0.0,0.0,0.0,0.0,0.0,0.0,0.0,0.0,0.0,0.0,0.0,0.0,0.0,0.0,0.0,0.0,0.0,0.0,0.0,0.0,0.0,0.0,0.0,0.0,0.0,0.0,0.0,0.0,0.0,0.0,0.0,0.0,0.0,0.0,0.0,0.0,0.0,0.0,0.0,0.0,0.0,0.0,0.0,0.0,0.0,0.0,0.0,0.0,0.0,0.0,0.0,0.0,0.0,0.0,0.0,0.0,0.0,0.0,0.0,0.0,0.0,0.0,0.0,0.0,0.0,0.0,0.0,0.0,0.0,0.0,0.0,0.0,0.0,0.0,0.0,0.0,0.0,0.0,0.0,0.0,0.0,0.0,0.0,0.0,0.0,0.0,0.0,0.0,0.0,0.0,0.0,0.0,0.0,0.0,0.0,0.0,0.0,0.0,0.0,0.0,0.0,0.0,0.0,0.0,0.0,-2.1356,-2.0876,-2.1933,-2.4122,-2.327,-2.3913,0.0,0.0,0.0,0.0,0.0,0.0,0.0,0.0,0.0,0.0,0.0,0.0,0.0,0.0,0.0,0.0,0.0,0.0,0.0,0.0,0.0,0.0,0.0,0.0,0.0,0.0,0.0,0.0,0.0,0.0,0.0,0.0,0.0,0.0,0.0,0.0,0.0,0.0,0.0,0.0,0.0,0.0,0.0,0.0,0.0,0.0,0.0,0.0,0.0,0.0,0.0,0.0,0.0,0.0,0.0,0.0,0.0,0.0,0.0,0.0,0.0,0.0,0.0,0.0,0.0,0.0,0.0,0.0,0.0,0.0,0.0,0.0,0.0,0.0,0.0,0.0,0.0,0.0,0.0,0.0,0.0,0.0,0.0,0.0,0.0,0.0,0.0,0.0,0.0,0.0,0.0,0.0,0.0,0.0,0.0,0.0,0.0,0.0,0.0,0.0,0.0,0.0,0.0,0.0,0.0,0.0,0.0,0.0,0.0,-2.1534,0.0,-2.2397,0.0,-2.3432,-2.3944,0.0,0.0,0.0,0.0,0.0,0.0,0.0,0.0,0.0,0.0,0.0,0.0,0.0,0.0,0.0,0.0,0.0,0.0,0.0,0.0,0.0,0.0,0.0,0.0,0.0,0.0,0.0,0.0,0.0,0.0,0.0,0.0,0.0,0.0,0.0,0.0,0.0,0.0,0.0,0.0,0.0,0.0,0.0,0.0,0.0,0.0,0.0,0.0,0.0,0.0,0.0,0.0,0.0,0.0,0.0,0.0,0.0,0.0,0.0,0.0,0.0,0.0,0.0,0.0,0.0,0.0,0.0,0.0,0.0,0.0,0.0,0.0,0.0,0.0,0.0,0.0,0.0,0.0,0.0,0.0,0.0,0.0,0.0,0.0,0.0,0.0,0.0,0.0,0.0,0.0,0.0,0.0,0.0,0.0,0.0,0.0,0.0,0.0,0.0,0.0,0.0,0.0,0.0,0.0,0.0,0.0,0.0,0.0,-2.138,-2.2513,-2.3991,-2.4721,-2.4754,-2.47,-2.5043,0.0,0.0,0.0,0.0,0.0,0.0,0.0,0.0,0.0,0.0,0.0,0.0,0.0,0.0,0.0,0.0,0.0,0.0,0.0,0.0,0.0,0.0,0.0,0.0,0.0,0.0,0.0,0.0,0.0,0.0,0.0,0.0,0.0,0.0,0.0,0.0,0.0,0.0,0.0,0.0,0.0,0.0,0.0,0.0,0.0,0.0,0.0,0.0,0.0,0.0,0.0,0.0,0.0,0.0,0.0,0.0,0.0,0.0,0.0,0.0,0.0,0.0,0.0,0.0,0.0,0.0,0.0,0.0,0.0,0.0,0.0,0.0,0.0,0.0,0.0,0.0,0.0,0.0,0.0,0.0,0.0,0.0,0.0,0.0,0.0,0.0,0.0,0.0,0.0,0.0,0.0,0.0,0.0,0.0,0.0,0.0,0.0,0.0,0.0,0.0,0.0,0.0,0.0,0.0,0.0,0.0,0.0,0.0,0.0,-2.446,-2.5038,-2.5061,-2.4351,-2.4914,-2.5544,0.0,0.0,0.0,0.0,0.0,0.0,0.0,0.0,0.0,0.0,0.0,0.0,0.0,0.0,0.0,0.0,0.0,0.0,0.0,0.0,0.0,0.0,0.0,0.0,0.0,0.0,0.0,0.0,0.0,0.0,0.0,0.0,0.0,0.0,0.0,0.0,0.0,0.0,0.0,0.0,0.0,0.0,0.0,0.0,0.0,0.0,0.0,0.0,0.0,0.0,0.0,0.0,0.0,0.0,0.0,0.0,0.0,0.0,0.0,0.0,0.0,0.0,0.0,0.0,0.0,0.0,0.0,0.0,0.0,0.0,0.0,0.0,0.0,0.0,0.0,0.0,0.0,0.0,0.0,0.0,0.0,0.0,0.0,0.0,0.0,0.0,0.0,0.0,0.0,0.0,0.0,0.0,0.0,0.0,0.0,0.0,0.0,0.0,0.0,0.0,0.0,0.0,0.0,0.0,0.0,0.0,0.0,0.0,0.0,-2.817,-2.8874,-2.8818,-2.8026,-2.8138,-2.778,-2.6663,0.0,0.0,0.0,0.0,0.0,0.0,0.0,0.0,0.0,0.0,0.0,0.0,0.0,0.0,0.0,0.0,0.0,0.0,0.0,0.0,0.0,0.0,0.0,0.0,0.0,0.0,0.0,0.0,0.0,0.0,0.0,0.0,0.0,0.0,0.0,0.0,0.0,0.0,0.0,0.0,0.0,0.0,0.0,0.0,0.0,0.0,0.0,0.0,0.0,0.0,0.0,0.0,0.0,0.0,0.0,0.0,0.0,0.0,0.0,0.0,0.0,0.0,0.0,0.0,0.0,0.0,0.0,0.0,0.0,0.0,0.0,0.0,0.0,0.0,0.0,0.0,0.0,0.0,0.0,0.0,0.0,0.0,0.0,0.0,0.0,0.0,0.0,0.0,0.0,0.0,0.0,0.0,0.0,0.0,0.0,0.0,0.0,0.0,0.0,0.0,0.0,0.0,0.0,0.0,0.0,0.0,0.0,0.0,-3.3155,-3.5212,-3.58,-3.456,-3.3647,-3.1445,0.0,0.0,0.0,0.0,0.0,0.0,0.0,0.0,0.0,0.0,0.0,0.0,0.0,0.0,0.0,0.0,0.0,0.0,0.0,0.0,0.0,0.0,0.0,0.0,0.0,0.0,0.0,0.0,0.0,0.0,0.0,0.0,0.0,0.0,0.0,0.0,0.0,0.0,0.0,0.0,0.0,0.0,0.0,0.0,0.0,0.0,0.0,0.0,0.0,0.0,0.0,0.0,0.0,0.0,0.0,0.0,0.0,0.0,0.0,0.0,0.0,0.0,0.0,0.0,0.0,0.0,0.0,0.0,0.0,0.0,0.0,0.0,0.0,0.0,0.0,0.0,0.0,0.0,0.0,0.0,0.0,0.0,0.0,0.0,0.0,0.0,0.0,0.0,0.0,0.0,0.0,0.0,0.0,0.0,0.0,0.0,0.0,0.0,0.0,0.0,0.0,0.0,0.0,0.0,0.0,0.0,0.0,0.0,0.0,-3.8509,-4.2305,-4.2212,-3.7768,-3.5328,-3.3258,0.0,0.0,0.0,0.0,0.0,0.0,0.0,0.0,0.0,0.0,0.0,0.0,0.0,0.0,0.0,0.0,0.0,0.0,0.0,0.0,0.0,0.0,0.0,0.0,0.0,0.0,0.0,0.0,0.0,0.0,0.0,0.0,0.0,0.0,0.0,0.0,0.0,0.0,0.0,0.0,0.0,0.0,0.0,0.0,0.0,0.0,0.0,0.0,0.0,0.0,0.0,0.0,0.0,0.0,0.0,0.0,0.0,0.0,0.0,0.0,0.0,0.0,0.0,0.0,0.0,0.0,0.0,0.0,0.0,0.0,0.0,0.0,0.0,0.0,0.0,0.0,0.0,0.0,0.0,0.0,0.0,0.0,0.0,0.0,0.0,0.0,0.0,0.0,0.0,0.0,0.0,0.0,0.0,0.0,0.0,0.0,0.0,0.0,0.0,0.0,0.0,0.0,0.0,0.0,0.0,0.0,0.0,0.0,-3.9132,-4.0861,-4.6621,-4.8088,-4.4836,-3.9724,-3.5983,0.0,0.0,0.0,0.0,0.0,0.0,0.0,0.0,0.0,0.0,0.0,0.0,0.0,0.0,0.0,0.0,0.0,0.0,0.0,0.0,0.0,0.0,0.0,0.0,0.0,0.0,0.0,0.0,0.0,0.0,0.0,0.0,0.0,0.0,0.0,0.0,0.0,0.0,0.0,0.0,0.0,0.0,0.0,0.0,0.0,0.0,0.0,0.0,0.0,0.0,0.0,0.0,0.0,0.0,0.0,0.0,0.0,0.0,0.0,0.0,0.0,0.0,0.0,0.0,0.0,0.0,0.0,0.0,0.0,0.0,0.0,0.0,0.0,0.0,0.0,0.0,0.0,0.0,0.0,0.0,0.0,0.0,0.0,0.0,0.0,0.0,0.0,0.0,0.0,0.0,0.0,0.0,0.0,0.0,0.0,0.0,0.0,0.0,0.0,0.0,0.0,0.0,0.0,0.0,0.0,0.0,0.0,0.0,-4.2107,-4.1913,-4.9047,-5.2929,-5.2616,-4.4896,-3.8867,0.0,0.0,0.0,0.0,0.0,0.0,0.0,0.0,0.0,0.0,0.0,0.0,0.0,0.0,0.0,0.0,0.0,0.0,0.0,0.0,0.0,0.0,0.0,0.0,0.0,0.0,0.0,0.0,0.0,0.0,0.0,0.0,0.0,0.0,0.0,0.0,0.0,0.0,0.0,0.0,0.0,0.0,0.0,0.0,0.0,0.0,0.0,0.0,0.0,0.0,0.0,0.0,0.0,0.0,0.0,0.0,0.0,0.0,0.0,0.0,0.0,0.0,0.0,0.0,0.0,0.0,0.0,0.0,0.0,0.0,0.0,0.0,0.0,0.0,0.0,0.0,0.0,0.0,0.0,0.0,0.0,0.0,0.0,0.0,0.0,0.0,0.0,0.0,0.0,0.0,0.0,0.0,0.0,0.0,0.0,0.0,0.0,0.0,0.0,0.0,0.0,0.0,0.0,0.0,0.0,0.0,0.0,0.0,-4.252,-4.5653,-5.0394,-5.2929,-5.2904,-4.4896,-3.9984,0.0,0.0,0.0,0.0,0.0,0.0,0.0,0.0,0.0,0.0,0.0,0.0,0.0,0.0,0.0,0.0,0.0,0.0,0.0,0.0,0.0,0.0,0.0,0.0,0.0,0.0,0.0,0.0,0.0,0.0,0.0,0.0,0.0,0.0,0.0,0.0,0.0,0.0,0.0,0.0,0.0,0.0,0.0,0.0,0.0,0.0,0.0,0.0,-4.8626,0.0,0.0,0.0,0.0,0.0,0.0,0.0,0.0,0.0,0.0,0.0,0.0,0.0,0.0,0.0,0.0,0.0,0.0,0.0,0.0,0.0,0.0,0.0,0.0,0.0,0.0,0.0,0.0,0.0,0.0,0.0,0.0,0.0,0.0,0.0,0.0,0.0,0.0,0.0,0.0,0.0,0.0,0.0,0.0,0.0,0.0,0.0,0.0,0.0,0.0,0.0,0.0,0.0,0.0,0.0,0.0,0.0,0.0,0.0,-4.2646,-4.7051,-5.0925,-5.2929,-5.2641,-4.6762,-4.2514,0.0,0.0,0.0,0.0,0.0,0.0,0.0,0.0,0.0,0.0,0.0,0.0,0.0,0.0,0.0,0.0,0.0,0.0,0.0,0.0,0.0,0.0,0.0,0.0,0.0,0.0,0.0,0.0,0.0,0.0,0.0,0.0,0.0,0.0,0.0,0.0,0.0,0.0,0.0,0.0,0.0,0.0,0.0,0.0,0.0,0.0,0.0,0.0,0.0,0.0,0.0,0.0,0.0,0.0,0.0,0.0,0.0,0.0,0.0,0.0,0.0,0.0,0.0,0.0,0.0,0.0,0.0,0.0,0.0,0.0,0.0,0.0,0.0,0.0,0.0,0.0,0.0,0.0,0.0,0.0,0.0,0.0,0.0,0.0,0.0,0.0,0.0,0.0,0.0,0.0,0.0,0.0,0.0,0.0,0.0,0.0,0.0,0.0,0.0,0.0,0.0,0.0,0.0,0.0,0.0,0.0,0.0,-3.907,-4.3051,-4.8076,-5.1247,-5.2929,-5.2879,-4.8959,-4.4801,-4.0617,0.0,0.0,0.0,0.0,0.0,0.0,0.0,0.0,0.0,0.0,0.0,0.0,0.0,0.0,0.0,0.0,0.0,0.0,0.0,0.0,0.0,0.0,0.0,0.0,0.0,0.0,0.0,0.0,0.0,0.0,0.0,0.0,0.0,0.0,0.0,0.0,0.0,0.0,-4.3484,-4.5445,0.0,0.0,0.0,0.0,0.0,0.0,0.0,0.0,-4.6496,0.0,0.0,0.0,0.0,0.0,0.0,0.0,0.0,0.0,0.0,0.0,0.0,0.0,0.0,0.0,0.0,0.0,0.0,0.0,0.0,0.0,0.0,0.0,0.0,0.0,0.0,0.0,0.0,0.0,0.0,0.0,0.0,0.0,0.0,0.0,0.0,0.0,0.0,0.0,0.0,0.0,0.0,0.0,0.0,0.0,0.0,0.0,0.0,0.0,0.0,0.0,0.0,0.0,0.0,0.0,0.0,-3.9606,-4.0236,-4.4262,-5.1793,-5.2591,-5.2929,-5.2717,-4.8984,-4.4761,-4.0255,0.0,0.0,0.0,0.0,0.0,0.0,0.0,0.0,0.0,0.0,0.0,0.0,0.0,0.0,0.0,0.0,0.0,0.0,0.0,0.0,0.0,0.0,0.0,0.0,0.0,0.0,0.0,0.0,0.0,0.0,0.0,0.0,0.0,0.0,0.0,0.0,0.0,0.0,0.0,-4.7775,-4.8285,0.0,0.0,0.0,0.0,0.0,0.0,0.0,0.0,-5.0977,0.0,0.0,0.0,0.0,0.0,0.0,0.0,0.0,0.0,0.0,0.0,0.0,0.0,0.0,0.0,0.0,0.0,0.0,0.0,0.0,0.0,0.0,0.0,0.0,0.0,0.0,0.0,0.0,0.0,0.0,0.0,0.0,0.0,0.0,0.0,0.0,0.0,0.0,0.0,0.0,0.0,0.0,0.0,0.0,0.0,0.0,0.0,0.0,0.0,0.0,0.0,0.0,0.0,0.0,0.0,-4.0334,-4.2701,-4.6737,-5.2616,-5.2929,-5.3291,-5.4113,-5.0012,-4.624,0.0,0.0,0.0,0.0,0.0,0.0,0.0,0.0,0.0,0.0,0.0,0.0,0.0,0.0,0.0,0.0,0.0,0.0,0.0,0.0,0.0,0.0,0.0,0.0,0.0,0.0,0.0,0.0,0.0,0.0,0.0,0.0,0.0,0.0,0.0,0.0,0.0,0.0,0.0,0.0,-5.031,-5.1581,-5.627,0.0,0.0,0.0,0.0,0.0,0.0,-5.1315,-5.1222,0.0,0.0,0.0,0.0,0.0,0.0,0.0,0.0,0.0,0.0,0.0,0.0,0.0,0.0,0.0,0.0,0.0,0.0,0.0,0.0,0.0,0.0,0.0,0.0,0.0,0.0,0.0,0.0,0.0,0.0,0.0,0.0,0.0,0.0,0.0,0.0,0.0,0.0,0.0,0.0,0.0,0.0,0.0,0.0,0.0,0.0,0.0,0.0,0.0,0.0,0.0,0.0,0.0,0.0,0.0,-4.1014,-4.5469,-4.9812,-5.3656,-5.3945,-5.4567,-5.5734,-5.0842,-4.7066,0.0,0.0,0.0,0.0,0.0,0.0,0.0,0.0,0.0,0.0,0.0,0.0,0.0,0.0,0.0,0.0,0.0,0.0,0.0,0.0,0.0,0.0,0.0,0.0,0.0,0.0,0.0,0.0,0.0,0.0,0.0,0.0,0.0,0.0,0.0,0.0,0.0,0.0,0.0,0.0,0.0,-5.4828,-5.987,-5.6294,0.0,0.0,0.0,0.0,-5.1228,-5.2431,0.0,0.0,0.0,0.0,0.0,0.0,0.0,0.0,0.0,0.0,0.0,0.0,0.0,0.0,0.0,0.0,0.0,0.0,0.0,0.0,0.0,0.0,0.0,0.0,0.0,0.0,0.0,0.0,0.0,0.0,0.0,0.0,0.0,0.0,0.0,0.0,0.0,0.0,0.0,0.0,0.0,0.0,0.0,0.0,0.0,0.0,0.0,0.0,0.0,0.0,0.0,0.0,0.0,0.0,0.0,0.0,-4.2323,-4.8236,-5.3294,-5.7177,-5.7369,-5.7496,-5.7542,-4.989,-4.5272,0.0,0.0,0.0,0.0,0.0,0.0,0.0,0.0,0.0,0.0,0.0,0.0,0.0,0.0,0.0,0.0,0.0,0.0,0.0,0.0,0.0,0.0,0.0,0.0,0.0,0.0,0.0,0.0,0.0,0.0,0.0,0.0,0.0,0.0,0.0,0.0,0.0,0.0,0.0,0.0,0.0,-5.525,-5.9287,-5.6364,-5.3521,0.0,0.0,-5.8343,-5.7525,-6.1476,0.0,0.0,0.0,0.0,0.0,0.0,0.0,0.0,0.0,0.0,0.0,0.0,0.0,0.0,0.0,0.0,0.0,0.0,0.0,0.0,0.0,0.0,0.0,0.0,0.0,0.0,0.0,0.0,0.0,0.0,0.0,0.0,0.0,0.0,0.0,0.0,0.0,0.0,0.0,0.0,0.0,0.0,0.0,0.0,0.0,0.0,0.0,0.0,0.0,0.0,0.0,0.0,0.0,0.0,0.0,-4.0585,-4.2667,-5.0936,-5.6224,-5.7922,-5.7977,-5.8481,-5.9352,-5.1215,-4.698,0.0,0.0,0.0,0.0,0.0,0.0,0.0,0.0,0.0,0.0,0.0,0.0,0.0,0.0,0.0,0.0,0.0,0.0,0.0,0.0,0.0,0.0,0.0,0.0,0.0,0.0,0.0,0.0,0.0,0.0,0.0,0.0,0.0,0.0,0.0,0.0,0.0,0.0,0.0,0.0,0.0,0.0,-6.0272,-5.897,0.0,0.0,0.0,-5.9325,-5.6318,0.0,0.0,0.0,0.0,0.0,0.0,0.0,0.0,0.0,0.0,0.0,0.0,0.0,0.0,0.0,0.0,0.0,0.0,0.0,0.0,0.0,0.0,0.0,0.0,0.0,0.0,0.0,0.0,0.0,0.0,0.0,0.0,0.0,0.0,0.0,0.0,0.0,0.0,0.0,0.0,0.0,0.0,0.0,0.0,0.0,0.0,0.0,0.0,0.0,0.0,0.0,0.0,0.0,0.0,0.0,0.0,0.0,-4.3801,-5.3964,-5.9256,-5.9256,-5.9256,-5.9872,-6.0903,-5.3946,0.0,0.0,0.0,0.0,0.0,0.0,0.0,0.0,0.0,0.0,0.0,0.0,0.0,0.0,0.0,0.0,0.0,0.0,0.0,0.0,0.0,0.0,0.0,0.0,0.0,0.0,0.0,-4.175,0.0,0.0,0.0,0.0,0.0,0.0,0.0,0.0,0.0,0.0,0.0,0.0,0.0,0.0,-6.1724,-6.1295,-6.126,-6.1914,0.0,0.0,-6.0451,-5.8334,-6.5265,-6.75,0.0,0.0,0.0,0.0,0.0,0.0,0.0,0.0,0.0,0.0,0.0,0.0,0.0,0.0,0.0,0.0,0.0,0.0,0.0,0.0,0.0,0.0,0.0,0.0,0.0,0.0,0.0,0.0,0.0,0.0,0.0,0.0,0.0,0.0,0.0,0.0,0.0,0.0,0.0,0.0,0.0,0.0,0.0,0.0,0.0,0.0,0.0,0.0,0.0,0.0,0.0,0.0,0.0,0.0,0.0,-4.7106,-5.7361,-6.2701,-6.2701,-6.2817,-6.2817,-6.2874,-5.8361,-5.3898,0.0,0.0,0.0,0.0,0.0,0.0,0.0,0.0,0.0,0.0,0.0,0.0,0.0,0.0,0.0,0.0,0.0,0.0,0.0,0.0,0.0,0.0,0.0,0.0,0.0,0.0,0.0,0.0,0.0,0.0,0.0,0.0,0.0,0.0,0.0,0.0,0.0,0.0,0.0,0.0,0.0,-6.1295,-6.1914,-6.1985,-6.3849,0.0,0.0,-6.3657,-6.8378,-7.3239,-7.3283,-6.3663,0.0,0.0,0.0,0.0,0.0,0.0,0.0,0.0,0.0,0.0,0.0,0.0,0.0,0.0,0.0,0.0,0.0,0.0,0.0,0.0,0.0,0.0,0.0,0.0,0.0,0.0,0.0,0.0,0.0,0.0,0.0,0.0,0.0,0.0,0.0,0.0,0.0,0.0,0.0,0.0,0.0,0.0,0.0,0.0,0.0,0.0,0.0,0.0,0.0,0.0,0.0,0.0,0.0,-4.6474,-4.7183,-5.7586,-6.3079,-6.3079,-6.3079,-6.3258,-6.3617,-5.9618,-5.5094,0.0,0.0,0.0,0.0,0.0,0.0,0.0,0.0,0.0,0.0,0.0,0.0,0.0,0.0,0.0,0.0,0.0,0.0,0.0,0.0,0.0,0.0,0.0,0.0,0.0,0.0,0.0,0.0,-5.1794,-5.1635,-4.9028,0.0,0.0,0.0,0.0,0.0,0.0,0.0,0.0,0.0,0.0,-6.331,-6.6019,-6.644,0.0,0.0,-6.8066,-6.6257,-6.588,-6.9706,-6.9532,-5.9916,-5.8083,0.0,0.0,0.0,0.0,0.0,0.0,0.0,0.0,0.0,0.0,0.0,0.0,0.0,0.0,0.0,0.0,0.0,0.0,0.0,0.0,0.0,0.0,0.0,0.0,0.0,0.0,0.0,0.0,0.0,0.0,0.0,0.0,0.0,0.0,0.0,0.0,0.0,0.0,0.0,0.0,0.0,0.0,0.0,0.0,0.0,0.0,0.0,0.0,0.0,0.0,0.0,0.0,-4.7081,-4.7878,-5.7844,-6.3079,-6.3079,-6.3079,-6.3378,-6.3917,-6.1348,-5.7503,0.0,0.0,0.0,0.0,0.0,0.0,0.0,0.0,0.0,0.0,0.0,0.0,0.0,0.0,0.0,0.0,0.0,0.0,0.0,0.0,0.0,0.0,0.0,0.0,0.0,0.0,0.0,0.0,-5.3245,-5.2395,-4.8942,0.0,0.0,0.0,0.0,0.0,0.0,0.0,0.0,0.0,0.0,-6.555,-6.7366,-6.7451,-6.7656,-6.8692,-6.6933,-6.496,-6.3562,-6.6279,-6.6173,-5.9169,0.0,0.0,0.0,0.0,0.0,0.0,0.0,0.0,0.0,0.0,0.0,0.0,0.0,0.0,0.0,0.0,0.0,0.0,0.0,0.0,0.0,0.0,0.0,0.0,0.0,0.0,0.0,0.0,0.0,0.0,0.0,0.0,0.0,0.0,0.0,0.0,0.0,0.0,0.0,0.0,0.0,0.0,0.0,0.0,0.0,0.0,0.0,0.0,0.0,0.0,0.0,0.0,0.0,-4.8527,-4.9659,-5.8473,-6.3079,-6.3079,-6.3079,-6.3378,-6.3977,-6.3917,-6.1697,-5.7212,0.0,0.0,0.0,0.0,0.0,0.0,0.0,0.0,0.0,0.0,0.0,0.0,0.0,0.0,0.0,0.0,0.0,0.0,0.0,0.0,0.0,0.0,0.0,0.0,0.0,0.0,-4.4558,-4.6512,-4.8085,0.0,0.0,0.0,0.0,0.0,0.0,0.0,0.0,0.0,0.0,-6.2465,-6.7751,-6.4794,-6.3765,-6.4097,-6.5428,-6.1104,-5.9095,-6.3429,-6.4624,-6.4731,0.0,0.0,0.0,0.0,0.0,0.0,0.0,0.0,0.0,0.0,0.0,0.0,0.0,0.0,0.0,0.0,0.0,0.0,0.0,0.0,0.0,0.0,0.0,0.0,0.0,0.0,0.0,0.0,-3.5704,0.0,0.0,0.0,0.0,0.0,0.0,0.0,0.0,0.0,0.0,0.0,-4.8603,-5.0371,0.0,0.0,0.0,0.0,0.0,0.0,0.0,0.0,0.0,0.0,0.0,0.0,-4.9036,-5.0065,-5.8502,-6.3079,-6.3079,-6.3079,-6.3378,-6.3977,-6.4006,-6.1968,-5.7596,0.0,0.0,0.0,0.0,0.0,0.0,0.0,0.0,0.0,0.0,0.0,0.0,0.0,0.0,0.0,0.0,0.0,0.0,0.0,0.0,0.0,0.0,0.0,0.0,0.0,-4.9756,0.0,0.0,0.0,0.0,0.0,0.0,0.0,0.0,0.0,0.0,0.0,-5.5114,-5.8664,-6.0268,-6.1841,-6.3852,-6.4385,-6.5825,0.0,0.0,0.0,0.0,0.0,0.0,0.0,0.0,0.0,0.0,0.0,0.0,0.0,0.0,-6.0328,-5.5599,-5.9528,-6.272,-5.9899,0.0,0.0,0.0,0.0,0.0,0.0,0.0,0.0,0.0,0.0,0.0,0.0,0.0,0.0,0.0,0.0,-4.1777,0.0,0.0,0.0,0.0,0.0,0.0,0.0,0.0,-4.9764,-5.3275,-5.4734,-5.595,-5.6389,0.0,-5.4316,-5.0078,0.0,0.0,0.0,0.0,0.0,0.0,0.0,0.0,-4.9209,-5.0065,-5.8708,-6.3408,-6.3408,-6.3647,-6.4066,-6.4665,-6.4695,-6.3624,-6.1251,-5.7596,-5.4269,0.0,0.0,0.0,0.0,0.0,0.0,0.0,0.0,0.0,0.0,0.0,0.0,0.0,0.0,0.0,0.0,0.0,0.0,0.0,0.0,0.0,0.0,0.0,-5.178,0.0,0.0,0.0,0.0,0.0,0.0,0.0,0.0,0.0,-5.2478,-5.5525,-5.9006,-6.2238,-6.2291,-6.2105,-6.2352,0.0,0.0,0.0,0.0,0.0,0.0,0.0,-5.7233,-5.6214,-5.7378,-5.9553,-6.2859,-6.5622,-6.7355,-6.7317,0.0,0.0,-6.2593,-6.563,-6.8574,-6.6206,-6.5957,-6.6034,-6.5785,-6.6583,-6.736,0.0,0.0,0.0,0.0,0.0,0.0,0.0,0.0,-4.6432,-4.4732,0.0,-4.7243,0.0,0.0,0.0,0.0,0.0,0.0,0.0,0.0,-6.0792,-6.3801,-6.0617,-6.0874,-6.1135,-6.0961,-5.673,-5.3977,-5.2798,-5.218,0.0,0.0,0.0,0.0,0.0,0.0,-4.925,-5.0263,-5.935,-6.4036,-6.4036,-6.4665,-6.5323,-6.5922,-6.6072,-6.6703,-6.7879,-6.3507,-6.1217,-6.1759,-5.3944,0.0,0.0,0.0,0.0,0.0,0.0,0.0,0.0,0.0,0.0,0.0,0.0,0.0,0.0,0.0,0.0,0.0,0.0,0.0,0.0,-5.2949,0.0,0.0,0.0,0.0,0.0,0.0,0.0,0.0,0.0,0.0,-5.4437,-5.9168,-6.3184,-6.3745,0.0,0.0,0.0,0.0,-6.1656,-5.5067,-5.3162,-5.2845,-5.3093,-5.6474,-6.068,-6.5044,0.0,0.0,-7.3892,-7.1483,-6.9419,-6.8769,-7.3192,-7.5222,-7.0341,-6.9117,-6.8982,-6.9528,-6.9265,-6.8681,-6.9294,-7.0074,-6.9996,-4.2812,0.0,0.0,0.0,0.0,-4.1499,-4.4841,-5.0149,-5.2129,-5.2145,-5.0935,-5.4189,0.0,0.0,0.0,0.0,0.0,0.0,-5.2181,-5.6037,-6.0056,-6.303,-6.505,-6.5228,-6.5318,-6.5166,-6.3855,-6.2616,-6.138,-6.1291,-5.5041,-4.3191,0.0,0.0,0.0,0.0,-5.1796,-5.532,-6.1493,-6.4725,-6.4725,-6.4934,-6.5114,-6.5293,-6.6721,-6.7831,-6.8181,-6.9287,-6.8198,-6.4641,-6.301,0.0,0.0,0.0,0.0,0.0,0.0,0.0,0.0,0.0,0.0,0.0,0.0,0.0,0.0,0.0,0.0,0.0,0.0,0.0,-5.2647,-5.6316,-5.6135,0.0,0.0,0.0,0.0,0.0,0.0,0.0,0.0,0.0,-6.103,-6.0554,-6.0152,0.0,0.0,-5.7373,-5.4473,-5.8208,-6.1682,-6.2897,0.0,0.0,0.0,-6.5574,-6.4556,-6.6444,-7.0636,-7.4006,-7.4813,-7.6542,-7.7815,-7.77,-7.9229,-7.9981,-7.8903,-7.8311,-7.8125,-7.8425,-7.8269,-7.8191,-7.8425,-7.8503,-7.8398,-4.8464,-4.6069,-4.3646,-4.3831,-4.5661,-4.6594,-5.0181,-5.5351,-5.8037,-5.8099,-5.6511,-6.0328,-5.7407,-4.9719,-4.9191,0.0,0.0,0.0,-5.6613,-6.1582,-6.2491,-6.4304,-6.6909,-6.6999,-6.6999,-6.6969,-6.6729,-6.6191,-6.5383,-6.3595,-5.8143,-4.9336,0.0,0.0,-4.6545,-5.107,-5.4743,-5.7936,-6.2765,-6.5413,-6.5413,-6.5682,-6.6012,-6.6695,-6.7935,-6.9184,-7.0308,-7.2476,-7.2348,-6.967,-6.8334,-6.444,0.0,0.0,0.0,0.0,0.0,0.0,0.0,0.0,0.0,0.0,0.0,-5.2497,-4.822,0.0,0.0,0.0,-5.5221,-5.5667,-5.7171,-5.8338,0.0,0.0,0.0,0.0,0.0,0.0,0.0,-5.4229,-5.9626,-6.3716,-6.4281,-6.2974,-6.2456,-6.3847,-6.2364,-6.0394,-5.8269,0.0,-6.5724,-6.6937,-6.7125,-6.807,-7.0829,-7.0144,-6.9954,-7.2303,-7.4915,-7.6963,-7.7577,-7.9774,-8.1407,-8.1671,-8.187,-8.2069,-8.224,-8.2305,-8.2304,-8.2304,-8.2304,-8.2304,-8.2304,-8.2304,-8.2304,-5.3532,-5.2529,-4.6381,-4.6351,-5.0319,-5.2346,-5.5372,-5.9435,-6.3384,-6.2551,-5.8783,-6.5088,-6.2128,-5.2397,-5.1002,0.0,0.0,-5.8661,-6.1681,-6.6969,-6.6999,-6.6999,-6.6999,-6.6999,-6.6999,-6.6969,-6.6492,-6.6162,-6.5952,-6.2173,-5.9651,-5.8801,-5.7478,-5.5158,-5.2089,-5.5221,-5.7537,-5.8662,-6.3268,-6.5892,-6.6312,-6.6792,-6.7668,-6.9085,-6.9317,-7.0753,-7.3457,-7.3711,-7.434,-7.5445,-7.0951,-6.8086,-6.7306,0.0,0.0,0.0,0.0,0.0,0.0,0.0,0.0,0.0,0.0,0.0,0.0,0.0,0.0,0.0,-6.1867,0.0,-6.4592,-6.008,0.0,0.0,0.0,-5.6885,-6.0807,-6.2023,-6.2454,-6.2284,0.0,0.0,-6.5646,0.0,-6.8565,-7.3219,-7.3181,-7.1365,-6.7618,-7.0307,-7.1897,-6.8412,-6.8108,-6.8334,-6.9695,-7.2303,-7.5824,-7.9499,-8.1093,-8.083,-8.0907,-8.117,-8.149,-8.1679,-8.191,-8.2111,-8.225,-8.2304,-8.2304,-8.2304,-8.2304,-8.2304,-8.2304,-8.2304,-8.2304,-5.4536,-5.4712,-5.3122,-5.2808,-5.3703,-5.6261,-5.8769,-6.1056,-6.3516,-6.4532,-6.4828,-6.6544,-6.5704,-6.326,-6.2808,-6.3461,-6.4837,-6.4896,-6.5644,-6.6969,-6.6999,-6.6999,-6.6999,-6.6999,-6.6999,-6.7091,-6.7935,-6.8126,-6.772,-6.7728,-6.5779,-6.2227,-6.132,-5.7768,-5.1815,-5.3473,-5.6563,-6.0696,-6.2423,-6.4904,-6.8311,-6.7457,-6.7638,-6.9201,-7.0312,-7.1758,-7.3598,-7.4637,-7.5388,-7.5676,-7.4472,-7.1942,-6.7762,-6.1727,0.0,0.0,0.0,0.0,0.0,0.0,0.0,0.0,0.0,-5.3662,-4.8616,0.0,-5.5164,0.0,-6.3668,-6.8475,-6.8839,-6.7089,0.0,0.0,-6.0891,-6.048,-6.31,-6.575,-6.6826,-6.5359,-6.8161,-7.0704,-7.1788,-7.2126,-7.3947,-7.8386,-7.3036,-6.8186,-6.7314,-7.0986,-7.3565,-7.2914,-7.5293,-7.7719,-7.7527,-7.8628,-7.9691,-8.0939,-8.1093,-8.117,-8.1285,-8.1477,-8.1685,-8.1903,-8.2108,-8.2248,-8.2304,-8.2304,-8.2304,-8.2304,-8.2304,-8.2304,-8.2304,-8.2304,-8.2304,-5.4963,-5.5064,-5.5491,-5.539,-5.5274,-5.8684,-6.0645,-6.173,-6.441,-6.6044,-6.6999,-6.6999,-6.6999,-6.6999,-6.6999,-6.6999,-6.6999,-6.6999,-6.6999,-6.6999,-6.6999,-6.6999,-6.6999,-6.6999,-6.7305,-6.7998,-6.8766,-6.9329,-6.9633,-7.0486,-6.9466,-6.691,-6.6789,-6.3568,-5.7523,-5.563,-5.6242,-5.9077,-6.1507,-6.5218,-6.9929,-6.9432,-6.8686,-6.8012,-6.8521,-6.8274,-6.7389,-6.7862,-6.8069,-6.8082,-6.8369,-6.7488,-6.5216,-6.0663,-5.7412,0.0,0.0,0.0,0.0,0.0,0.0,0.0,0.0,0.0,0.0,0.0,-5.9188,0.0,-6.5956,-6.9709,-6.8259,-6.7389,-6.6852,-6.6717,-6.6017,-6.6713,-6.9633,-7.1912,-7.2815,-7.1743,-7.3757,-7.5675,-7.6617,-7.6802,-7.7785,-8.0683,-7.6657,-7.3327,-7.3514,-7.5709,-7.7226,-7.7341,-7.9422,-8.1093,-8.1093,-8.1093,-8.1093,-8.1093,-8.117,-8.1285,-8.1362,-8.1631,-8.1893,-8.1985,-8.2168,-8.2304,-8.2304,-8.2304,-8.2304,-8.2304,-8.2304,-8.2304,-8.2304,-8.2304,-8.23,-5.5415,-5.5089,-5.6088,-5.6359,-5.6294,-6.0141,-6.1712,-6.1864,-6.5484,-6.6999,-6.6999,-6.6999,-6.6999,-6.6999,-6.6999,-6.6999,-6.6999,-6.6999,-6.6999,-6.6999,-6.6999,-6.6999,-6.6999,-6.7213,-6.7998,-6.9201,-6.9631,-7.0392,-7.1713,-7.1821,-7.1596,-7.107,-7.1649,-6.9324,-6.4145,-5.9274,-5.6787,-5.6738,-6.134,-6.6091,-7.0748,-7.0008,-6.8256,-6.5664,-6.4767,-6.2936,-5.9652,-5.8961,-5.873,-5.8724,-5.9263,-6.0576,-6.2577,-5.8558,-5.7113,0.0,-5.4619,0.0,0.0,0.0,0.0,0.0,0.0,0.0,0.0,-6.4091,-6.4689,-6.5314,-6.8352,-6.9346,-6.7085,-6.6286,-6.7534,-7.1558,-7.2092,-7.3487,-7.6827,-7.7903,-7.8326,-7.8421,-7.8957,-7.9556,-8.0011,-8.0201,-8.0425,-8.0953,-8.0715,-8.0184,-8.083,-8.0715,-8.0715,-8.1093,-8.1093,-8.1093,-8.1093,-8.1093,-8.1093,-8.1131,-8.1246,-8.1424,-8.1427,-8.1762,-8.1993,-8.2033,-8.2167,-8.2304,-8.2304,-8.2304,-8.2304,-8.2304,-8.2304,-8.2304,-8.2304,-8.2265,-8.2211,-5.7374,-5.7223,-5.7512,-5.8414,-5.983,-6.152,-6.2034,-6.1864,-6.5513,-6.6999,-6.6999,-6.6999,-6.6999,-6.6999,-6.6999,-6.6999,-6.6999,-6.6999,-6.6999,-6.6999,-6.6999,-6.6999,-6.7091,-6.8206,-6.8852,-6.9317,-7.1605,-7.2914,-7.3225,-7.4306,-7.2907,-6.9217,-6.9252,-6.6903,-6.2231,0.0,0.0,0.0,-6.4006,-6.7164,-6.7907,-6.2705,-6.0137,-6.0599,-5.9536,0.0,-5.95,-5.9372,-5.9361,-5.9343,-6.0011,0.0,0.0,0.0,0.0,0.0,0.0,0.0,0.0,0.0,0.0,0.0,-6.507,-6.4999,-6.5126,-6.4697,-6.5985,-6.9777,-7.0263,-7.166,-7.4714,-7.4921,-7.5202,-7.5996,-7.6166,-7.6533,-7.7268,-7.7903,-7.8478,-7.8974,-7.9553,-8.0163,-8.075,-8.0888,-8.0959,-8.1061,-8.1093,-8.1093,-8.1093,-8.1093,-8.1093,-8.1093,-8.1093,-8.1093,-8.1093,-8.1093,-8.1093,-8.1131,-8.1246,-8.1446,-8.1613,-8.1865,-8.2065,-8.2187,-8.2265,-8.2304,-8.2304,-8.2304,-8.2304,-8.2304,-8.2304,-8.2304,-8.2304,-8.2182,-8.2045,-5.8679,0.0,-5.981,-6.0493,0.0,-6.3716,-6.4529,-6.4122,-6.6412,-6.7478,-6.7478,-6.7478,-6.7298,-6.6999,-6.6999,-6.6999,-6.6999,-6.6999,-6.6999,-6.6999,-6.6999,-6.6999,-6.7121,-6.8531,-6.9516,-7.0424,-7.2924,-7.4535,-7.5205,-7.5961,-7.5113,-7.2753,-7.2295,-7.0876,-6.8633,-6.8456,-6.7028,-6.4056,-6.6352,-6.8764,-7.1227,-6.8042,-6.5477,-6.3997,0.0,0.0,0.0,0.0,0.0,0.0,0.0,0.0,0.0,0.0,0.0,-6.8794,-6.8184,-6.8813,-7.1159,-7.1405,-7.2467,-7.4747,-7.4928,-7.3602,-7.0469,-7.1657,-7.357,-7.5853,-7.5114,-7.5384,-7.7609,-7.7598,-7.7341,-7.7341,-7.7341,-7.7414,-7.7757,-7.8349,-7.895,-7.957,-8.0174,-8.075,-8.1061,-8.1093,-8.1093,-8.1093,-8.1093,-8.1093,-8.1093,-8.1093,-8.1093,-8.1093,-8.1093,-8.1093,-8.1093,-8.1208,-8.1246,-8.1285,-8.1477,-8.1735,-8.1824,-8.2009,-8.2206,-8.2304,-8.2304,-8.2304,-8.2304,-8.2304,-8.2304,-8.2304,-8.2304,-8.2265,-8.2182,-8.208,-8.1932,-5.9939,-6.0404,-6.217,-6.2958,-6.3317,-6.6385,-6.748,-6.7189,0.0,0.0,0.0,-6.8136,-6.7867,-6.7358,-6.7208,-6.7238,-6.7328,-6.7089,-6.7059,-6.7148,-6.7395,-6.7427,-6.7427,-6.9325,-7.0806,-7.2046,-7.4281,-7.5806,-7.6893,-7.6893,-7.6826,-7.6623,-7.6014,-7.5676,-7.5709,-7.5845,-7.3979,-7.0209,-6.8659,-7.007,-7.4444,-7.371,-7.1392,-6.7625,-6.6692,-6.4153,-5.9934,-5.9091,-5.8734,-5.8734,-5.9383,-6.0674,-6.2941,-6.5657,-6.7955,-6.9596,-7.1588,-7.4528,-7.8327,-7.8686,-8.0375,-8.4389,-8.3875,-8.1403,-7.6578,-7.915,-8.1012,-8.1012,-7.969,-7.8809,-7.8809,-7.8185,-7.7745,-7.7781,-7.7831,-7.8099,-7.8463,-7.9177,-7.9806,-8.0284,-8.0754,-8.117,-8.1323,-8.117,-8.1093,-8.1093,-8.1093,-8.1093,-8.1093,-8.1093,-8.1093,-8.1093,-8.1093,-8.1131,-8.117,-8.1285,-8.1424,-8.1446,-8.1745,-8.2009,-8.2024,-8.2168,-8.2304,-8.2304,-8.2304,-8.2304,-8.2304,-8.2304,-8.2304,-8.2304,-8.225,-8.2182,-8.2003,-8.1946,-8.1778,-6.1964,-6.3512,-6.3778,-6.5824,-6.8907,-6.8828,-6.9325,-7.0111,-6.9236,-6.8854,-6.8854,-6.8854,-6.8794,-6.8675,-6.8106,-6.8166,-6.8615,-6.7508,-6.7298,0.0,-6.857,-6.8883,-6.9116,-7.2324,-7.4071,-7.4451,-7.6475,-7.7273,-7.6961,-7.6927,-7.6555,-7.5946,-7.5743,-7.5709,-7.5743,-7.6386,-7.6357,-7.5687,-7.1504,-6.9694,-7.0353,-6.5876,-6.3551,-6.3367,-6.1833,-6.0727,-6.0518,-5.9934,-5.9328,-5.936,-6.0008,-6.2273,-6.6666,-7.0237,-7.3957,-7.8125,-8.1021,-8.2941,-8.3521,-8.3594,-8.3881,-8.4462,-8.3875,-8.2744,-8.1359,-8.1057,-8.1012,-8.0975,-8.0131,-7.9617,-7.958,-7.947,-7.9323,-7.9423,-7.9956,-8.0042,-7.9493,-8.0356,-8.1118,-8.1266,-8.11,-8.14,-8.19,-8.1516,-8.1093,-8.1093,-8.1093,-8.1093,-8.1093,-8.1093,-8.1093,-8.1093,-8.1093,-8.117,-8.1323,-8.1362,-8.1484,-8.164,-8.1852,-8.2034,-8.2024,-8.2169,-8.2304,-8.2304,-8.2304,-8.2304,-8.2304,-8.2304,-8.2304,-8.23,-8.2143,-8.2003,-8.1807,-8.1646,-8.147,-6.3274,-6.5105,-6.6303,-6.8131,-7.0527,-7.0544,-7.0634,-7.0859,-7.029,-6.9842,-6.9542,-6.9542,-6.9333,-6.8974,-6.8675,-6.8704,-6.8974,-6.8375,-6.8693,-6.9702,-6.9746,-7.0411,-7.1724,-7.3705,-7.4851,-7.5455,-7.7548,-7.8416,-7.8145,-7.8111,-7.7705,-7.6961,-7.6555,-7.6386,-7.6425,-7.7164,-7.7502,-7.7468,-7.5325,-7.4161,-7.4128,-7.1737,-7.0648,-7.098,-6.9982,-6.965,-7.0076,-6.9317,-6.8918,-6.8918,-6.9251,-7.0708,-7.339,-7.6481,-7.9489,-8.217,-8.4537,-8.5894,-8.5894,-8.593,-8.5747,-8.5275,-8.4468,-8.3691,-8.2913,-8.2076,-8.1489,-8.1048,-8.0645,-8.0241,-7.9837,-7.98,-7.9952,-8.0326,-8.0636,-8.0923,-8.1198,-8.1664,-8.2225,-8.2496,-8.2093,-8.19,-8.2247,-8.1593,-8.1093,-8.1093,-8.1093,-8.1093,-8.1093,-8.1208,-8.1246,-8.1246,-8.1246,-8.1362,-8.1516,-8.1631,-8.1735,-8.1862,-8.2046,-8.2162,-8.2168,-8.2265,-8.2304,-8.2304,-8.2304,-8.2304,-8.2304,-8.2304,-8.2265,-8.2154,-8.205,-8.1898,-8.1646,-8.1407,-8.1239,-6.4631,-6.6597,-6.8682,-7.0464,-7.1784,-7.2238,-7.1966,-7.1368,-7.1218,-7.0769,-7.0231,-7.0201,-6.9901,-6.9453,-6.9273,-6.9303,-6.9393,-6.9123,-6.985,-7.1402,-7.1073,-7.2085,-7.407,-7.5174,-7.5997,-7.6698,-7.8421,-7.9295,-7.9126,-7.9126,-7.8686,-7.8006,-7.7464,-7.7168,-7.7174,-7.7878,-7.8247,-7.8247,-7.8416,-7.8348,-7.801,-7.801,-7.8044,-7.8213,-7.801,-7.801,-7.7976,-7.7435,-7.7063,-7.6927,-7.7318,-7.7981,-7.8915,-8.1458,-8.3272,-8.4271,-8.5954,-8.7031,-8.7031,-8.7031,-8.6705,-8.6086,-8.5128,-8.4345,-8.3676,-8.2766,-8.1966,-8.1379,-8.1305,-8.1076,-8.0776,-8.0628,-8.0822,-8.1455,-8.1687,-8.2146,-8.2846,-8.3101,-8.337,-8.372,-8.2978,-8.2324,-8.2362,-8.1708,-8.1131,-8.1093,-8.1131,-8.117,-8.1208,-8.1439,-8.1739,-8.1578,-8.1514,-8.1571,-8.1724,-8.1893,-8.1996,-8.2071,-8.2179,-8.2265,-8.2304,-8.2304,-8.2304,-8.2304,-8.2304,-8.2304,-8.2304,-8.2265,-8.2156,-8.2045,-8.1916,-8.1701,-8.1424,-8.1239,-8.1131,-6.6597,-6.8696,-7.0735,-7.272,-7.4248,-7.3835,-7.3283,-7.2654,-7.2086,-7.1427,-7.0889,-7.0829,-7.0799,-7.0649,-7.0141,-7.0201,-7.056,-6.9512,-7.0247,-7.2173,-7.2927,-7.407,-7.5734,-7.7714,-7.8724,-7.8892,-7.9668,-7.9837,-7.9261,-7.9126,-7.8782,-7.8122,-7.7934,-7.7846,-7.8018,-7.8622,-7.9025,-7.9025,-7.9667,-7.9329,-7.8077,-7.801,-7.8314,-7.8991,-7.8348,-7.801,-7.8077,-7.7908,-7.757,-7.7092,-7.8544,-7.9463,-7.9892,-8.244,-8.4083,-8.4271,-8.599,-8.7031,-8.7031,-8.7031,-8.6995,-8.6811,-8.549,-8.4632,-8.4498,-8.3125,-8.2186,-8.2141,-8.2141,-8.2239,-8.283,-8.2776,-8.3004,-8.3577,-8.4143,-8.4462,-8.4017,-8.4361,-8.4753,-8.4753,-8.3439,-8.2593,-8.317,-8.217,-8.1208,-8.1246,-8.1439,-8.1578,-8.1745,-8.2309,-8.2624,-8.2169,-8.1848,-8.1846,-8.1992,-8.2001,-8.2095,-8.2226,-8.2265,-8.2304,-8.2304,-8.2304,-8.2304,-8.2304,-8.2304,-8.2304,-8.2265,-8.2182,-8.203,-8.189,-8.167,-8.14,-8.1208,-8.1131,-8.1093,-6.7648,-7.0606,-7.1474,-7.2894,-7.4129,-7.4061,-7.3522,-7.2894,-7.2624,-7.2325,-7.2116,-7.2086,-7.1667,-7.0919,-7.1038,-7.1068,-7.0859,-7.035,-7.1657,-7.4021,-7.4139,-7.5625,-7.835,-7.923,-7.9972,-8.0445,-8.1156,-8.1122,-8.0344,-7.9532,-7.8923,-7.8718,-7.8653,-7.8688,-7.8792,-7.9837,-8.0412,-8.0412,-8.0682,-8.0547,-7.9972,-7.9532,-7.9431,-7.9701,-7.9464,-7.9295,-7.9228,-7.8889,-7.8517,-7.8345,-7.9599,-8.0678,-8.1313,-8.3558,-8.5149,-8.5773,-8.6566,-8.7031,-8.7031,-8.7031,-8.7031,-8.7031,-8.5967,-8.5475,-8.588,-8.4897,-8.416,-8.4012,-8.3313,-8.3053,-8.3704,-8.381,-8.4029,-8.4651,-8.4957,-8.509,-8.5204,-8.542,-8.5632,-8.5517,-8.4593,-8.3939,-8.4055,-8.2978,-8.2093,-8.2047,-8.2201,-8.2507,-8.3033,-8.363,-8.3765,-8.3611,-8.3564,-8.3134,-8.25,-8.2169,-8.2226,-8.2304,-8.2304,-8.2304,-8.2344,-8.2304,-8.2304,-8.2304,-8.2304,-8.2226,-8.2109,-8.2057,-8.197,-8.1739,-8.1477,-8.1208,-8.1093,-8.1093,-8.1093,-6.916,-7.1827,-7.2399,-7.3352,-7.4176,-7.4104,-7.3791,-7.3223,-7.3193,-7.3073,-7.2954,-7.3103,-7.2445,-7.1368,-7.1667,-7.1607,-7.1218,-7.1378,-7.3137,-7.5687,-7.5781,-7.7453,-8.0344,-8.0513,-8.0784,-8.1291,-8.1799,-8.19,-8.146,-8.0344,-7.9769,-7.9702,-7.9566,-7.9364,-7.9466,-8.0581,-8.1088,-8.1224,-8.1088,-8.1088,-8.1122,-8.0581,-8.0209,-8.0209,-8.0209,-8.0107,-7.9904,-7.96,-7.9494,-7.9615,-8.079,-8.2085,-8.3187,-8.4799,-8.6138,-8.6856,-8.7031,-8.7031,-8.7031,-8.7031,-8.7031,-8.6958,-8.6427,-8.6314,-8.6605,-8.6046,-8.5612,-8.5572,-8.4481,-8.3979,-8.4325,-8.4467,-8.4696,-8.528,-8.536,-8.5589,-8.5988,-8.6094,-8.6055,-8.6017,-8.5286,-8.4824,-8.4516,-8.3702,-8.3072,-8.3139,-8.3336,-8.3616,-8.4298,-8.4699,-8.494,-8.4764,-8.4971,-8.4637,-8.332,-8.2812,-8.2734,-8.2812,-8.2851,-8.2422,-8.25,-8.2539,-8.2304,-8.2304,-8.2265,-8.219,-8.2034,-8.1967,-8.1778,-8.1439,-8.1208,-8.1093,-8.1093,-8.1208,-8.1285,-7.1712,-7.2171,-7.3871,-7.4654,-7.4839,-7.4809,-7.445,-7.3851,-7.3851,-7.3522,-7.3133,-7.3612,-7.3103,-7.1936,-7.2128,-7.1876,-7.1948,-7.2681,-7.4314,-7.6688,-7.8096,-7.967,-8.1155,-8.1257,-8.1291,-8.1494,-8.1697,-8.1866,-8.2238,-8.1528,-8.119,-8.1088,-8.0445,-8.0107,-8.0141,-8.0276,-8.0615,-8.1156,-8.075,-8.0648,-8.1122,-8.0581,-8.0209,-8.0276,-8.0209,-7.9904,-7.9363,-7.9803,-8.0331,-8.0744,-8.2471,-8.3934,-8.5051,-8.6211,-8.6925,-8.7031,-8.7031,-8.7031,-8.7031,-8.7031,-8.7031,-8.699,-8.6952,-8.6909,-8.716,-8.6329,-8.6057,-8.6333,-8.5647,-8.5114,-8.5079,-8.5079,-8.532,-8.5846,-8.5988,-8.606,-8.6094,-8.6094,-8.6094,-8.6017,-8.5517,-8.4927,-8.4157,-8.4119,-8.4182,-8.425,-8.4417,-8.4628,-8.4892,-8.5572,-8.5702,-8.5447,-8.5586,-8.582,-8.4922,-8.4023,-8.3945,-8.4023,-8.3437,-8.2734,-8.289,-8.2969,-8.2617,-8.2265,-8.2187,-8.2056,-8.1967,-8.1739,-8.1439,-8.1208,-8.117,-8.1093,-8.1362,-8.1823,-8.1977,-7.2599,-7.3812,-7.4564,-7.4869,-7.4869,-7.4869,-7.4719,-7.454,-7.454,-7.439,-7.424,-7.442,-7.424,-7.3896,-7.4415,-7.4017,-7.2976,-7.3669,-7.5464,-7.8111,-7.9276,-8.0582,-8.1932,-8.2475,-8.2712,-8.2746,-8.3186,-8.305,-8.234,-8.1629,-8.1021,-8.0648,-8.031,-8.0209,-8.0276,-8.0648,-8.1054,-8.1291,-8.146,-8.1528,-8.1224,-8.0581,-8.0542,-8.1222,-8.0542,-7.987,-7.9126,-8.0492,-8.1336,-8.1494,-8.3529,-8.4888,-8.5355,-8.6392,-8.7031,-8.7031,-8.7031,-8.7031,-8.7031,-8.7031,-8.7215,-8.7647,-8.7709,-8.8087,-8.8607,-8.8162,-8.7704,-8.7658,-8.7079,-8.6427,-8.589,-8.5737,-8.5811,-8.606,-8.6094,-8.6094,-8.6094,-8.6094,-8.617,-8.6286,-8.6165,-8.5822,-8.5152,-8.512,-8.5282,-8.532,-8.5521,-8.582,-8.6367,-8.6836,-8.6836,-8.6679,-8.6797,-8.6914,-8.6679,-8.5273,-8.457,-8.4609,-8.4336,-8.414,-8.4179,-8.3554,-8.3125,-8.2734,-8.2422,-8.1869,-8.1739,-8.1477,-8.1208,-8.117,-8.1093,-8.1323,-8.1785,-8.2208,-8.2477,-7.3672,-7.4731,-7.4869,-7.4869,-7.4869,-7.4869,-7.4869,-7.4869,-7.4869,-7.4869,-7.4869,-7.4869,-7.5022,-7.5365,-7.6,-7.6182,-7.5529,-7.6023,-7.7461,-7.9661,-8.0701,-8.1816,-8.2641,-8.3253,-8.349,-8.3592,-8.4268,-8.4065,-8.3118,-8.2137,-8.1393,-8.0987,-8.0445,-8.0344,-8.0615,-8.0851,-8.1088,-8.1562,-8.1697,-8.1494,-8.1292,-8.0916,-8.1022,-8.1446,-8.1336,-8.1077,-8.0596,-8.1806,-8.2656,-8.3103,-8.4523,-8.5463,-8.588,-8.6571,-8.7031,-8.7031,-8.7031,-8.7095,-8.7365,-8.7365,-8.7653,-8.8396,-8.8666,-8.9211,-8.9954,-8.9535,-8.9228,-8.8948,-8.8325,-8.7517,-8.7132,-8.6978,-8.6709,-8.6286,-8.6094,-8.6132,-8.6209,-8.6247,-8.637,-8.6549,-8.6748,-8.6559,-8.6165,-8.6234,-8.6338,-8.6415,-8.6523,-8.6914,-8.7344,-8.75,-8.75,-8.75,-8.7383,-8.7422,-8.7265,-8.6367,-8.5859,-8.5859,-8.5039,-8.5039,-8.4948,-8.4224,-8.3594,-8.3219,-8.2603,-8.1878,-8.1439,-8.1246,-8.117,-8.117,-8.117,-8.1323,-8.19,-8.2516,-8.2939,-7.4869,-7.4869,-7.4869,-7.4869,-7.4869,-7.4869,-7.4869,-7.4869,-7.4869,-7.4869,-7.4869,-7.5006,-7.5559,-7.6258,-7.6804,-7.785,-7.9464,-7.974,-8.0346,-8.1359,-8.2636,-8.338,-8.3524,-8.3558,-8.3625,-8.3625,-8.4268,-8.4539,-8.4167,-8.3016,-8.2306,-8.2003,-8.0919,-8.0784,-8.1324,-8.0851,-8.1021,-8.1765,-8.1258,-8.0919,-8.1258,-8.1757,-8.169,-8.1409,-8.2629,-8.3429,-8.355,-8.3596,-8.4066,-8.496,-8.5297,-8.5833,-8.6715,-8.7068,-8.7068,-8.7142,-8.7105,-8.7468,-8.8035,-8.8256,-8.8488,-8.916,-8.9692,-8.9974,-9.0146,-8.9947,-8.9793,-8.9636,-8.9056,-8.8556,-8.8517,-8.8479,-8.7902,-8.6517,-8.644,-8.6555,-8.6594,-8.6555,-8.6636,-8.6971,-8.7191,-8.7147,-8.7174,-8.7332,-8.75,-8.7617,-8.7656,-8.7695,-8.789,-8.7929,-8.7656,-8.7578,-8.7695,-8.7773,-8.7617,-8.7461,-8.7383,-8.7187,-8.6015,-8.5387,-8.5382,-8.4901,-8.4185,-8.3652,-8.2661,-8.197,-8.2054,-8.1862,-8.167,-8.1631,-8.1516,-8.1785,-8.2631,-8.3401,-8.3632,-7.4869,-7.4869,-7.4869,-7.4869,-7.4869,-7.4869,-7.4869,-7.4869,-7.4869,-7.4869,-7.5112,-7.6099,-7.6677,-7.7524,-7.9298,-8.075,-8.1539,-8.2145,-8.2528,-8.2886,-8.3746,-8.4196,-8.4268,-8.4268,-8.4268,-8.4302,-8.4505,-8.4065,-8.3287,-8.3118,-8.2712,-8.1799,-8.1731,-8.1763,-8.2033,-8.1426,-8.146,-8.224,-8.2231,-8.2211,-8.2542,-8.2901,-8.3309,-8.3814,-8.4004,-8.4547,-8.577,-8.5167,-8.4926,-8.5314,-8.6063,-8.6681,-8.7036,-8.7545,-8.7839,-8.7945,-8.8856,-8.9469,-8.9696,-8.9685,-8.9959,-9.0411,-9.035,-9.0409,-9.068,-9.0287,-8.9979,-8.9863,-8.9171,-8.8671,-8.8709,-8.8825,-8.8628,-8.7979,-8.7979,-8.8051,-8.8128,-8.8425,-8.8682,-8.8698,-8.8455,-8.8479,-8.8789,-8.8789,-8.8554,-8.9023,-8.9101,-8.9101,-8.914,-8.9023,-8.8906,-8.8476,-8.8359,-8.7908,-8.7534,-8.7254,-8.7206,-8.7195,-8.6451,-8.5852,-8.5831,-8.541,-8.4705,-8.3866,-8.2871,-8.2432,-8.2516,-8.2554,-8.2401,-8.2516,-8.2708,-8.3247,-8.3901,-8.4209,-8.4362,-7.4869,-7.4869,-7.4869,-7.4869,-7.4869,-7.4869,-7.4869,-7.4869,-7.4869,-7.5248,-7.5966,-7.68,-7.8028,-7.9372,-8.1356,-8.2293,-8.2766,-8.3531,-8.379,-8.3592,-8.3925,-8.4297,-8.4573,-8.4606,-8.4606,-8.4539,-8.4336,-8.3727,-8.2881,-8.2949,-8.2644,-8.1898,-8.2205,-8.2853,-8.333,-8.285,-8.2744,-8.3576,-8.3647,-8.3494,-8.3451,-8.3869,-8.4613,-8.5129,-8.5223,-8.5882,-8.6925,-8.6575,-8.6277,-8.6136,-8.6935,-8.7545,-8.7876,-8.8662,-8.9085,-8.9292,-9.0119,-9.0867,-9.0812,-9.0764,-9.0903,-9.1119,-9.0829,-9.0723,-9.1024,-9.0633,-9.0402,-9.0287,-8.9979,-8.9671,-8.9748,-8.9825,-8.9883,-8.9908,-8.9331,-8.9239,-8.9305,-8.9578,-8.974,-8.9652,-8.9407,-8.9531,-8.9687,-8.9648,-8.9375,-8.9883,-9.0,-9.0,-9.0,-8.9961,-8.9492,-8.9023,-8.8554,-8.7973,-8.7292,-8.7048,-8.6906,-8.6876,-8.6764,-8.6468,-8.6356,-8.5668,-8.4913,-8.3988,-8.3048,-8.2894,-8.2939,-8.3324,-8.3401,-8.367,-8.3785,-8.3939,-8.4247,-8.4593,-8.4824,-7.4869,-7.4869,-7.4869,-7.4869,-7.4869,-7.4869,-7.4869,-7.4869,-7.5112,-7.5966,-7.7061,-7.7773,-7.9404,-8.1589,-8.2345,-8.2976,-8.3549,-8.3959,-8.4133,-8.3655,-8.365,-8.392,-8.4573,-8.4606,-8.4606,-8.4539,-8.4031,-8.3592,-8.3355,-8.305,-8.2509,-8.2682,-8.2953,-8.3601,-8.4834,-8.47,-8.4751,-8.5374,-8.5143,-8.4521,-8.4003,-8.4809,-8.554,-8.5652,-8.6501,-8.7072,-8.7366,-8.7806,-8.7806,-8.7362,-8.7879,-8.8607,-8.9334,-9.0184,-9.0503,-9.0652,-9.1376,-9.1812,-9.169,-9.1718,-9.1632,-9.1604,-9.1295,-9.121,-9.1171,-9.1095,-9.1056,-9.1095,-9.1056,-9.1171,-9.1287,-9.1364,-9.1492,-9.1634,-9.0625,-8.996,-8.99,-9.0158,-9.039,-9.0312,-9.0156,-9.0156,-9.0312,-9.0234,-9.0156,-9.0351,-9.0429,-9.0469,-9.039,-9.039,-8.9804,-8.9398,-8.9104,-8.8554,-8.7988,-8.7743,-8.7648,-8.7564,-8.7333,-8.7056,-8.6701,-8.5921,-8.5401,-8.4478,-8.3785,-8.3593,-8.3708,-8.4209,-8.4362,-8.4401,-8.4401,-8.4324,-8.4555,-8.5055,-8.5445,-7.4869,-7.4869,-7.4869,-7.4869,-7.4869,-7.4869,-7.4869,-7.5112,-7.6202,-7.6931,-7.7773,-7.9861,-8.1239,-8.2198,-8.3421,-8.4116,-8.4094,-8.3934,-8.4069,-8.4234,-8.3718,-8.392,-8.4539,-8.4606,-8.4606,-8.4573,-8.4336,-8.4031,-8.3558,-8.3832,-8.4079,-8.4545,-8.5036,-8.568,-8.6381,-8.6436,-8.6099,-8.5938,-8.6025,-8.5966,-8.5794,-8.6207,-8.6792,-8.7412,-8.7699,-8.8206,-8.8683,-8.894,-8.9014,-8.883,-8.894,-8.9435,-9.0193,-9.1024,-9.1717,-9.2298,-9.3378,-9.4164,-9.3975,-9.3364,-9.3025,-9.2905,-9.1864,-9.121,-9.121,-9.121,-9.1287,-9.1364,-9.1441,-9.1591,-9.1822,-9.2014,-9.2184,-9.2287,-9.1771,-9.145,-9.1639,-9.1875,-9.1914,-9.1875,-9.1328,-9.1289,-9.1484,-9.1328,-9.1172,-9.1601,-9.1719,-9.1637,-9.1349,-9.1273,-9.0887,-9.043,-9.0039,-8.946,-8.8961,-8.8656,-8.844,-8.8359,-8.8051,-8.7583,-8.7006,-8.6242,-8.594,-8.5517,-8.5093,-8.4863,-8.5132,-8.5555,-8.544,-8.5093,-8.5247,-8.5286,-8.5517,-8.5863,-8.6214,-7.4869,-7.4869,-7.4869,-7.4869,-7.4869,-7.4869,-7.5218,-7.5966,-7.68,-7.8155,-7.9495,-8.1239,-8.2572,-8.331,-8.4143,-8.4437,-8.4133,-8.4035,-8.4069,-8.4065,-8.4027,-8.4229,-8.4573,-8.4606,-8.4606,-8.4573,-8.4302,-8.4177,-8.4353,-8.4694,-8.5328,-8.6098,-8.68,-8.7519,-8.8271,-8.7884,-8.768,-8.7385,-8.7326,-8.719,-8.7192,-8.7339,-8.7916,-8.8536,-8.872,-8.9087,-8.9819,-9.0172,-9.0241,-9.0037,-9.0209,-9.072,-9.1534,-9.2596,-9.3347,-9.3821,-9.4662,-9.493,-9.4477,-9.3716,-9.3249,-9.3056,-9.2172,-9.2056,-9.221,-9.2326,-9.2479,-9.2595,-9.2697,-9.2883,-9.3085,-9.332,-9.333,-9.318,-9.3006,-9.2812,-9.2656,-9.25,-9.2578,-9.2461,-9.2226,-9.1992,-9.2578,-9.2109,-9.2109,-9.2265,-9.2226,-9.2132,-9.2014,-9.2033,-9.1792,-9.1061,-9.0524,-8.9874,-8.9331,-8.9008,-8.8979,-8.8902,-8.8863,-8.8363,-8.7863,-8.7094,-8.6824,-8.6709,-8.6363,-8.6132,-8.6209,-8.6209,-8.594,-8.5786,-8.6055,-8.6099,-8.6099,-8.63,-8.6649,-7.4869,-7.4869,-7.4869,-7.4869,-7.4869,-7.5112,-7.5966,-7.7191,-7.7901,-7.9527,-8.1621,-8.2345,-8.331,-8.4606,-8.45,-8.4302,-8.3727,-8.4268,-8.4133,-8.4133,-8.4234,-8.4606,-8.4606,-8.4606,-8.4606,-8.4539,-8.4001,-8.4557,-8.519,-8.5548,-8.6301,-8.7387,-8.817,-8.8934,-8.9518,-8.9256,-8.9112,-8.8838,-8.8215,-8.7957,-8.7957,-8.8062,-8.8536,-8.9417,-8.9993,-9.0438,-9.109,-9.1565,-9.1732,-9.1006,-9.1604,-9.2318,-9.326,-9.4541,-9.5104,-9.5096,-9.5057,-9.4675,-9.3943,-9.3328,-9.2749,-9.2787,-9.2787,-9.2941,-9.3441,-9.3708,-9.39,-9.3939,-9.4382,-9.4369,-9.4615,-9.4944,-9.454,-9.3945,-9.3789,-9.3476,-9.2851,-9.2578,-9.2578,-9.2578,-9.2578,-9.2578,-9.2567,-9.2546,-9.2451,-9.2148,-9.2154,-9.2042,-9.1919,-9.1855,-9.1506,-9.0982,-9.0535,-9.0185,-8.9705,-8.9286,-8.9325,-8.9363,-8.9479,-8.9286,-8.9133,-8.8556,-8.8132,-8.7709,-8.6863,-8.6478,-8.6478,-8.6401,-8.617,-8.6094,-8.6094,-8.6137,-8.6146,-8.6427,-8.6775,-7.4869,-7.4869,-7.4869,-7.4869,-7.5112,-7.6202,-7.6931,-7.7548,-8.0014,-8.1356,-8.2458,-8.3531,-8.4251,-8.4606,-8.4606,-8.4505,-8.4336,-8.4539,-8.4505,-8.4471,-8.4505,-8.4606,-8.4606,-8.4573,-8.4606,-8.4822,-8.5446,-8.5975,-8.6332,-8.7268,-8.8189,-8.9318,-8.955,-8.9915,-9.0255,-9.008,-8.9532,-8.8683,-8.8243,-8.8206,-8.828,-8.8386,-8.9081,-9.0401,-9.1542,-9.2505,-9.3144,-9.3501,-9.3509,-9.34,-9.3515,-9.3893,-9.4541,-9.5001,-9.5451,-9.5595,-9.5252,-9.4864,-9.4557,-9.3826,-9.3441,-9.348,-9.3633,-9.3823,-9.3977,-9.4362,-9.4552,-9.4625,-9.4711,-9.5018,-9.5273,-9.5234,-9.4922,-9.4414,-9.4062,-9.3672,-9.2851,-9.2617,-9.2578,-9.2578,-9.2578,-9.2528,-9.2324,-9.23,-9.2199,-9.2018,-9.1926,-9.1837,-9.1732,-9.1616,-9.1318,-9.0941,-9.0864,-9.0594,-9.0441,-9.0094,-9.0056,-9.0056,-9.0094,-9.0133,-9.0017,-8.9671,-8.9094,-8.8132,-8.706,-8.694,-8.7094,-8.6363,-8.6094,-8.6094,-8.6103,-8.6007,-8.6088,-8.6469,-8.6989,-7.4869,-7.4869,-7.4869,-7.5399,-7.6151,-7.6969,-7.8155,-7.9771,-8.1356,-8.2684,-8.3421,-8.4251,-8.4606,-8.4606,-8.4606,-8.4606,-8.4606,-8.4606,-8.4606,-8.4606,-8.4606,-8.4606,-8.4683,-8.4864,-8.5036,-8.5514,-8.6672,-8.7398,-8.8133,-8.8754,-8.9605,-9.0788,-9.0863,-9.071,-9.0521,-9.026,-8.9381,-8.839,-8.7839,-8.7949,-8.861,-8.9166,-9.0295,-9.1891,-9.3101,-9.3737,-9.4024,-9.4462,-9.4562,-9.4707,-9.4921,-9.5096,-9.5234,-9.5495,-9.5749,-9.5482,-9.4864,-9.4441,-9.4172,-9.371,-9.348,-9.4403,-9.4631,-9.502,-9.5354,-9.5676,-9.5863,-9.6029,-9.6139,-9.625,-9.6367,-9.6406,-9.5937,-9.5351,-9.5078,-9.457,-9.3476,-9.2851,-9.2541,-9.2444,-9.2383,-9.2288,-9.2161,-9.2216,-9.1972,-9.1831,-9.1716,-9.1626,-9.1472,-9.1356,-9.1322,-9.1133,-9.1171,-9.1095,-9.1095,-9.0979,-9.0902,-9.0825,-9.0787,-9.0825,-9.0748,-9.0325,-8.9863,-8.894,-8.8132,-8.7863,-8.7786,-8.6978,-8.6261,-8.6162,-8.6126,-8.5925,-8.598,-8.6374,-8.697,-7.4869,-7.4869,-7.5112,-7.6049,-7.7303,-7.7903,-7.9617,-8.1853,-8.2458,-8.3421,-8.4359,-8.4606,-8.4606,-8.4606,-8.4606,-8.4606,-8.4606,-8.4606,-8.4606,-8.4606,-8.437,-8.4514,-8.4727,-8.5225,-8.5924,-8.6812,-8.7705,-8.8714,-8.9605,-9.0248,-9.0716,-9.162,-9.173,-9.129,-9.0557,-8.9784,-8.916,-8.85,-8.8041,-8.844,-8.9719,-9.0526,-9.1971,-9.3687,-9.4136,-9.4409,-9.4703,-9.5048,-9.5351,-9.5406,-9.598,-9.5904,-9.5741,-9.5823,-9.6057,-9.5249,-9.4595,-9.4287,-9.4249,-9.371,-9.3864,-9.5363,-9.567,-9.6095,-9.6782,-9.707,-9.7161,-9.727,-9.7344,-9.7422,-9.7656,-9.7226,-9.6953,-9.6484,-9.6328,-9.5532,-9.4374,-9.3318,-9.2964,-9.2556,-9.2625,-9.2577,-9.2451,-9.2466,-9.2074,-9.1672,-9.1556,-9.1402,-9.1287,-9.121,-9.121,-9.121,-9.121,-9.121,-9.121,-9.121,-9.121,-9.121,-9.121,-9.121,-9.121,-9.0864,-9.0402,-9.0094,-8.9479,-8.9094,-8.8517,-8.7825,-8.7192,-8.6658,-8.6371,-8.6399,-8.6379,-8.6378,-8.7136,-7.4869,-7.5006,-7.6335,-7.7129,-7.7711,-8.0103,-8.1589,-8.2345,-8.3641,-8.4251,-8.45,-8.4606,-8.4606,-8.4573,-8.4606,-8.4606,-8.4365,-8.4403,-8.4476,-8.4446,-8.4211,-8.4147,-8.5047,-8.5763,-8.6718,-8.804,-8.8778,-8.9347,-9.0176,-9.0984,-9.1362,-9.1767,-9.1803,-9.14,-9.048,-8.9853,-8.9375,-8.9072,-8.8885,-8.9655,-9.0975,-9.2067,-9.3184,-9.4839,-9.5048,-9.5273,-9.5741,-9.5981,-9.6136,-9.6134,-9.6249,-9.6212,-9.6098,-9.6213,-9.6172,-9.5749,-9.5134,-9.4711,-9.4826,-9.4937,-9.5093,-9.5747,-9.6402,-9.6936,-9.7306,-9.75,-9.7578,-9.7617,-9.7656,-9.7695,-9.7695,-9.7304,-9.6797,-9.6367,-9.5868,-9.5221,-9.4714,-9.4295,-9.3843,-9.3461,-9.3284,-9.3054,-9.296,-9.2827,-9.2503,-9.2133,-9.1825,-9.1518,-9.1248,-9.121,-9.121,-9.121,-9.121,-9.121,-9.121,-9.121,-9.121,-9.121,-9.121,-9.121,-9.121,-9.121,-9.0941,-9.0594,-9.021,-8.971,-8.9171,-8.856,-8.7926,-8.7252,-8.7072,-8.6889,-8.6802,-8.6735,-8.7551,-7.5764,-7.6202,-7.7517,-7.8753,-8.0014,-8.1434,-8.2737,-8.3564,-8.4251,-8.4606,-8.4606,-8.4606,-8.437,-8.4133,-8.4031,-8.3824,-8.3583,-8.3452,-8.3773,-8.4097,-8.4097,-8.4426,-8.5496,-8.6324,-8.7515,-8.8671,-8.9398,-9.007,-9.0911,-9.1435,-9.1583,-9.1326,-9.1546,-9.0996,-8.9895,-8.9853,-8.9651,-8.9617,-8.9845,-9.0722,-9.2275,-9.3373,-9.4668,-9.538,-9.5741,-9.5981,-9.6174,-9.6288,-9.6288,-9.6288,-9.6288,-9.6288,-9.6326,-9.6365,-9.6211,-9.5786,-9.5439,-9.5249,-9.5427,-9.5547,-9.5806,-9.6551,-9.7131,-9.7432,-9.7538,-9.7617,-9.7695,-9.7695,-9.7695,-9.7695,-9.7695,-9.7304,-9.7109,-9.6895,-9.6375,-9.5855,-9.5374,-9.5092,-9.4751,-9.44,-9.4018,-9.3787,-9.3557,-9.3358,-9.3054,-9.2595,-9.2172,-9.1787,-9.1441,-9.1441,-9.1556,-9.1518,-9.1595,-9.171,-9.171,-9.1672,-9.1633,-9.1556,-9.1364,-9.1364,-9.1175,-9.1177,-9.1175,-9.1056,-9.0671,-8.9916,-8.976,-8.9188,-8.853,-8.7703,-8.7084,-8.6626,-8.6906,-8.7284,-8.8109,-7.6418,-7.7015,-7.828,-8.0021,-8.1607,-8.2296,-8.3121,-8.4224,-8.4539,-8.4505,-8.4403,-8.4336,-8.3964,-8.3422,-8.3253,-8.3013,-8.2393,-8.2647,-8.3438,-8.3961,-8.4262,-8.4817,-8.6111,-8.6809,-8.7631,-8.8967,-8.9348,-9.0739,-9.1473,-9.1803,-9.1436,-9.1216,-9.1473,-9.0735,-8.944,-9.0025,-9.0016,-9.0316,-9.0772,-9.1959,-9.3467,-9.4723,-9.5657,-9.6213,-9.6288,-9.6251,-9.6288,-9.6288,-9.6288,-9.6326,-9.6365,-9.6365,-9.6403,-9.6557,-9.6281,-9.5576,-9.5623,-9.5709,-9.5885,-9.6009,-9.6514,-9.7225,-9.7412,-9.7536,-9.7617,-9.7656,-9.7695,-9.7695,-9.7695,-9.7656,-9.7617,-9.7617,-9.7481,-9.7276,-9.7104,-9.69,-9.6124,-9.5696,-9.5572,-9.5211,-9.4826,-9.4634,-9.4595,-9.4172,-9.3903,-9.3557,-9.3133,-9.271,-9.2364,-9.221,-9.221,-9.2056,-9.2095,-9.2326,-9.2402,-9.2326,-9.2326,-9.2326,-9.2018,-9.1787,-9.1446,-9.1181,-9.1105,-9.0839,-9.022,-8.9596,-8.9682,-8.9565,-8.8729,-8.7787,-8.6762,-8.6622,-8.7276,-8.7931,-8.8676,-7.5892,-7.5681,-7.8634,-8.0002,-8.0662,-8.2419,-8.3369,-8.3727,-8.4268,-8.4234,-8.3625,-8.3592,-8.3219,-8.2644,-8.2579,-8.2511,-8.265,-8.3311,-8.3821,-8.4264,-8.4564,-8.5522,-8.6908,-8.5916,-8.7445,-8.8764,-8.8835,-8.9858,-9.1105,-9.1582,-9.1619,-9.1325,-9.0845,-9.0494,-9.0143,-9.0604,-9.0792,-9.1461,-9.2733,-9.4166,-9.5438,-9.5943,-9.6174,-9.6251,-9.6288,-9.6288,-9.6288,-9.6326,-9.6326,-9.6326,-9.648,-9.6557,-9.6596,-9.6826,-9.6916,-9.6782,-9.6822,-9.6902,-9.7015,-9.6993,-9.7126,-9.7539,-9.7617,-9.7695,-9.7695,-9.7695,-9.7695,-9.7695,-9.7695,-9.7617,-9.7494,-9.7449,-9.7277,-9.7102,-9.6906,-9.6743,-9.6365,-9.6057,-9.598,-9.598,-9.5557,-9.5711,-9.5788,-9.5249,-9.4788,-9.4441,-9.4095,-9.3633,-9.321,-9.2979,-9.3133,-9.3095,-9.2826,-9.3018,-9.3172,-9.3095,-9.2793,-9.2907,-9.2563,-9.2065,-9.145,-9.0902,-9.0436,-9.0073,-8.9535,-8.928,-8.9374,-8.9146,-8.8662,-8.8016,-8.725,-8.7396,-8.801,-8.868,-8.9197,-7.7357,-7.682,-7.9583,-8.0983,-8.1464,-8.2506,-8.2884,-8.2949,-8.3219,-8.3186,-8.2915,-8.2881,-8.2475,-8.2004,-8.1964,-8.2143,-8.2389,-8.3368,-8.4187,-8.4728,-8.5087,-8.5844,-8.6899,-8.7049,-8.7923,-8.8358,-8.8974,-8.9688,-9.0647,-9.0619,-9.0475,-9.055,-9.0541,-9.0506,-9.0774,-9.1425,-9.2184,-9.3115,-9.4376,-9.552,-9.6135,-9.6288,-9.6288,-9.6288,-9.6288,-9.6288,-9.6326,-9.6442,-9.648,-9.6519,-9.6673,-9.6834,-9.6877,-9.7054,-9.7192,-9.7201,-9.7341,-9.7364,-9.7395,-9.7494,-9.7578,-9.7656,-9.7695,-9.7695,-9.7695,-9.7695,-9.7695,-9.7695,-9.7578,-9.7497,-9.7341,-9.7248,-9.7042,-9.6834,-9.6647,-9.6544,-9.6442,-9.6365,-9.6211,-9.6288,-9.6288,-9.6288,-9.6288,-9.5942,-9.5365,-9.4941,-9.4672,-9.4326,-9.3864,-9.3441,-9.3787,-9.4287,-9.398,-9.371,-9.3864,-9.3903,-9.3139,-9.2983,-9.2703,-9.2117,-9.1195,-9.0542,-9.0218,-8.9604,-8.8979,-8.8834,-8.9016,-8.8709,-8.818,-8.7934,-8.7773,-8.8096,-8.846,-8.8904,-8.9454,-7.8304,-7.7899,-8.0158,-8.1326,-8.1832,-8.2004,-8.214,-8.2137,-8.2374,-8.234,-8.2103,-8.1934,-8.1699,-8.1558,-8.1784,-8.213,-8.2416,-8.3479,-8.4421,-8.5115,-8.5737,-8.6393,-8.7191,-8.7732,-8.7842,-8.8169,-8.8588,-8.9218,-8.9479,-8.9655,-8.9633,-8.984,-9.0711,-9.0923,-9.1382,-9.2269,-9.3408,-9.4585,-9.5558,-9.6135,-9.6288,-9.6288,-9.6288,-9.6326,-9.6365,-9.6365,-9.6403,-9.6596,-9.6673,-9.6777,-9.6936,-9.7104,-9.7151,-9.7289,-9.7449,-9.747,-9.7573,-9.7572,-9.7556,-9.7578,-9.7656,-9.7695,-9.7695,-9.7695,-9.7695,-9.7684,-9.7617,-9.7578,-9.7422,-9.7286,-9.7169,-9.698,-9.6823,-9.6666,-9.6517,-9.6403,-9.6326,-9.6326,-9.6288,-9.6288,-9.6288,-9.6288,-9.6288,-9.6288,-9.5942,-9.548,-9.5172,-9.4941,-9.4634,-9.4212,-9.4559,-9.5137,-9.5058,-9.4638,-9.4445,-9.4366,-9.3659,-9.3091,-9.2793,-9.2375,-9.1571,-9.0804,-9.0285,-8.9497,-8.8697,-8.8479,-8.8604,-8.8221,-8.7836,-8.7628,-8.7623,-8.8267,-8.8793,-8.9307,-8.9711,-7.7981,-7.8014,-7.9596,-8.0344,-8.0479,-8.1088,-8.1393,-8.1426,-8.2069,-8.19,-8.1325,-8.0851,-8.1175,-8.1732,-8.2257,-8.2715,-8.355,-8.4693,-8.5247,-8.5735,-8.6356,-8.7079,-8.7545,-8.7578,-8.761,-8.8115,-8.8498,-8.853,-8.8548,-8.9348,-9.006,-9.1131,-9.1169,-9.1785,-9.2497,-9.3445,-9.4598,-9.556,-9.6174,-9.6288,-9.6288,-9.6326,-9.6326,-9.6365,-9.648,-9.6557,-9.6594,-9.6825,-9.696,-9.6954,-9.7218,-9.7349,-9.7378,-9.7535,-9.7611,-9.7634,-9.7667,-9.7656,-9.7656,-9.7656,-9.7695,-9.7695,-9.7695,-9.7695,-9.7656,-9.7518,-9.7433,-9.7393,-9.7151,-9.6958,-9.6806,-9.6596,-9.6557,-9.648,-9.6403,-9.6365,-9.6326,-9.6288,-9.6288,-9.6288,-9.6288,-9.6288,-9.6288,-9.6288,-9.6288,-9.5865,-9.5789,-9.5558,-9.5598,-9.5329,-9.5483,-9.5829,-9.5906,-9.5595,-9.5051,-9.46,-9.3992,-9.3378,-9.304,-9.2744,-9.2222,-9.1467,-9.0367,-8.9808,-8.9118,-8.8649,-8.8194,-8.7992,-8.7697,-8.7458,-8.7619,-8.839,-8.9087,-8.9638,-8.9968,-7.9288,-7.9392,-7.9972,-8.0209,-8.0209,-8.0513,-8.0648,-8.0648,-8.0919,-8.0919,-8.0682,-8.1102,-8.1474,-8.2118,-8.3585,-8.4171,-8.4773,-8.5806,-8.6138,-8.6392,-8.6892,-8.7215,-8.7389,-8.7719,-8.7932,-8.8207,-8.8479,-8.9016,-8.9464,-8.9697,-9.0257,-9.1057,-9.1507,-9.226,-9.3207,-9.4408,-9.5558,-9.6019,-9.6288,-9.6288,-9.6326,-9.6442,-9.648,-9.648,-9.6711,-9.6828,-9.687,-9.7076,-9.7214,-9.7296,-9.744,-9.7539,-9.7539,-9.7656,-9.7695,-9.7695,-9.7695,-9.7695,-9.7695,-9.7695,-9.7695,-9.7695,-9.7695,-9.7656,-9.7536,-9.7401,-9.7285,-9.7122,-9.6911,-9.6712,-9.666,-9.648,-9.6365,-9.6326,-9.6288,-9.6288,-9.6288,-9.6288,-9.6288,-9.6288,-9.6288,-9.6288,-9.6288,-9.6288,-9.6288,-9.6249,-9.6212,-9.6174,-9.602,-9.5783,-9.5657,-9.5533,-9.5533,-9.5273,-9.468,-9.4424,-9.4265,-9.3633,-9.3073,-9.2591,-9.2169,-9.1334,-9.0421,-8.9915,-8.9509,-8.9077,-8.857,-8.8023,-8.7655,-8.7325,-8.7802,-8.8647,-8.9307,-9.0041,-9.0041,-8.0006,-8.0175,-8.0209,-8.0209,-8.0209,-8.0209,-8.0209,-8.0209,-8.0242,-8.0442,-8.0804,-8.191,-8.2661,-8.3329,-8.437,-8.5544,-8.588,-8.65,-8.6856,-8.7064,-8.7163,-8.7298,-8.7554,-8.7985,-8.8426,-8.856,-8.9107,-8.9707,-9.0441,-9.0665,-9.122,-9.1642,-9.1935,-9.2751,-9.3294,-9.4941,-9.6019,-9.6249,-9.6365,-9.6403,-9.6442,-9.6596,-9.6724,-9.6762,-9.6999,-9.708,-9.7173,-9.7316,-9.7471,-9.7497,-9.7617,-9.7656,-9.7695,-9.7695,-9.7695,-9.7695,-9.7695,-9.7695,-9.7695,-9.7695,-9.7656,-9.7578,-9.7578,-9.7458,-9.7356,-9.721,-9.698,-9.6865,-9.6671,-9.6519,-9.6519,-9.6403,-9.6326,-9.6288,-9.6288,-9.6288,-9.6288,-9.6288,-9.6288,-9.6288,-9.6288,-9.6251,-9.6059,-9.6059,-9.602,-9.5981,-9.5862,-9.57,-9.5533,-9.5273,-9.4963,-9.4817,-9.468,-9.4319,-9.3935,-9.3764,-9.353,-9.2913,-9.2343,-9.2135,-9.1639,-9.1031,-9.0886,-9.0772,-9.0294,-8.9564,-8.9197,-8.8904,-8.8059,-8.7178,-8.8059,-8.9124,-9.0078,-9.0665,-8.9931,-7.9566,-8.0175,-8.0209,-8.0209,-8.0209,-8.0209,-8.0209,-8.0209,-8.0376,-8.0966,-8.1968,-8.3103,-8.4088,-8.4852,-8.5314,-8.5991,-8.6571,-8.6925,-8.7064,-8.7194,-8.7683,-8.7923,-8.8309,-8.8691,-8.9122,-8.9238,-8.9906,-9.077,-9.1348,-9.1911,-9.233,-9.2595,-9.2987,-9.3293,-9.2826,-9.4249,-9.548,-9.6211,-9.648,-9.6594,-9.666,-9.6856,-9.6976,-9.7045,-9.7236,-9.739,-9.7416,-9.7539,-9.7617,-9.7656,-9.7656,-9.7695,-9.7695,-9.7695,-9.7695,-9.7695,-9.7695,-9.7695,-9.7695,-9.7695,-9.7578,-9.7461,-9.7442,-9.7247,-9.7013,-9.6826,-9.6673,-9.6634,-9.648,-9.6365,-9.6326,-9.6326,-9.6288,-9.6288,-9.6288,-9.6288,-9.6288,-9.6288,-9.6288,-9.6174,-9.6251,-9.6213,-9.5981,-9.5741,-9.57,-9.5576,-9.5451,-9.5234,-9.4915,-9.4768,-9.4424,-9.3897,-9.3726,-9.3589,-9.3227,-9.3077,-9.2728,-9.2159,-9.1875,-9.1728,-9.1728,-9.1545,-9.1436,-9.1473,-9.1069,-9.0408,-9.0115,-8.9858,-8.8977,-8.828,-8.883,-8.9748,-9.0739,-9.1033,-9.0152,-7.9532,-8.0209,-8.0209,-8.0209,-8.0209,-8.0209,-8.0209,-8.0376,-8.1063,-8.1968,-8.3103,-8.4207,-8.4852,-8.5391,-8.6064,-8.6571,-8.6925,-8.6995,-8.7095,-8.7773,-8.8107,-8.8388,-8.8801,-8.9377,-8.9763,-9.0136,-9.0906,-9.1644,-9.2143,-9.2943,-9.3213,-9.3441,-9.3746,-9.4016,-9.4439,-9.5365,-9.6288,-9.6519,-9.6746,-9.6883,-9.6887,-9.7092,-9.7264,-9.7247,-9.748,-9.7578,-9.7578,-9.7656,-9.7695,-9.7695,-9.7695,-9.7695,-9.7695,-9.7695,-9.7695,-9.7695,-9.7689,-9.7625,-9.7493,-9.7383,-9.7304,-9.7277,-9.7204,-9.7015,-9.6749,-9.6673,-9.6557,-9.6442,-9.6365,-9.6288,-9.6288,-9.6288,-9.6288,-9.6288,-9.6288,-9.6288,-9.6288,-9.6288,-9.6251,-9.6059,-9.602,-9.5363,-9.4915,-9.4817,-9.4768,-9.463,-9.4424,-9.4157,-9.3878,-9.4047,-9.3897,-9.3102,-9.2728,-9.2662,-9.2566,-9.2498,-9.2399,-9.2018,-9.1839,-9.1803,-9.1767,-9.1803,-9.1767,-9.162,-9.1473,-9.1253,-9.0776,-9.0335,-8.9895,-8.9638,-9.0005,-9.0408,-9.1179,-9.0996,-9.0041,-7.9397,-7.987,-8.0513,-8.0814,-8.077,-8.0817,-8.0974,-8.15,-8.2571,-8.35,-8.437,-8.5391,-8.588,-8.6138,-8.6571,-8.7231,-8.7365,-8.7389,-8.7784,-8.8405,-8.8748,-8.9054,-8.9573,-9.0111,-9.0447,-9.0914,-9.1721,-9.2595,-9.2982,-9.3787,-9.4172,-9.4287,-9.4249,-9.4593,-9.517,-9.5826,-9.6382,-9.6641,-9.697,-9.7119,-9.7208,-9.7367,-9.7526,-9.7536,-9.7617,-9.7695,-9.7695,-9.7695,-9.7695,-9.7695,-9.7695,-9.7695,-9.7695,-9.7706,-9.7678,-9.7655,-9.7479,-9.7407,-9.724,-9.7024,-9.7009,-9.703,-9.6946,-9.6743,-9.6557,-9.648,-9.6442,-9.6365,-9.6288,-9.6288,-9.6288,-9.6288,-9.6288,-9.6288,-9.6288,-9.6288,-9.6251,-9.6251,-9.602,-9.5862,-9.5451,-9.468,-9.3935,-9.3764,-9.3706,-9.347,-9.3288,-9.3077,-9.2987,-9.314,-9.3288,-9.2662,-9.2159,-9.2192,-9.2159,-9.2018,-9.1912,-9.1803,-9.1803,-9.1803,-9.1803,-9.1803,-9.1803,-9.1803,-9.1657,-9.1436,-9.1143,-9.0776,-9.0592,-9.0629,-9.0922,-9.1326,-9.173,-9.1143,-9.0262,-7.9158,-7.9429,-8.1155,-8.1983,-8.1933,-8.2033,-8.2708,-8.367,-8.4693,-8.5201,-8.5468,-8.65,-8.6749,-8.6925,-8.7064,-8.746,-8.791,-8.8051,-8.854,-8.9098,-8.9528,-8.9915,-9.0394,-9.0839,-9.1067,-9.1485,-9.221,-9.3095,-9.371,-9.4672,-9.5211,-9.5326,-9.5095,-9.5417,-9.5856,-9.6184,-9.6568,-9.6955,-9.7238,-9.7379,-9.7448,-9.7565,-9.7617,-9.7656,-9.7656,-9.7695,-9.7695,-9.7695,-9.7695,-9.7695,-9.7695,-9.7695,-9.768,-9.7688,-9.7594,-9.738,-9.7148,-9.7024,-9.6964,-9.6733,-9.6656,-9.6676,-9.6617,-9.648,-9.6403,-9.6365,-9.6326,-9.6326,-9.6288,-9.6288,-9.6288,-9.6288,-9.6288,-9.6288,-9.6288,-9.6251,-9.6136,-9.5981,-9.57,-9.5407,-9.501,-9.4319,-9.3264,-9.2923,-9.2886,-9.2662,-9.2566,-9.2633,-9.2468,-9.2262,-9.2362,-9.2262,-9.1912,-9.1839,-9.1803,-9.1803,-9.1803,-9.1803,-9.1803,-9.1803,-9.1803,-9.1803,-9.1803,-9.1803,-9.1803,-9.1657,-9.14,-9.1436,-9.1546,-9.162,-9.1327,-9.14,-9.162,-9.151,-9.0886,-7.9796,-8.0519,-8.2334,-8.3079,-8.3226,-8.3967,-8.4557,-8.4852,-8.5201,-8.5695,-8.6571,-8.6819,-8.7064,-8.6995,-8.7554,-8.7861,-8.8232,-8.8623,-8.9211,-8.9703,-9.0129,-9.0899,-9.126,-9.1408,-9.1633,-9.2172,-9.2826,-9.3441,-9.4018,-9.5134,-9.6172,-9.6442,-9.6227,-9.6527,-9.6726,-9.7014,-9.7151,-9.7251,-9.7499,-9.7539,-9.7578,-9.7656,-9.7695,-9.7695,-9.7695,-9.7695,-9.7695,-9.7695,-9.7695,-9.7695,-9.771,-9.7677,-9.7479,-9.7457,-9.7402,-9.7133,-9.6917,-9.6695,-9.6671,-9.6519,-9.6403,-9.6403,-9.6403,-9.6365,-9.6326,-9.6288,-9.6288,-9.6288,-9.6288,-9.6288,-9.6288,-9.6288,-9.6174,-9.6136,-9.6059,-9.5902,-9.5741,-9.5407,-9.5142,-9.4579,-9.4211,-9.353,-9.2498,-9.2262,-9.2262,-9.1983,-9.1839,-9.2055,-9.2018,-9.1912,-9.1839,-9.1803,-9.1803,-9.1803,-9.1803,-9.1803,-9.1803,-9.1803,-9.1803,-9.1803,-9.1803,-9.1803,-9.1803,-9.1803,-9.1803,-9.1803,-9.173,-9.1803,-9.1803,-9.136,-9.1063,-9.1287,-9.1399,-9.0993,-9.0883,-8.0404,-8.077,-8.2546,-8.3719,-8.4593,-8.5547,-8.5991,-8.5991,-8.5954,-8.6392,-8.6995,-8.7328,-8.746,-8.7554,-8.819,-8.8673,-8.9001,-8.9345,-8.9869,-9.0394,-9.0478,-9.1068,-9.1485,-9.1556,-9.1518,-9.2249,-9.3133,-9.3826,-9.4326,-9.5441,-9.6557,-9.709,-9.7178,-9.7262,-9.7416,-9.75,-9.7519,-9.7582,-9.7617,-9.7695,-9.7695,-9.7695,-9.7695,-9.7695,-9.7695,-9.7695,-9.7695,-9.7695,-9.7695,-9.7655,-9.7645,-9.7516,-9.7362,-9.7248,-9.7056,-9.6825,-9.6632,-9.6515,-9.648,-9.6403,-9.6326,-9.6288,-9.6288,-9.6288,-9.6288,-9.6288,-9.6288,-9.6288,-9.6288,-9.6288,-9.6288,-9.6251,-9.6059,-9.5862,-9.57,-9.549,-9.5189,-9.4817,-9.4319,-9.3706,-9.314,-9.2498,-9.2018,-9.1839,-9.1803,-9.1803,-9.1803,-9.1839,-9.1912,-9.1839,-9.1803,-9.1803,-9.1803,-9.1803,-9.1803,-9.1803,-9.1803,-9.1803,-9.1803,-9.1803,-9.1803,-9.1803,-9.1803,-9.1803,-9.1803,-9.1803,-9.1803,-9.1803,-9.1694,-9.1173,-9.0559,-9.0284,-9.0051,-8.9662,-8.9626,-8.0942,-8.0587,-8.2442,-8.4385,-8.5837,-8.6738,-8.7027,-8.7095,-8.7127,-8.7163,-8.7298,-8.7898,-8.8167,-8.8309,-8.8856,-8.9389,-8.9783,-9.0077,-9.0441,-9.1136,-9.1028,-9.1331,-9.1521,-9.1325,-9.1556,-9.2018,-9.2826,-9.4016,-9.467,-9.5745,-9.6856,-9.7344,-9.7004,-9.7109,-9.7578,-9.7656,-9.7656,-9.7656,-9.7656,-9.7695,-9.7695,-9.7695,-9.7695,-9.7695,-9.7695,-9.7695,-9.7695,-9.7695,-9.7678,-9.7623,-9.7479,-9.7364,-9.7133,-9.6865,-9.6673,-9.6557,-9.6442,-9.6365,-9.6326,-9.6326,-9.6288,-9.6288,-9.6288,-9.6288,-9.6288,-9.6288,-9.6288,-9.6288,-9.6288,-9.6288,-9.6288,-9.6327,-9.6163,-9.591,-9.5646,-9.5186,-9.4681,-9.4142,-9.3349,-9.2858,-9.2566,-9.1983,-9.1912,-9.1803,-9.1803,-9.1803,-9.1803,-9.1803,-9.1803,-9.1803,-9.1803,-9.1803,-9.1803,-9.1803,-9.1803,-9.1803,-9.1803,-9.1803,-9.1803,-9.1803,-9.1803,-9.1803,-9.1803,-9.1803,-9.1803,-9.1803,-9.1803,-9.1546,-9.1097,-9.0443,-8.976,-8.9135,-8.8631,-8.8206,-8.8472,-8.187,-8.2562,-8.4971,-8.6317,-8.6807,-8.7544,-8.7836,-8.7898,-8.8388,-8.8271,-8.8046,-8.8503,-8.8856,-8.8963,-8.9573,-9.0073,-9.0193,-9.0597,-9.0992,-9.1139,-9.121,-9.1518,-9.1902,-9.1595,-9.1784,-9.2441,-9.3284,-9.4279,-9.5445,-9.6442,-9.7187,-9.7539,-9.7344,-9.75,-9.7656,-9.7695,-9.7695,-9.7695,-9.7695,-9.7695,-9.7695,-9.7695,-9.7695,-9.7695,-9.7695,-9.7656,-9.7656,-9.7539,-9.7504,-9.7433,-9.7206,-9.698,-9.6788,-9.6519,-9.6403,-9.6365,-9.6326,-9.6288,-9.6288,-9.6288,-9.6288,-9.6288,-9.6288,-9.6288,-9.6288,-9.6288,-9.6288,-9.6288,-9.6288,-9.6288,-9.629,-9.6278,-9.6158,-9.5838,-9.5427,-9.4783,-9.4111,-9.3268,-9.2399,-9.2122,-9.1912,-9.1913,-9.1877,-9.1913,-9.1803,-9.1803,-9.1803,-9.1803,-9.1877,-9.1877,-9.1803,-9.1803,-9.1803,-9.1803,-9.1803,-9.1803,-9.1803,-9.1803,-9.1803,-9.1803,-9.1803,-9.1803,-9.1803,-9.1803,-9.1803,-9.1694,-9.136,-9.0866,-9.032,-8.9474,-8.8667,-8.7861,-8.7056,-8.6477,-8.7116,-8.2245,-8.2898,-8.5028,-8.6111,-8.6573,-8.7599,-8.8249,-8.8673,-8.9276,-8.9339,-8.9069,-8.9339,-8.9535,-8.9669,-9.0284,-9.0566,-9.0606,-9.0989,-9.1139,-9.1175,-9.1364,-9.1556,-9.1748,-9.1857,-9.1947,-9.248,-9.361,-9.4795,-9.6094,-9.7013,-9.7578,-9.7695,-9.7695,-9.7695,-9.7695,-9.7695,-9.7695,-9.7695,-9.7695,-9.7695,-9.7695,-9.7695,-9.7695,-9.7695,-9.7611,-9.7616,-9.7488,-9.7355,-9.7261,-9.7148,-9.6977,-9.6711,-9.6557,-9.6403,-9.6326,-9.6288,-9.6288,-9.6288,-9.6288,-9.6288,-9.6288,-9.6288,-9.6288,-9.6288,-9.6288,-9.6288,-9.6288,-9.6288,-9.6288,-9.6288,-9.6166,-9.6127,-9.554,-9.5008,-9.4328,-9.3638,-9.3099,-9.2446,-9.2018,-9.1983,-9.2096,-9.2537,-9.2684,-9.3088,-9.3015,-9.2978,-9.2831,-9.2354,-9.2281,-9.2024,-9.1913,-9.1803,-9.1803,-9.1803,-9.1803,-9.1803,-9.1803,-9.1803,-9.1803,-9.1803,-9.1803,-9.1803,-9.1803,-9.1803,-9.1657,-9.136,-9.102,-9.0276,-8.905,-8.8043,-8.7211,-8.6414,-8.5719,-8.517,-8.5786,-8.2406,-8.2839,-8.4396,-8.5507,-8.6192,-8.7736,-8.8691,-8.9276,-8.9901,-9.0203,-9.0198,-9.0241,-9.0203,-9.0488,-9.0839,-9.1026,-9.121,-9.1213,-9.1248,-9.1325,-9.1479,-9.1869,-9.1985,-9.1919,-9.2057,-9.2749,-9.3908,-9.4961,-9.6094,-9.707,-9.7656,-9.7695,-9.7695,-9.7695,-9.7695,-9.7695,-9.7695,-9.7656,-9.7656,-9.7656,-9.7656,-9.7656,-9.7617,-9.7578,-9.7471,-9.735,-9.7244,-9.7133,-9.6979,-9.6863,-9.6711,-9.6519,-9.6403,-9.6326,-9.6326,-9.6288,-9.6288,-9.6288,-9.6288,-9.6288,-9.6288,-9.6288,-9.6288,-9.6251,-9.6212,-9.6136,-9.6136,-9.6134,-9.6134,-9.6089,-9.5929,-9.5705,-9.5027,-9.4397,-9.3647,-9.281,-9.2303,-9.2023,-9.2024,-9.2024,-9.2537,-9.3125,-9.3529,-9.3969,-9.4079,-9.4079,-9.3859,-9.3418,-9.2978,-9.2537,-9.2244,-9.1987,-9.1803,-9.1803,-9.1803,-9.1803,-9.1803,-9.1803,-9.1803,-9.1803,-9.1803,-9.1803,-9.1803,-9.1767,-9.1583,-9.1239,-9.0429,-8.9582,-8.8294,-8.6961,-8.6152,-8.5617,-8.524,-8.4785,-8.4713,-8.3309,-8.5042,-8.6553,-8.7614,-8.8442,-8.9335,-8.9809,-9.0028,-9.0646,-9.0989,-9.0914,-9.0989,-9.0989,-9.0989,-9.11,-9.121,-9.1287,-9.1325,-9.1402,-9.1479,-9.1707,-9.22,-9.2535,-9.2468,-9.2365,-9.3047,-9.4062,-9.5078,-9.5859,-9.6953,-9.7695,-9.7695,-9.7695,-9.7695,-9.7695,-9.7695,-9.7656,-9.7628,-9.7515,-9.744,-9.7457,-9.744,-9.7441,-9.7354,-9.7198,-9.714,-9.6994,-9.6825,-9.6711,-9.6596,-9.6519,-9.6365,-9.6326,-9.6288,-9.6288,-9.6288,-9.6288,-9.6288,-9.6288,-9.6288,-9.6288,-9.6288,-9.6174,-9.5902,-9.578,-9.556,-9.5494,-9.549,-9.5528,-9.5589,-9.5484,-9.5439,-9.4969,-9.4421,-9.3684,-9.2816,-9.2095,-9.2391,-9.2721,-9.3015,-9.3455,-9.3859,-9.4116,-9.441,-9.452,-9.4483,-9.4299,-9.3859,-9.3529,-9.3051,-9.2574,-9.2244,-9.195,-9.1803,-9.1803,-9.1803,-9.1803,-9.1803,-9.1694,-9.162,-9.162,-9.1803,-9.173,-9.1133,-9.1188,-9.1044,-9.0084,-8.8633,-8.7632,-8.6321,-8.5447,-8.4785,-8.4606,-8.4606,-8.4606]}]]